<?xml version="1.0" encoding="UTF-8" standalone="no" ?>
<gpx xmlns="http://www.topografix.com/GPX/1/1" xmlns:xsi="http://www.w3.org/2001/XMLSchema-instance" xsi:schemaLocation="http://www.topografix.com/GPX/1/1 http://www.topografix.com/GPX/1/1/gpx.xsd" version="1.1" creator="VisuGPX - https://www.visugpx.com">
  <metadata>
    <name>La Cure - Rocher de la Pérouse</name>
    <desc><![CDATA[Forêts, cours d'eau, points de vue ... font de tout cela une randonnée fort agréable et variée.]]></desc>
  </metadata>
  <trk>
    <name><![CDATA[La Cure - Rocher de la Pérouse]]></name>
    <extensions>
      <line xmlns="http://www.topografix.com/GPX/gpx_style/0/2">
        <color>ff0000</color>
        <opacity>1</opacity>
        <width>4</width>
      </line>
    </extensions>
    <trkseg>
      <trkpt lat="47.31012" lon="3.99126">
        <ele>472.7</ele>
        <time>2024-09-06T07:51:18Z</time>
      </trkpt>
      <trkpt lat="47.3101" lon="3.99119">
        <ele>472.8</ele>
        <time>2024-09-06T07:53:35Z</time>
      </trkpt>
      <trkpt lat="47.31006" lon="3.99109">
        <ele>473</ele>
        <time>2024-09-06T07:53:46.499Z</time>
      </trkpt>
      <trkpt lat="47.31002" lon="3.99099">
        <ele>473</ele>
        <time>2024-09-06T07:53:58Z</time>
      </trkpt>
      <trkpt lat="47.30999" lon="3.99092">
        <ele>473</ele>
        <time>2024-09-06T07:54:04.499Z</time>
      </trkpt>
      <trkpt lat="47.30996" lon="3.99084">
        <ele>473.1</ele>
        <time>2024-09-06T07:54:11Z</time>
      </trkpt>
      <trkpt lat="47.3099" lon="3.99083">
        <ele>473.4</ele>
        <time>2024-09-06T07:54:19.000Z</time>
      </trkpt>
      <trkpt lat="47.30983" lon="3.99081">
        <ele>473.8</ele>
        <time>2024-09-06T07:54:27Z</time>
      </trkpt>
      <trkpt lat="47.30978" lon="3.99084">
        <ele>473.8</ele>
        <time>2024-09-06T07:54:31.999Z</time>
      </trkpt>
      <trkpt lat="47.30973" lon="3.99087">
        <ele>473.8</ele>
        <time>2024-09-06T07:54:37Z</time>
      </trkpt>
      <trkpt lat="47.30967" lon="3.99085">
        <ele>474.1</ele>
        <time>2024-09-06T07:54:41.500Z</time>
      </trkpt>
      <trkpt lat="47.3096" lon="3.99083">
        <ele>474.5</ele>
        <time>2024-09-06T07:54:46Z</time>
      </trkpt>
      <trkpt lat="47.30956" lon="3.99085">
        <ele>474.5</ele>
        <time>2024-09-06T07:54:50.500Z</time>
      </trkpt>
      <trkpt lat="47.30951" lon="3.99086">
        <ele>474.6</ele>
        <time>2024-09-06T07:54:55Z</time>
      </trkpt>
      <trkpt lat="47.30945" lon="3.9909">
        <ele>474.5</ele>
        <time>2024-09-06T07:54:59.499Z</time>
      </trkpt>
      <trkpt lat="47.30939" lon="3.99093">
        <ele>474.2</ele>
        <time>2024-09-06T07:55:04Z</time>
      </trkpt>
      <trkpt lat="47.30937" lon="3.99101">
        <ele>473.6</ele>
        <time>2024-09-06T07:55:24Z</time>
      </trkpt>
      <trkpt lat="47.30932" lon="3.99098">
        <ele>473.7</ele>
        <time>2024-09-06T07:55:28.999Z</time>
      </trkpt>
      <trkpt lat="47.30927" lon="3.99095">
        <ele>473.8</ele>
        <time>2024-09-06T07:55:34Z</time>
      </trkpt>
      <trkpt lat="47.30919" lon="3.99095">
        <ele>473.6</ele>
        <time>2024-09-06T07:55:44Z</time>
      </trkpt>
      <trkpt lat="47.30914" lon="3.99096">
        <ele>473.7</ele>
        <time>2024-09-06T07:55:48.000Z</time>
      </trkpt>
      <trkpt lat="47.30908" lon="3.99097">
        <ele>473.8</ele>
        <time>2024-09-06T07:55:52Z</time>
      </trkpt>
      <trkpt lat="47.30904" lon="3.99097">
        <ele>474</ele>
        <time>2024-09-06T07:55:56.000Z</time>
      </trkpt>
      <trkpt lat="47.30899" lon="3.99097">
        <ele>474.1</ele>
        <time>2024-09-06T07:56:00Z</time>
      </trkpt>
      <trkpt lat="47.30894" lon="3.99099">
        <ele>474.3</ele>
        <time>2024-09-06T07:56:03.999Z</time>
      </trkpt>
      <trkpt lat="47.30889" lon="3.99101">
        <ele>474.4</ele>
        <time>2024-09-06T07:56:08Z</time>
      </trkpt>
      <trkpt lat="47.30885" lon="3.99102">
        <ele>474.7</ele>
        <time>2024-09-06T07:56:12.000Z</time>
      </trkpt>
      <trkpt lat="47.3088" lon="3.99102">
        <ele>475</ele>
        <time>2024-09-06T07:56:16Z</time>
      </trkpt>
      <trkpt lat="47.30875" lon="3.99102">
        <ele>475.4</ele>
        <time>2024-09-06T07:56:20.500Z</time>
      </trkpt>
      <trkpt lat="47.30869" lon="3.99102">
        <ele>475.8</ele>
        <time>2024-09-06T07:56:25Z</time>
      </trkpt>
      <trkpt lat="47.30864" lon="3.99103">
        <ele>476.1</ele>
        <time>2024-09-06T07:56:30.000Z</time>
      </trkpt>
      <trkpt lat="47.30858" lon="3.99103">
        <ele>476.5</ele>
        <time>2024-09-06T07:56:35Z</time>
      </trkpt>
      <trkpt lat="47.30853" lon="3.99105">
        <ele>476.8</ele>
        <time>2024-09-06T07:56:39.999Z</time>
      </trkpt>
      <trkpt lat="47.30848" lon="3.99107">
        <ele>477.1</ele>
        <time>2024-09-06T07:56:45Z</time>
      </trkpt>
      <trkpt lat="47.30844" lon="3.99111">
        <ele>477.3</ele>
        <time>2024-09-06T07:56:50.499Z</time>
      </trkpt>
      <trkpt lat="47.30839" lon="3.99115">
        <ele>477.5</ele>
        <time>2024-09-06T07:56:56Z</time>
      </trkpt>
      <trkpt lat="47.30835" lon="3.99109">
        <ele>478</ele>
        <time>2024-09-06T07:57:03.499Z</time>
      </trkpt>
      <trkpt lat="47.30831" lon="3.99103">
        <ele>478.5</ele>
        <time>2024-09-06T07:57:11Z</time>
      </trkpt>
      <trkpt lat="47.30827" lon="3.99096">
        <ele>479.1</ele>
        <time>2024-09-06T07:57:19.499Z</time>
      </trkpt>
      <trkpt lat="47.30823" lon="3.99089">
        <ele>479.6</ele>
        <time>2024-09-06T07:57:28Z</time>
      </trkpt>
      <trkpt lat="47.30816" lon="3.99084">
        <ele>480.3</ele>
        <time>2024-09-06T07:57:38.499Z</time>
      </trkpt>
      <trkpt lat="47.30808" lon="3.99079">
        <ele>480.8</ele>
        <time>2024-09-06T07:57:49Z</time>
      </trkpt>
      <trkpt lat="47.30804" lon="3.99075">
        <ele>481.1</ele>
        <time>2024-09-06T07:57:55.499Z</time>
      </trkpt>
      <trkpt lat="47.30799" lon="3.9907">
        <ele>481.4</ele>
        <time>2024-09-06T07:58:02Z</time>
      </trkpt>
      <trkpt lat="47.30792" lon="3.99062">
        <ele>481.6</ele>
        <time>2024-09-06T07:58:08.499Z</time>
      </trkpt>
      <trkpt lat="47.30785" lon="3.99054">
        <ele>481.7</ele>
        <time>2024-09-06T07:58:15Z</time>
      </trkpt>
      <trkpt lat="47.30782" lon="3.99047">
        <ele>481.8</ele>
        <time>2024-09-06T07:58:20.499Z</time>
      </trkpt>
      <trkpt lat="47.30779" lon="3.9904">
        <ele>482</ele>
        <time>2024-09-06T07:58:26Z</time>
      </trkpt>
      <trkpt lat="47.30774" lon="3.99032">
        <ele>482</ele>
        <time>2024-09-06T07:58:31.499Z</time>
      </trkpt>
      <trkpt lat="47.30769" lon="3.99023">
        <ele>481.8</ele>
        <time>2024-09-06T07:58:37Z</time>
      </trkpt>
      <trkpt lat="47.30766" lon="3.99017">
        <ele>481.6</ele>
        <time>2024-09-06T07:58:41.499Z</time>
      </trkpt>
      <trkpt lat="47.30762" lon="3.9901">
        <ele>481.4</ele>
        <time>2024-09-06T07:58:46Z</time>
      </trkpt>
      <trkpt lat="47.30758" lon="3.99003">
        <ele>481.1</ele>
        <time>2024-09-06T07:58:50.999Z</time>
      </trkpt>
      <trkpt lat="47.30753" lon="3.98996">
        <ele>480.9</ele>
        <time>2024-09-06T07:58:56Z</time>
      </trkpt>
      <trkpt lat="47.30751" lon="3.9899">
        <ele>480.6</ele>
        <time>2024-09-06T07:59:00.499Z</time>
      </trkpt>
      <trkpt lat="47.30748" lon="3.98984">
        <ele>480.5</ele>
        <time>2024-09-06T07:59:05Z</time>
      </trkpt>
      <trkpt lat="47.30744" lon="3.98978">
        <ele>480.5</ele>
        <time>2024-09-06T07:59:08.999Z</time>
      </trkpt>
      <trkpt lat="47.3074" lon="3.98972">
        <ele>480.3</ele>
        <time>2024-09-06T07:59:13Z</time>
      </trkpt>
      <trkpt lat="47.30738" lon="3.98966">
        <ele>480.1</ele>
        <time>2024-09-06T07:59:16.999Z</time>
      </trkpt>
      <trkpt lat="47.30736" lon="3.9896">
        <ele>479.8</ele>
        <time>2024-09-06T07:59:21Z</time>
      </trkpt>
      <trkpt lat="47.30734" lon="3.98954">
        <ele>479.5</ele>
        <time>2024-09-06T07:59:25.499Z</time>
      </trkpt>
      <trkpt lat="47.30731" lon="3.98947">
        <ele>479.2</ele>
        <time>2024-09-06T07:59:30Z</time>
      </trkpt>
      <trkpt lat="47.30729" lon="3.98938">
        <ele>478.6</ele>
        <time>2024-09-06T07:59:34.999Z</time>
      </trkpt>
      <trkpt lat="47.30726" lon="3.98928">
        <ele>477.9</ele>
        <time>2024-09-06T07:59:40Z</time>
      </trkpt>
      <trkpt lat="47.30724" lon="3.98921">
        <ele>477.4</ele>
        <time>2024-09-06T07:59:44.499Z</time>
      </trkpt>
      <trkpt lat="47.30721" lon="3.98914">
        <ele>476.8</ele>
        <time>2024-09-06T07:59:49Z</time>
      </trkpt>
      <trkpt lat="47.3072" lon="3.98907">
        <ele>476.2</ele>
        <time>2024-09-06T07:59:53.499Z</time>
      </trkpt>
      <trkpt lat="47.30718" lon="3.989">
        <ele>475.6</ele>
        <time>2024-09-06T07:59:58Z</time>
      </trkpt>
      <trkpt lat="47.30716" lon="3.98893">
        <ele>475</ele>
        <time>2024-09-06T08:00:02.499Z</time>
      </trkpt>
      <trkpt lat="47.30714" lon="3.98885">
        <ele>474.4</ele>
        <time>2024-09-06T08:00:07Z</time>
      </trkpt>
      <trkpt lat="47.30711" lon="3.98878">
        <ele>473.8</ele>
        <time>2024-09-06T08:00:11.499Z</time>
      </trkpt>
      <trkpt lat="47.30707" lon="3.9887">
        <ele>473.1</ele>
        <time>2024-09-06T08:00:16Z</time>
      </trkpt>
      <trkpt lat="47.30707" lon="3.98857">
        <ele>472.2</ele>
        <time>2024-09-06T08:00:25Z</time>
      </trkpt>
      <trkpt lat="47.30705" lon="3.9885">
        <ele>471.7</ele>
        <time>2024-09-06T08:00:29.999Z</time>
      </trkpt>
      <trkpt lat="47.30703" lon="3.98842">
        <ele>471.1</ele>
        <time>2024-09-06T08:00:35Z</time>
      </trkpt>
      <trkpt lat="47.307" lon="3.98834">
        <ele>470.4</ele>
        <time>2024-09-06T08:00:39.999Z</time>
      </trkpt>
      <trkpt lat="47.30697" lon="3.98826">
        <ele>469.7</ele>
        <time>2024-09-06T08:00:45Z</time>
      </trkpt>
      <trkpt lat="47.30695" lon="3.98819">
        <ele>469</ele>
        <time>2024-09-06T08:00:50.999Z</time>
      </trkpt>
      <trkpt lat="47.30693" lon="3.98812">
        <ele>468.3</ele>
        <time>2024-09-06T08:00:57Z</time>
      </trkpt>
      <trkpt lat="47.3069" lon="3.98806">
        <ele>467.6</ele>
        <time>2024-09-06T08:01:03.999Z</time>
      </trkpt>
      <trkpt lat="47.30687" lon="3.988">
        <ele>466.7</ele>
        <time>2024-09-06T08:01:11Z</time>
      </trkpt>
      <trkpt lat="47.30685" lon="3.98794">
        <ele>465.9</ele>
        <time>2024-09-06T08:01:17.499Z</time>
      </trkpt>
      <trkpt lat="47.30682" lon="3.98788">
        <ele>465.1</ele>
        <time>2024-09-06T08:01:24Z</time>
      </trkpt>
      <trkpt lat="47.30678" lon="3.98781">
        <ele>463.9</ele>
        <time>2024-09-06T08:01:30.499Z</time>
      </trkpt>
      <trkpt lat="47.30673" lon="3.98774">
        <ele>462.7</ele>
        <time>2024-09-06T08:01:37Z</time>
      </trkpt>
      <trkpt lat="47.30668" lon="3.98769">
        <ele>461.6</ele>
        <time>2024-09-06T08:01:45.499Z</time>
      </trkpt>
      <trkpt lat="47.30663" lon="3.98764">
        <ele>460.5</ele>
        <time>2024-09-06T08:01:54Z</time>
      </trkpt>
      <trkpt lat="47.3066" lon="3.98758">
        <ele>459.5</ele>
        <time>2024-09-06T08:02:00.999Z</time>
      </trkpt>
      <trkpt lat="47.30657" lon="3.98751">
        <ele>458.4</ele>
        <time>2024-09-06T08:02:08Z</time>
      </trkpt>
      <trkpt lat="47.30655" lon="3.98745">
        <ele>457.7</ele>
        <time>2024-09-06T08:02:13.499Z</time>
      </trkpt>
      <trkpt lat="47.30653" lon="3.98739">
        <ele>457.2</ele>
        <time>2024-09-06T08:02:19Z</time>
      </trkpt>
      <trkpt lat="47.3065" lon="3.98731">
        <ele>456.2</ele>
        <time>2024-09-06T08:02:24.499Z</time>
      </trkpt>
      <trkpt lat="47.30647" lon="3.98723">
        <ele>455.1</ele>
        <time>2024-09-06T08:02:30Z</time>
      </trkpt>
      <trkpt lat="47.30643" lon="3.98717">
        <ele>454.3</ele>
        <time>2024-09-06T08:02:36.499Z</time>
      </trkpt>
      <trkpt lat="47.30639" lon="3.98711">
        <ele>453.4</ele>
        <time>2024-09-06T08:02:43Z</time>
      </trkpt>
      <trkpt lat="47.30634" lon="3.98702">
        <ele>452.4</ele>
        <time>2024-09-06T08:02:49.499Z</time>
      </trkpt>
      <trkpt lat="47.30629" lon="3.98693">
        <ele>451.2</ele>
        <time>2024-09-06T08:02:56Z</time>
      </trkpt>
      <trkpt lat="47.30625" lon="3.98686">
        <ele>450.5</ele>
        <time>2024-09-06T08:03:01.499Z</time>
      </trkpt>
      <trkpt lat="47.30621" lon="3.98678">
        <ele>449.7</ele>
        <time>2024-09-06T08:03:07Z</time>
      </trkpt>
      <trkpt lat="47.30618" lon="3.98672">
        <ele>449</ele>
        <time>2024-09-06T08:03:12.499Z</time>
      </trkpt>
      <trkpt lat="47.30615" lon="3.98666">
        <ele>448.3</ele>
        <time>2024-09-06T08:03:18Z</time>
      </trkpt>
      <trkpt lat="47.30613" lon="3.98657">
        <ele>448</ele>
        <time>2024-09-06T08:03:23.999Z</time>
      </trkpt>
      <trkpt lat="47.30611" lon="3.98648">
        <ele>447.6</ele>
        <time>2024-09-06T08:03:30Z</time>
      </trkpt>
      <trkpt lat="47.30608" lon="3.98642">
        <ele>446.8</ele>
        <time>2024-09-06T08:03:36.499Z</time>
      </trkpt>
      <trkpt lat="47.30605" lon="3.98636">
        <ele>445.8</ele>
        <time>2024-09-06T08:03:43Z</time>
      </trkpt>
      <trkpt lat="47.30602" lon="3.98629">
        <ele>444.7</ele>
        <time>2024-09-06T08:03:50.499Z</time>
      </trkpt>
      <trkpt lat="47.30599" lon="3.98621">
        <ele>443.4</ele>
        <time>2024-09-06T08:03:58Z</time>
      </trkpt>
      <trkpt lat="47.30597" lon="3.98611">
        <ele>442.2</ele>
        <time>2024-09-06T08:04:04.499Z</time>
      </trkpt>
      <trkpt lat="47.30594" lon="3.98601">
        <ele>440</ele>
        <time>2024-09-06T08:04:11Z</time>
      </trkpt>
      <trkpt lat="47.30592" lon="3.98592">
        <ele>437.9</ele>
        <time>2024-09-06T08:04:16.499Z</time>
      </trkpt>
      <trkpt lat="47.30589" lon="3.98582">
        <ele>435.7</ele>
        <time>2024-09-06T08:04:22Z</time>
      </trkpt>
      <trkpt lat="47.3059" lon="3.98573">
        <ele>434.9</ele>
        <time>2024-09-06T08:04:27.000Z</time>
      </trkpt>
      <trkpt lat="47.3059" lon="3.98563">
        <ele>434</ele>
        <time>2024-09-06T08:04:32Z</time>
      </trkpt>
      <trkpt lat="47.30592" lon="3.98556">
        <ele>433.8</ele>
        <time>2024-09-06T08:04:38.000Z</time>
      </trkpt>
      <trkpt lat="47.30593" lon="3.98548">
        <ele>433.6</ele>
        <time>2024-09-06T08:04:44Z</time>
      </trkpt>
      <trkpt lat="47.30595" lon="3.9854">
        <ele>433.3</ele>
        <time>2024-09-06T08:04:50.000Z</time>
      </trkpt>
      <trkpt lat="47.30596" lon="3.98531">
        <ele>432.9</ele>
        <time>2024-09-06T08:04:56Z</time>
      </trkpt>
      <trkpt lat="47.30598" lon="3.98522">
        <ele>432.7</ele>
        <time>2024-09-06T08:05:02.000Z</time>
      </trkpt>
      <trkpt lat="47.306" lon="3.98513">
        <ele>432.5</ele>
        <time>2024-09-06T08:05:08Z</time>
      </trkpt>
      <trkpt lat="47.30602" lon="3.98505">
        <ele>432.1</ele>
        <time>2024-09-06T08:05:12.500Z</time>
      </trkpt>
      <trkpt lat="47.30603" lon="3.98496">
        <ele>431.7</ele>
        <time>2024-09-06T08:05:17Z</time>
      </trkpt>
      <trkpt lat="47.30608" lon="3.98486">
        <ele>432.4</ele>
        <time>2024-09-06T08:05:26Z</time>
      </trkpt>
      <trkpt lat="47.30612" lon="3.98481">
        <ele>433.1</ele>
        <time>2024-09-06T08:05:30.500Z</time>
      </trkpt>
      <trkpt lat="47.30615" lon="3.98476">
        <ele>433.7</ele>
        <time>2024-09-06T08:05:35Z</time>
      </trkpt>
      <trkpt lat="47.3062" lon="3.98473">
        <ele>434.8</ele>
        <time>2024-09-06T08:05:39.500Z</time>
      </trkpt>
      <trkpt lat="47.30624" lon="3.98469">
        <ele>435.7</ele>
        <time>2024-09-06T08:05:44Z</time>
      </trkpt>
      <trkpt lat="47.30628" lon="3.98464">
        <ele>436.1</ele>
        <time>2024-09-06T08:05:48.500Z</time>
      </trkpt>
      <trkpt lat="47.30631" lon="3.98459">
        <ele>436.5</ele>
        <time>2024-09-06T08:05:53Z</time>
      </trkpt>
      <trkpt lat="47.30635" lon="3.98455">
        <ele>437.2</ele>
        <time>2024-09-06T08:05:58.000Z</time>
      </trkpt>
      <trkpt lat="47.30639" lon="3.9845">
        <ele>437.8</ele>
        <time>2024-09-06T08:06:03Z</time>
      </trkpt>
      <trkpt lat="47.30644" lon="3.98447">
        <ele>438.5</ele>
        <time>2024-09-06T08:06:08.500Z</time>
      </trkpt>
      <trkpt lat="47.30648" lon="3.98443">
        <ele>439.1</ele>
        <time>2024-09-06T08:06:14Z</time>
      </trkpt>
      <trkpt lat="47.30651" lon="3.98436">
        <ele>438.8</ele>
        <time>2024-09-06T08:06:19.500Z</time>
      </trkpt>
      <trkpt lat="47.30654" lon="3.98429">
        <ele>438.6</ele>
        <time>2024-09-06T08:06:25Z</time>
      </trkpt>
      <trkpt lat="47.30659" lon="3.98424">
        <ele>439</ele>
        <time>2024-09-06T08:06:30.500Z</time>
      </trkpt>
      <trkpt lat="47.30663" lon="3.98419">
        <ele>439.4</ele>
        <time>2024-09-06T08:06:36Z</time>
      </trkpt>
      <trkpt lat="47.30668" lon="3.98414">
        <ele>439.5</ele>
        <time>2024-09-06T08:06:40.500Z</time>
      </trkpt>
      <trkpt lat="47.30672" lon="3.98408">
        <ele>439.1</ele>
        <time>2024-09-06T08:06:45Z</time>
      </trkpt>
      <trkpt lat="47.30676" lon="3.98403">
        <ele>438.8</ele>
        <time>2024-09-06T08:06:49.500Z</time>
      </trkpt>
      <trkpt lat="47.30679" lon="3.98398">
        <ele>438.5</ele>
        <time>2024-09-06T08:06:54Z</time>
      </trkpt>
      <trkpt lat="47.30683" lon="3.98393">
        <ele>438.2</ele>
        <time>2024-09-06T08:06:59.000Z</time>
      </trkpt>
      <trkpt lat="47.30686" lon="3.98388">
        <ele>438</ele>
        <time>2024-09-06T08:07:04Z</time>
      </trkpt>
      <trkpt lat="47.3069" lon="3.98384">
        <ele>437.9</ele>
        <time>2024-09-06T08:07:09.000Z</time>
      </trkpt>
      <trkpt lat="47.30694" lon="3.98379">
        <ele>437.8</ele>
        <time>2024-09-06T08:07:14Z</time>
      </trkpt>
      <trkpt lat="47.30698" lon="3.98372">
        <ele>436.9</ele>
        <time>2024-09-06T08:07:20.500Z</time>
      </trkpt>
      <trkpt lat="47.30701" lon="3.98365">
        <ele>436</ele>
        <time>2024-09-06T08:07:27Z</time>
      </trkpt>
      <trkpt lat="47.30704" lon="3.98358">
        <ele>435</ele>
        <time>2024-09-06T08:07:33.000Z</time>
      </trkpt>
      <trkpt lat="47.30707" lon="3.98351">
        <ele>434</ele>
        <time>2024-09-06T08:07:39Z</time>
      </trkpt>
      <trkpt lat="47.3071" lon="3.98345">
        <ele>433.3</ele>
        <time>2024-09-06T08:07:45.500Z</time>
      </trkpt>
      <trkpt lat="47.30713" lon="3.98338">
        <ele>432.6</ele>
        <time>2024-09-06T08:07:52Z</time>
      </trkpt>
      <trkpt lat="47.30715" lon="3.98332">
        <ele>431.8</ele>
        <time>2024-09-06T08:07:58.000Z</time>
      </trkpt>
      <trkpt lat="47.30717" lon="3.98325">
        <ele>430.9</ele>
        <time>2024-09-06T08:08:04Z</time>
      </trkpt>
      <trkpt lat="47.30719" lon="3.98317">
        <ele>429.6</ele>
        <time>2024-09-06T08:08:09.500Z</time>
      </trkpt>
      <trkpt lat="47.3072" lon="3.98309">
        <ele>428.3</ele>
        <time>2024-09-06T08:08:15Z</time>
      </trkpt>
      <trkpt lat="47.30721" lon="3.98301">
        <ele>426.9</ele>
        <time>2024-09-06T08:08:21.500Z</time>
      </trkpt>
      <trkpt lat="47.30722" lon="3.98293">
        <ele>425.7</ele>
        <time>2024-09-06T08:08:28Z</time>
      </trkpt>
      <trkpt lat="47.30722" lon="3.98286">
        <ele>424.4</ele>
        <time>2024-09-06T08:08:33.500Z</time>
      </trkpt>
      <trkpt lat="47.30722" lon="3.98279">
        <ele>423.2</ele>
        <time>2024-09-06T08:08:39Z</time>
      </trkpt>
      <trkpt lat="47.30723" lon="3.98271">
        <ele>422.3</ele>
        <time>2024-09-06T08:08:44.500Z</time>
      </trkpt>
      <trkpt lat="47.30724" lon="3.98263">
        <ele>421.5</ele>
        <time>2024-09-06T08:08:50Z</time>
      </trkpt>
      <trkpt lat="47.30723" lon="3.98257">
        <ele>420.2</ele>
        <time>2024-09-06T08:08:54.999Z</time>
      </trkpt>
      <trkpt lat="47.30722" lon="3.9825">
        <ele>419</ele>
        <time>2024-09-06T08:09:00Z</time>
      </trkpt>
      <trkpt lat="47.30721" lon="3.9824">
        <ele>417.8</ele>
        <time>2024-09-06T08:09:05.999Z</time>
      </trkpt>
      <trkpt lat="47.3072" lon="3.9823">
        <ele>416.6</ele>
        <time>2024-09-06T08:09:12Z</time>
      </trkpt>
      <trkpt lat="47.30723" lon="3.98222">
        <ele>416.2</ele>
        <time>2024-09-06T08:09:16.500Z</time>
      </trkpt>
      <trkpt lat="47.30726" lon="3.98213">
        <ele>416.2</ele>
        <time>2024-09-06T08:09:21Z</time>
      </trkpt>
      <trkpt lat="47.30726" lon="3.98201">
        <ele>414.9</ele>
        <time>2024-09-06T08:09:30Z</time>
      </trkpt>
      <trkpt lat="47.30725" lon="3.98194">
        <ele>413.7</ele>
        <time>2024-09-06T08:09:35.999Z</time>
      </trkpt>
      <trkpt lat="47.30723" lon="3.98187">
        <ele>412.7</ele>
        <time>2024-09-06T08:09:42Z</time>
      </trkpt>
      <trkpt lat="47.30721" lon="3.9818">
        <ele>411.9</ele>
        <time>2024-09-06T08:10:09Z</time>
      </trkpt>
      <trkpt lat="47.30727" lon="3.98182">
        <ele>413.6</ele>
        <time>2024-09-06T08:10:30Z</time>
      </trkpt>
      <trkpt lat="47.30732" lon="3.9818">
        <ele>414.8</ele>
        <time>2024-09-06T08:10:36.500Z</time>
      </trkpt>
      <trkpt lat="47.30736" lon="3.98178">
        <ele>416</ele>
        <time>2024-09-06T08:10:43Z</time>
      </trkpt>
      <trkpt lat="47.30741" lon="3.98172">
        <ele>416.9</ele>
        <time>2024-09-06T08:10:49.500Z</time>
      </trkpt>
      <trkpt lat="47.30746" lon="3.98166">
        <ele>417.8</ele>
        <time>2024-09-06T08:10:56Z</time>
      </trkpt>
      <trkpt lat="47.30749" lon="3.98159">
        <ele>418.1</ele>
        <time>2024-09-06T08:11:01.000Z</time>
      </trkpt>
      <trkpt lat="47.30752" lon="3.98151">
        <ele>418.8</ele>
        <time>2024-09-06T08:11:06Z</time>
      </trkpt>
      <trkpt lat="47.30753" lon="3.98142">
        <ele>418.5</ele>
        <time>2024-09-06T08:11:11.500Z</time>
      </trkpt>
      <trkpt lat="47.30754" lon="3.98133">
        <ele>418.1</ele>
        <time>2024-09-06T08:11:17Z</time>
      </trkpt>
      <trkpt lat="47.30755" lon="3.98125">
        <ele>417.7</ele>
        <time>2024-09-06T08:11:23.000Z</time>
      </trkpt>
      <trkpt lat="47.30756" lon="3.98117">
        <ele>417.4</ele>
        <time>2024-09-06T08:11:29Z</time>
      </trkpt>
      <trkpt lat="47.30758" lon="3.98109">
        <ele>417.4</ele>
        <time>2024-09-06T08:11:34.500Z</time>
      </trkpt>
      <trkpt lat="47.30759" lon="3.98101">
        <ele>417.5</ele>
        <time>2024-09-06T08:11:40Z</time>
      </trkpt>
      <trkpt lat="47.30761" lon="3.98089">
        <ele>417.2</ele>
        <time>2024-09-06T08:11:45.500Z</time>
      </trkpt>
      <trkpt lat="47.30762" lon="3.98076">
        <ele>416.8</ele>
        <time>2024-09-06T08:11:51Z</time>
      </trkpt>
      <trkpt lat="47.30763" lon="3.98069">
        <ele>416.6</ele>
        <time>2024-09-06T08:11:55.500Z</time>
      </trkpt>
      <trkpt lat="47.30764" lon="3.98061">
        <ele>416.4</ele>
        <time>2024-09-06T08:12:00Z</time>
      </trkpt>
      <trkpt lat="47.30766" lon="3.98055">
        <ele>416.5</ele>
        <time>2024-09-06T08:12:05.000Z</time>
      </trkpt>
      <trkpt lat="47.30768" lon="3.98048">
        <ele>416.1</ele>
        <time>2024-09-06T08:12:10Z</time>
      </trkpt>
      <trkpt lat="47.30771" lon="3.98042">
        <ele>415.8</ele>
        <time>2024-09-06T08:12:16.000Z</time>
      </trkpt>
      <trkpt lat="47.30773" lon="3.98036">
        <ele>415.5</ele>
        <time>2024-09-06T08:12:22Z</time>
      </trkpt>
      <trkpt lat="47.30778" lon="3.98033">
        <ele>415.9</ele>
        <time>2024-09-06T08:12:26.000Z</time>
      </trkpt>
      <trkpt lat="47.30782" lon="3.9803">
        <ele>416.2</ele>
        <time>2024-09-06T08:12:30.000Z</time>
      </trkpt>
      <trkpt lat="47.30787" lon="3.98027">
        <ele>416.5</ele>
        <time>2024-09-06T08:12:34.000Z</time>
      </trkpt>
      <trkpt lat="47.30791" lon="3.98024">
        <ele>416.8</ele>
        <time>2024-09-06T08:12:38Z</time>
      </trkpt>
      <trkpt lat="47.30796" lon="3.98023">
        <ele>417.3</ele>
        <time>2024-09-06T08:12:43.000Z</time>
      </trkpt>
      <trkpt lat="47.30801" lon="3.98021">
        <ele>417.8</ele>
        <time>2024-09-06T08:12:48Z</time>
      </trkpt>
      <trkpt lat="47.30807" lon="3.98019">
        <ele>418.1</ele>
        <time>2024-09-06T08:12:53.000Z</time>
      </trkpt>
      <trkpt lat="47.30812" lon="3.98016">
        <ele>417.9</ele>
        <time>2024-09-06T08:12:58Z</time>
      </trkpt>
      <trkpt lat="47.30817" lon="3.98015">
        <ele>418.1</ele>
        <time>2024-09-06T08:13:04.000Z</time>
      </trkpt>
      <trkpt lat="47.30822" lon="3.98014">
        <ele>418.2</ele>
        <time>2024-09-06T08:13:10Z</time>
      </trkpt>
      <trkpt lat="47.30828" lon="3.98012">
        <ele>418.3</ele>
        <time>2024-09-06T08:13:15.000Z</time>
      </trkpt>
      <trkpt lat="47.30834" lon="3.98011">
        <ele>418.3</ele>
        <time>2024-09-06T08:13:20.000Z</time>
      </trkpt>
      <trkpt lat="47.30839" lon="3.98009">
        <ele>418.5</ele>
        <time>2024-09-06T08:13:25.000Z</time>
      </trkpt>
      <trkpt lat="47.30845" lon="3.98007">
        <ele>418.8</ele>
        <time>2024-09-06T08:13:30Z</time>
      </trkpt>
      <trkpt lat="47.30852" lon="3.98002">
        <ele>418.4</ele>
        <time>2024-09-06T08:13:36.500Z</time>
      </trkpt>
      <trkpt lat="47.30858" lon="3.97997">
        <ele>418</ele>
        <time>2024-09-06T08:13:43Z</time>
      </trkpt>
      <trkpt lat="47.3086" lon="3.97991">
        <ele>416.8</ele>
        <time>2024-09-06T08:13:46.500Z</time>
      </trkpt>
      <trkpt lat="47.30862" lon="3.97984">
        <ele>415.6</ele>
        <time>2024-09-06T08:13:50.000Z</time>
      </trkpt>
      <trkpt lat="47.30863" lon="3.97978">
        <ele>414.5</ele>
        <time>2024-09-06T08:13:53.500Z</time>
      </trkpt>
      <trkpt lat="47.30865" lon="3.97971">
        <ele>413.4</ele>
        <time>2024-09-06T08:13:57Z</time>
      </trkpt>
      <trkpt lat="47.30865" lon="3.97964">
        <ele>412.5</ele>
        <time>2024-09-06T08:14:07.500Z</time>
      </trkpt>
      <trkpt lat="47.30865" lon="3.97956">
        <ele>411.6</ele>
        <time>2024-09-06T08:14:18Z</time>
      </trkpt>
      <trkpt lat="47.30863" lon="3.97945">
        <ele>410.1</ele>
        <time>2024-09-06T08:14:31Z</time>
      </trkpt>
      <trkpt lat="47.30863" lon="3.97936">
        <ele>410.3</ele>
        <time>2024-09-06T08:14:36.999Z</time>
      </trkpt>
      <trkpt lat="47.30862" lon="3.97927">
        <ele>410.6</ele>
        <time>2024-09-06T08:14:43Z</time>
      </trkpt>
      <trkpt lat="47.30865" lon="3.9792">
        <ele>410.8</ele>
        <time>2024-09-06T08:14:48.500Z</time>
      </trkpt>
      <trkpt lat="47.30867" lon="3.97913">
        <ele>411.3</ele>
        <time>2024-09-06T08:14:54Z</time>
      </trkpt>
      <trkpt lat="47.3087" lon="3.97908">
        <ele>411.9</ele>
        <time>2024-09-06T08:14:57.750Z</time>
      </trkpt>
      <trkpt lat="47.30873" lon="3.97903">
        <ele>412.4</ele>
        <time>2024-09-06T08:15:01.500Z</time>
      </trkpt>
      <trkpt lat="47.30875" lon="3.97897">
        <ele>412.9</ele>
        <time>2024-09-06T08:15:05.250Z</time>
      </trkpt>
      <trkpt lat="47.30878" lon="3.97892">
        <ele>413.4</ele>
        <time>2024-09-06T08:15:09Z</time>
      </trkpt>
      <trkpt lat="47.30882" lon="3.97883">
        <ele>415</ele>
        <time>2024-09-06T08:15:22Z</time>
      </trkpt>
      <trkpt lat="47.30885" lon="3.97878">
        <ele>416.2</ele>
        <time>2024-09-06T08:15:30.000Z</time>
      </trkpt>
      <trkpt lat="47.30888" lon="3.97872">
        <ele>417.3</ele>
        <time>2024-09-06T08:15:38Z</time>
      </trkpt>
      <trkpt lat="47.30893" lon="3.9787">
        <ele>417.2</ele>
        <time>2024-09-06T08:15:46.500Z</time>
      </trkpt>
      <trkpt lat="47.30897" lon="3.97868">
        <ele>416.9</ele>
        <time>2024-09-06T08:15:55Z</time>
      </trkpt>
      <trkpt lat="47.30903" lon="3.97863">
        <ele>417.1</ele>
        <time>2024-09-06T08:16:11Z</time>
      </trkpt>
      <trkpt lat="47.30907" lon="3.97858">
        <ele>417.8</ele>
        <time>2024-09-06T08:16:18.500Z</time>
      </trkpt>
      <trkpt lat="47.30911" lon="3.97853">
        <ele>418.7</ele>
        <time>2024-09-06T08:16:26Z</time>
      </trkpt>
      <trkpt lat="47.30916" lon="3.9785">
        <ele>419</ele>
        <time>2024-09-06T08:25:21.000Z</time>
      </trkpt>
      <trkpt lat="47.3092" lon="3.97846">
        <ele>419.4</ele>
        <time>2024-09-06T08:34:16Z</time>
      </trkpt>
      <trkpt lat="47.30927" lon="3.97845">
        <ele>418.9</ele>
        <time>2024-09-06T08:34:51.375Z</time>
      </trkpt>
      <trkpt lat="47.30933" lon="3.97843">
        <ele>418.2</ele>
        <time>2024-09-06T08:35:26.750Z</time>
      </trkpt>
      <trkpt lat="47.3094" lon="3.97842">
        <ele>417.6</ele>
        <time>2024-09-06T08:36:02.125Z</time>
      </trkpt>
      <trkpt lat="47.30947" lon="3.97841">
        <ele>417</ele>
        <time>2024-09-06T08:36:37.500Z</time>
      </trkpt>
      <trkpt lat="47.30953" lon="3.97839">
        <ele>416.9</ele>
        <time>2024-09-06T08:37:12.875Z</time>
      </trkpt>
      <trkpt lat="47.3096" lon="3.97838">
        <ele>416.8</ele>
        <time>2024-09-06T08:37:48.250Z</time>
      </trkpt>
      <trkpt lat="47.30966" lon="3.97836">
        <ele>416.6</ele>
        <time>2024-09-06T08:38:23.625Z</time>
      </trkpt>
      <trkpt lat="47.30973" lon="3.97835">
        <ele>416.6</ele>
        <time>2024-09-06T08:38:59Z</time>
      </trkpt>
      <trkpt lat="47.30981" lon="3.9783">
        <ele>418.5</ele>
        <time>2024-09-06T08:39:11Z</time>
      </trkpt>
      <trkpt lat="47.30986" lon="3.97828">
        <ele>419.4</ele>
        <time>2024-09-06T08:39:17.500Z</time>
      </trkpt>
      <trkpt lat="47.3099" lon="3.97826">
        <ele>420.3</ele>
        <time>2024-09-06T08:39:24Z</time>
      </trkpt>
      <trkpt lat="47.30997" lon="3.97823">
        <ele>421.6</ele>
        <time>2024-09-06T08:39:31.000Z</time>
      </trkpt>
      <trkpt lat="47.31004" lon="3.9782">
        <ele>423.5</ele>
        <time>2024-09-06T08:39:38Z</time>
      </trkpt>
      <trkpt lat="47.31011" lon="3.97812">
        <ele>427.4</ele>
        <time>2024-09-06T08:39:56Z</time>
      </trkpt>
      <trkpt lat="47.31017" lon="3.97805">
        <ele>430.6</ele>
        <time>2024-09-06T08:40:09Z</time>
      </trkpt>
      <trkpt lat="47.31022" lon="3.97807">
        <ele>430.8</ele>
        <time>2024-09-06T08:40:15.000Z</time>
      </trkpt>
      <trkpt lat="47.31026" lon="3.97808">
        <ele>431</ele>
        <time>2024-09-06T08:40:21Z</time>
      </trkpt>
      <trkpt lat="47.31031" lon="3.9781">
        <ele>431.4</ele>
        <time>2024-09-06T08:40:27.500Z</time>
      </trkpt>
      <trkpt lat="47.31035" lon="3.97812">
        <ele>431.9</ele>
        <time>2024-09-06T08:40:34Z</time>
      </trkpt>
      <trkpt lat="47.3104" lon="3.97812">
        <ele>433.1</ele>
        <time>2024-09-06T08:40:42.000Z</time>
      </trkpt>
      <trkpt lat="47.31044" lon="3.97811">
        <ele>434.3</ele>
        <time>2024-09-06T08:40:50Z</time>
      </trkpt>
      <trkpt lat="47.3105" lon="3.97814">
        <ele>435.2</ele>
        <time>2024-09-06T08:40:56.500Z</time>
      </trkpt>
      <trkpt lat="47.31056" lon="3.97816">
        <ele>436.2</ele>
        <time>2024-09-06T08:41:03Z</time>
      </trkpt>
      <trkpt lat="47.31061" lon="3.97818">
        <ele>437.1</ele>
        <time>2024-09-06T08:41:12.000Z</time>
      </trkpt>
      <trkpt lat="47.31066" lon="3.97819">
        <ele>438</ele>
        <time>2024-09-06T08:41:21Z</time>
      </trkpt>
      <trkpt lat="47.31072" lon="3.97816">
        <ele>439.6</ele>
        <time>2024-09-06T08:41:38Z</time>
      </trkpt>
      <trkpt lat="47.31078" lon="3.97817">
        <ele>440.8</ele>
        <time>2024-09-06T08:41:45.500Z</time>
      </trkpt>
      <trkpt lat="47.31084" lon="3.97818">
        <ele>442</ele>
        <time>2024-09-06T08:41:53Z</time>
      </trkpt>
      <trkpt lat="47.3109" lon="3.97817">
        <ele>442.3</ele>
        <time>2024-09-06T08:42:01.000Z</time>
      </trkpt>
      <trkpt lat="47.31096" lon="3.97816">
        <ele>442.5</ele>
        <time>2024-09-06T08:42:09Z</time>
      </trkpt>
      <trkpt lat="47.31098" lon="3.97815">
        <ele>442.5</ele>
        <time>2024-09-06T08:42:30Z</time>
      </trkpt>
      <trkpt lat="47.311" lon="3.97812">
        <ele>442.4</ele>
        <time>2024-09-06T08:42:52Z</time>
      </trkpt>
      <trkpt lat="47.311" lon="3.978">
        <ele>441.2</ele>
        <time>2024-09-06T08:43:05Z</time>
      </trkpt>
      <trkpt lat="47.31097" lon="3.97794">
        <ele>440.5</ele>
        <time>2024-09-06T08:43:12.999Z</time>
      </trkpt>
      <trkpt lat="47.31093" lon="3.97787">
        <ele>440</ele>
        <time>2024-09-06T08:43:21Z</time>
      </trkpt>
      <trkpt lat="47.31092" lon="3.97779">
        <ele>439.1</ele>
        <time>2024-09-06T08:43:27.999Z</time>
      </trkpt>
      <trkpt lat="47.31091" lon="3.9777">
        <ele>438.5</ele>
        <time>2024-09-06T08:43:35Z</time>
      </trkpt>
      <trkpt lat="47.3109" lon="3.97761">
        <ele>437.9</ele>
        <time>2024-09-06T08:43:41.499Z</time>
      </trkpt>
      <trkpt lat="47.31088" lon="3.97752">
        <ele>437.3</ele>
        <time>2024-09-06T08:43:48Z</time>
      </trkpt>
      <trkpt lat="47.31088" lon="3.97745">
        <ele>437</ele>
        <time>2024-09-06T08:43:53.999Z</time>
      </trkpt>
      <trkpt lat="47.31087" lon="3.97737">
        <ele>436.8</ele>
        <time>2024-09-06T08:44:00Z</time>
      </trkpt>
      <trkpt lat="47.31084" lon="3.97727">
        <ele>437.1</ele>
        <time>2024-09-06T08:44:06.499Z</time>
      </trkpt>
      <trkpt lat="47.3108" lon="3.97716">
        <ele>437.5</ele>
        <time>2024-09-06T08:44:13Z</time>
      </trkpt>
      <trkpt lat="47.31079" lon="3.97709">
        <ele>437.5</ele>
        <time>2024-09-06T08:44:18.499Z</time>
      </trkpt>
      <trkpt lat="47.31078" lon="3.97701">
        <ele>437.5</ele>
        <time>2024-09-06T08:44:24Z</time>
      </trkpt>
      <trkpt lat="47.31078" lon="3.97695">
        <ele>437.4</ele>
        <time>2024-09-06T08:44:43Z</time>
      </trkpt>
      <trkpt lat="47.31083" lon="3.97693">
        <ele>436.2</ele>
        <time>2024-09-06T08:44:55.500Z</time>
      </trkpt>
      <trkpt lat="47.31087" lon="3.97691">
        <ele>435.5</ele>
        <time>2024-09-06T08:45:08Z</time>
      </trkpt>
      <trkpt lat="47.31086" lon="3.97689">
        <ele>435.7</ele>
        <time>2024-09-06T08:45:29Z</time>
      </trkpt>
      <trkpt lat="47.31093" lon="3.97689">
        <ele>434.7</ele>
        <time>2024-09-06T08:45:45Z</time>
      </trkpt>
      <trkpt lat="47.31089" lon="3.97682">
        <ele>435.4</ele>
        <time>2024-09-06T08:46:03Z</time>
      </trkpt>
      <trkpt lat="47.31089" lon="3.97687">
        <ele>435.3</ele>
        <time>2024-09-06T08:46:30Z</time>
      </trkpt>
      <trkpt lat="47.31085" lon="3.97681">
        <ele>435.9</ele>
        <time>2024-09-06T08:46:43.499Z</time>
      </trkpt>
      <trkpt lat="47.3108" lon="3.97675">
        <ele>436.8</ele>
        <time>2024-09-06T08:46:57Z</time>
      </trkpt>
      <trkpt lat="47.31085" lon="3.97673">
        <ele>435.9</ele>
        <time>2024-09-06T08:47:06.500Z</time>
      </trkpt>
      <trkpt lat="47.31089" lon="3.9767">
        <ele>435.5</ele>
        <time>2024-09-06T08:47:16Z</time>
      </trkpt>
      <trkpt lat="47.31095" lon="3.97666">
        <ele>435.2</ele>
        <time>2024-09-06T08:47:21.500Z</time>
      </trkpt>
      <trkpt lat="47.311" lon="3.97661">
        <ele>435</ele>
        <time>2024-09-06T08:47:27Z</time>
      </trkpt>
      <trkpt lat="47.31105" lon="3.97661">
        <ele>434.8</ele>
        <time>2024-09-06T08:47:29.250Z</time>
      </trkpt>
      <trkpt lat="47.3111" lon="3.97661">
        <ele>434.5</ele>
        <time>2024-09-06T08:47:31.500Z</time>
      </trkpt>
      <trkpt lat="47.31114" lon="3.97661">
        <ele>435</ele>
        <time>2024-09-06T08:47:33.750Z</time>
      </trkpt>
      <trkpt lat="47.31119" lon="3.97661">
        <ele>435.9</ele>
        <time>2024-09-06T08:47:36Z</time>
      </trkpt>
      <trkpt lat="47.31122" lon="3.97655">
        <ele>436.9</ele>
        <time>2024-09-06T08:47:41.000Z</time>
      </trkpt>
      <trkpt lat="47.31124" lon="3.97648">
        <ele>438</ele>
        <time>2024-09-06T08:47:46Z</time>
      </trkpt>
      <trkpt lat="47.31126" lon="3.97642">
        <ele>439</ele>
        <time>2024-09-06T08:47:50.500Z</time>
      </trkpt>
      <trkpt lat="47.31128" lon="3.97635">
        <ele>439.6</ele>
        <time>2024-09-06T08:47:55Z</time>
      </trkpt>
      <trkpt lat="47.31133" lon="3.97629">
        <ele>440.7</ele>
        <time>2024-09-06T08:48:00.500Z</time>
      </trkpt>
      <trkpt lat="47.31138" lon="3.97622">
        <ele>441.8</ele>
        <time>2024-09-06T08:48:06Z</time>
      </trkpt>
      <trkpt lat="47.31141" lon="3.97614">
        <ele>442.4</ele>
        <time>2024-09-06T08:48:12.000Z</time>
      </trkpt>
      <trkpt lat="47.31144" lon="3.97605">
        <ele>442.8</ele>
        <time>2024-09-06T08:48:18Z</time>
      </trkpt>
      <trkpt lat="47.31149" lon="3.97599">
        <ele>443.5</ele>
        <time>2024-09-06T08:48:24.000Z</time>
      </trkpt>
      <trkpt lat="47.31153" lon="3.97593">
        <ele>444.1</ele>
        <time>2024-09-06T08:48:30Z</time>
      </trkpt>
      <trkpt lat="47.31157" lon="3.97588">
        <ele>444.4</ele>
        <time>2024-09-06T08:48:34.000Z</time>
      </trkpt>
      <trkpt lat="47.3116" lon="3.97582">
        <ele>444.8</ele>
        <time>2024-09-06T08:48:38Z</time>
      </trkpt>
      <trkpt lat="47.31161" lon="3.97575">
        <ele>444.7</ele>
        <time>2024-09-06T08:48:43.500Z</time>
      </trkpt>
      <trkpt lat="47.31162" lon="3.97567">
        <ele>444.6</ele>
        <time>2024-09-06T08:48:49Z</time>
      </trkpt>
      <trkpt lat="47.31166" lon="3.97564">
        <ele>445.2</ele>
        <time>2024-09-06T08:48:54.500Z</time>
      </trkpt>
      <trkpt lat="47.3117" lon="3.9756">
        <ele>445.7</ele>
        <time>2024-09-06T08:49:00Z</time>
      </trkpt>
      <trkpt lat="47.31177" lon="3.97556">
        <ele>446.5</ele>
        <time>2024-09-06T08:49:07.500Z</time>
      </trkpt>
      <trkpt lat="47.31184" lon="3.97551">
        <ele>447.2</ele>
        <time>2024-09-06T08:49:15Z</time>
      </trkpt>
      <trkpt lat="47.31192" lon="3.97545">
        <ele>447.9</ele>
        <time>2024-09-06T08:49:26Z</time>
      </trkpt>
      <trkpt lat="47.31196" lon="3.97541">
        <ele>448</ele>
        <time>2024-09-06T08:49:30.500Z</time>
      </trkpt>
      <trkpt lat="47.31199" lon="3.97536">
        <ele>448</ele>
        <time>2024-09-06T08:49:35Z</time>
      </trkpt>
      <trkpt lat="47.31205" lon="3.97535">
        <ele>448.3</ele>
        <time>2024-09-06T08:49:42.000Z</time>
      </trkpt>
      <trkpt lat="47.3121" lon="3.97533">
        <ele>448.6</ele>
        <time>2024-09-06T08:49:49Z</time>
      </trkpt>
      <trkpt lat="47.31218" lon="3.97532">
        <ele>449.1</ele>
        <time>2024-09-06T08:49:57.500Z</time>
      </trkpt>
      <trkpt lat="47.31226" lon="3.97531">
        <ele>449.7</ele>
        <time>2024-09-06T08:50:06Z</time>
      </trkpt>
      <trkpt lat="47.31232" lon="3.97525">
        <ele>449.9</ele>
        <time>2024-09-06T08:50:20Z</time>
      </trkpt>
      <trkpt lat="47.31239" lon="3.97529">
        <ele>450.9</ele>
        <time>2024-09-06T08:50:26.500Z</time>
      </trkpt>
      <trkpt lat="47.31245" lon="3.97533">
        <ele>451.9</ele>
        <time>2024-09-06T08:50:33Z</time>
      </trkpt>
      <trkpt lat="47.31253" lon="3.97528">
        <ele>452.3</ele>
        <time>2024-09-06T08:50:47Z</time>
      </trkpt>
      <trkpt lat="47.31261" lon="3.97526">
        <ele>453.1</ele>
        <time>2024-09-06T08:51:01Z</time>
      </trkpt>
      <trkpt lat="47.31267" lon="3.9752">
        <ele>453.3</ele>
        <time>2024-09-06T08:51:12Z</time>
      </trkpt>
      <trkpt lat="47.31275" lon="3.97522">
        <ele>454.3</ele>
        <time>2024-09-06T08:51:18.000Z</time>
      </trkpt>
      <trkpt lat="47.31283" lon="3.97524">
        <ele>455.3</ele>
        <time>2024-09-06T08:51:24Z</time>
      </trkpt>
      <trkpt lat="47.31291" lon="3.97522">
        <ele>456</ele>
        <time>2024-09-06T08:51:31.500Z</time>
      </trkpt>
      <trkpt lat="47.31299" lon="3.97519">
        <ele>456.7</ele>
        <time>2024-09-06T08:51:39Z</time>
      </trkpt>
      <trkpt lat="47.31305" lon="3.97517">
        <ele>457.2</ele>
        <time>2024-09-06T08:51:44.500Z</time>
      </trkpt>
      <trkpt lat="47.31311" lon="3.97515">
        <ele>457.8</ele>
        <time>2024-09-06T08:51:50Z</time>
      </trkpt>
      <trkpt lat="47.31315" lon="3.97512">
        <ele>458</ele>
        <time>2024-09-06T08:51:56.000Z</time>
      </trkpt>
      <trkpt lat="47.31319" lon="3.97508">
        <ele>458.2</ele>
        <time>2024-09-06T08:52:02Z</time>
      </trkpt>
      <trkpt lat="47.31327" lon="3.97505">
        <ele>458.8</ele>
        <time>2024-09-06T08:52:13Z</time>
      </trkpt>
      <trkpt lat="47.31332" lon="3.97506">
        <ele>459.5</ele>
        <time>2024-09-06T08:52:19.000Z</time>
      </trkpt>
      <trkpt lat="47.31337" lon="3.97507">
        <ele>460.3</ele>
        <time>2024-09-06T08:52:25Z</time>
      </trkpt>
      <trkpt lat="47.31342" lon="3.9751">
        <ele>461.2</ele>
        <time>2024-09-06T08:52:30.500Z</time>
      </trkpt>
      <trkpt lat="47.31346" lon="3.97512">
        <ele>462.1</ele>
        <time>2024-09-06T08:52:36Z</time>
      </trkpt>
      <trkpt lat="47.31351" lon="3.97514">
        <ele>462.9</ele>
        <time>2024-09-06T08:52:42.500Z</time>
      </trkpt>
      <trkpt lat="47.31355" lon="3.97515">
        <ele>463.7</ele>
        <time>2024-09-06T08:52:49Z</time>
      </trkpt>
      <trkpt lat="47.3136" lon="3.97514">
        <ele>464.3</ele>
        <time>2024-09-06T08:52:56.000Z</time>
      </trkpt>
      <trkpt lat="47.31365" lon="3.97512">
        <ele>464.8</ele>
        <time>2024-09-06T08:53:03Z</time>
      </trkpt>
      <trkpt lat="47.3137" lon="3.97514">
        <ele>465.6</ele>
        <time>2024-09-06T08:53:08.000Z</time>
      </trkpt>
      <trkpt lat="47.31375" lon="3.97516">
        <ele>466.4</ele>
        <time>2024-09-06T08:53:13.000Z</time>
      </trkpt>
      <trkpt lat="47.3138" lon="3.97517">
        <ele>467.2</ele>
        <time>2024-09-06T08:53:18.000Z</time>
      </trkpt>
      <trkpt lat="47.31385" lon="3.97519">
        <ele>467.9</ele>
        <time>2024-09-06T08:53:23Z</time>
      </trkpt>
      <trkpt lat="47.3139" lon="3.97515">
        <ele>468.1</ele>
        <time>2024-09-06T08:53:29.500Z</time>
      </trkpt>
      <trkpt lat="47.31394" lon="3.97511">
        <ele>468.2</ele>
        <time>2024-09-06T08:53:36Z</time>
      </trkpt>
      <trkpt lat="47.31397" lon="3.97505">
        <ele>467.9</ele>
        <time>2024-09-06T08:53:41.500Z</time>
      </trkpt>
      <trkpt lat="47.31399" lon="3.97498">
        <ele>467.5</ele>
        <time>2024-09-06T08:53:47Z</time>
      </trkpt>
      <trkpt lat="47.31403" lon="3.97491">
        <ele>466.9</ele>
        <time>2024-09-06T08:53:52.000Z</time>
      </trkpt>
      <trkpt lat="47.31407" lon="3.97484">
        <ele>466.4</ele>
        <time>2024-09-06T08:53:57Z</time>
      </trkpt>
      <trkpt lat="47.31412" lon="3.97473">
        <ele>465.6</ele>
        <time>2024-09-06T08:54:06Z</time>
      </trkpt>
      <trkpt lat="47.31415" lon="3.97468">
        <ele>465.5</ele>
        <time>2024-09-06T08:54:11.000Z</time>
      </trkpt>
      <trkpt lat="47.31418" lon="3.97462">
        <ele>465.5</ele>
        <time>2024-09-06T08:54:16Z</time>
      </trkpt>
      <trkpt lat="47.3142" lon="3.97456">
        <ele>465.3</ele>
        <time>2024-09-06T08:54:20.500Z</time>
      </trkpt>
      <trkpt lat="47.31422" lon="3.97449">
        <ele>465.3</ele>
        <time>2024-09-06T08:54:25Z</time>
      </trkpt>
      <trkpt lat="47.31428" lon="3.97443">
        <ele>466</ele>
        <time>2024-09-06T08:54:32Z</time>
      </trkpt>
      <trkpt lat="47.31431" lon="3.97431">
        <ele>466.3</ele>
        <time>2024-09-06T08:54:42Z</time>
      </trkpt>
      <trkpt lat="47.31436" lon="3.97426">
        <ele>467</ele>
        <time>2024-09-06T08:54:48.500Z</time>
      </trkpt>
      <trkpt lat="47.31441" lon="3.9742">
        <ele>467.6</ele>
        <time>2024-09-06T08:54:55Z</time>
      </trkpt>
      <trkpt lat="47.31448" lon="3.97417">
        <ele>468.5</ele>
        <time>2024-09-06T08:55:02.000Z</time>
      </trkpt>
      <trkpt lat="47.31454" lon="3.97414">
        <ele>469.4</ele>
        <time>2024-09-06T08:55:09Z</time>
      </trkpt>
      <trkpt lat="47.31458" lon="3.97409">
        <ele>470</ele>
        <time>2024-09-06T08:55:15.000Z</time>
      </trkpt>
      <trkpt lat="47.31462" lon="3.97404">
        <ele>470.5</ele>
        <time>2024-09-06T08:55:21Z</time>
      </trkpt>
      <trkpt lat="47.31465" lon="3.97393">
        <ele>470.9</ele>
        <time>2024-09-06T08:55:27.500Z</time>
      </trkpt>
      <trkpt lat="47.31467" lon="3.97381">
        <ele>471.6</ele>
        <time>2024-09-06T08:55:34Z</time>
      </trkpt>
      <trkpt lat="47.31469" lon="3.97375">
        <ele>472.1</ele>
        <time>2024-09-06T08:55:39.500Z</time>
      </trkpt>
      <trkpt lat="47.31471" lon="3.97368">
        <ele>472.6</ele>
        <time>2024-09-06T08:55:45Z</time>
      </trkpt>
      <trkpt lat="47.31473" lon="3.97362">
        <ele>473</ele>
        <time>2024-09-06T08:55:51.000Z</time>
      </trkpt>
      <trkpt lat="47.31474" lon="3.97355">
        <ele>473.5</ele>
        <time>2024-09-06T08:55:57Z</time>
      </trkpt>
      <trkpt lat="47.31478" lon="3.97349">
        <ele>474.1</ele>
        <time>2024-09-06T08:56:01.500Z</time>
      </trkpt>
      <trkpt lat="47.31481" lon="3.97343">
        <ele>474.7</ele>
        <time>2024-09-06T08:56:06Z</time>
      </trkpt>
      <trkpt lat="47.31485" lon="3.97339">
        <ele>475.2</ele>
        <time>2024-09-06T08:56:11.000Z</time>
      </trkpt>
      <trkpt lat="47.31488" lon="3.97334">
        <ele>475.7</ele>
        <time>2024-09-06T08:56:16Z</time>
      </trkpt>
      <trkpt lat="47.31493" lon="3.97326">
        <ele>476.6</ele>
        <time>2024-09-06T08:56:26Z</time>
      </trkpt>
      <trkpt lat="47.31493" lon="3.97319">
        <ele>476.9</ele>
        <time>2024-09-06T08:56:32.000Z</time>
      </trkpt>
      <trkpt lat="47.31493" lon="3.97311">
        <ele>477.3</ele>
        <time>2024-09-06T08:56:38Z</time>
      </trkpt>
      <trkpt lat="47.31496" lon="3.97305">
        <ele>477.7</ele>
        <time>2024-09-06T08:56:45.000Z</time>
      </trkpt>
      <trkpt lat="47.31498" lon="3.97299">
        <ele>478.1</ele>
        <time>2024-09-06T08:56:52Z</time>
      </trkpt>
      <trkpt lat="47.31501" lon="3.97292">
        <ele>478.6</ele>
        <time>2024-09-06T08:56:56.500Z</time>
      </trkpt>
      <trkpt lat="47.31503" lon="3.97284">
        <ele>479.2</ele>
        <time>2024-09-06T08:57:01Z</time>
      </trkpt>
      <trkpt lat="47.3151" lon="3.97277">
        <ele>480.5</ele>
        <time>2024-09-06T08:57:11Z</time>
      </trkpt>
      <trkpt lat="47.31517" lon="3.9727">
        <ele>481.7</ele>
        <time>2024-09-06T08:57:23Z</time>
      </trkpt>
      <trkpt lat="47.31521" lon="3.97263">
        <ele>482.6</ele>
        <time>2024-09-06T08:57:28.500Z</time>
      </trkpt>
      <trkpt lat="47.31525" lon="3.97256">
        <ele>483.4</ele>
        <time>2024-09-06T08:57:34Z</time>
      </trkpt>
      <trkpt lat="47.31526" lon="3.97248">
        <ele>483.8</ele>
        <time>2024-09-06T08:57:40.000Z</time>
      </trkpt>
      <trkpt lat="47.31527" lon="3.9724">
        <ele>483.9</ele>
        <time>2024-09-06T08:57:46Z</time>
      </trkpt>
      <trkpt lat="47.31531" lon="3.9723">
        <ele>484.4</ele>
        <time>2024-09-06T08:57:52.500Z</time>
      </trkpt>
      <trkpt lat="47.31534" lon="3.9722">
        <ele>485</ele>
        <time>2024-09-06T08:57:59Z</time>
      </trkpt>
      <trkpt lat="47.31538" lon="3.97215">
        <ele>485.6</ele>
        <time>2024-09-06T08:58:05.000Z</time>
      </trkpt>
      <trkpt lat="47.31542" lon="3.97209">
        <ele>486.3</ele>
        <time>2024-09-06T08:58:11Z</time>
      </trkpt>
      <trkpt lat="47.31546" lon="3.97204">
        <ele>486.8</ele>
        <time>2024-09-06T08:58:16.000Z</time>
      </trkpt>
      <trkpt lat="47.31549" lon="3.97198">
        <ele>487.3</ele>
        <time>2024-09-06T08:58:21Z</time>
      </trkpt>
      <trkpt lat="47.31553" lon="3.97193">
        <ele>487.7</ele>
        <time>2024-09-06T08:58:26.000Z</time>
      </trkpt>
      <trkpt lat="47.31556" lon="3.97188">
        <ele>488.3</ele>
        <time>2024-09-06T08:58:31Z</time>
      </trkpt>
      <trkpt lat="47.31554" lon="3.97178">
        <ele>488.4</ele>
        <time>2024-09-06T08:58:36.999Z</time>
      </trkpt>
      <trkpt lat="47.31551" lon="3.97168">
        <ele>488.6</ele>
        <time>2024-09-06T08:58:43Z</time>
      </trkpt>
      <trkpt lat="47.31554" lon="3.97162">
        <ele>489.2</ele>
        <time>2024-09-06T08:58:49.000Z</time>
      </trkpt>
      <trkpt lat="47.31557" lon="3.97156">
        <ele>489.8</ele>
        <time>2024-09-06T08:58:55Z</time>
      </trkpt>
      <trkpt lat="47.31561" lon="3.9715">
        <ele>490.4</ele>
        <time>2024-09-06T08:59:00.500Z</time>
      </trkpt>
      <trkpt lat="47.31565" lon="3.97144">
        <ele>490.8</ele>
        <time>2024-09-06T08:59:06Z</time>
      </trkpt>
      <trkpt lat="47.3157" lon="3.97139">
        <ele>491</ele>
        <time>2024-09-06T08:59:12.000Z</time>
      </trkpt>
      <trkpt lat="47.31575" lon="3.97133">
        <ele>491.4</ele>
        <time>2024-09-06T08:59:18Z</time>
      </trkpt>
      <trkpt lat="47.31579" lon="3.97126">
        <ele>491.9</ele>
        <time>2024-09-06T08:59:23.000Z</time>
      </trkpt>
      <trkpt lat="47.31582" lon="3.97119">
        <ele>492.4</ele>
        <time>2024-09-06T08:59:28Z</time>
      </trkpt>
      <trkpt lat="47.31586" lon="3.97114">
        <ele>492.6</ele>
        <time>2024-09-06T08:59:33.000Z</time>
      </trkpt>
      <trkpt lat="47.31589" lon="3.97109">
        <ele>492.7</ele>
        <time>2024-09-06T08:59:38Z</time>
      </trkpt>
      <trkpt lat="47.31594" lon="3.97105">
        <ele>492.6</ele>
        <time>2024-09-06T09:00:45.750Z</time>
      </trkpt>
      <trkpt lat="47.31598" lon="3.97102">
        <ele>492.5</ele>
        <time>2024-09-06T09:01:53.500Z</time>
      </trkpt>
      <trkpt lat="47.31603" lon="3.97098">
        <ele>492.4</ele>
        <time>2024-09-06T09:03:01.250Z</time>
      </trkpt>
      <trkpt lat="47.31607" lon="3.97094">
        <ele>492.4</ele>
        <time>2024-09-06T09:04:09Z</time>
      </trkpt>
      <trkpt lat="47.31612" lon="3.97088">
        <ele>492.6</ele>
        <time>2024-09-06T09:04:15.000Z</time>
      </trkpt>
      <trkpt lat="47.31617" lon="3.97082">
        <ele>492.7</ele>
        <time>2024-09-06T09:04:21Z</time>
      </trkpt>
      <trkpt lat="47.31623" lon="3.97078">
        <ele>492.5</ele>
        <time>2024-09-06T09:04:26.000Z</time>
      </trkpt>
      <trkpt lat="47.31628" lon="3.97073">
        <ele>492.3</ele>
        <time>2024-09-06T09:04:31Z</time>
      </trkpt>
      <trkpt lat="47.31634" lon="3.97071">
        <ele>491.9</ele>
        <time>2024-09-06T09:04:36.500Z</time>
      </trkpt>
      <trkpt lat="47.31639" lon="3.97068">
        <ele>491.5</ele>
        <time>2024-09-06T09:04:42Z</time>
      </trkpt>
      <trkpt lat="47.31645" lon="3.97066">
        <ele>490.5</ele>
        <time>2024-09-06T09:04:47.000Z</time>
      </trkpt>
      <trkpt lat="47.31651" lon="3.97064">
        <ele>489.5</ele>
        <time>2024-09-06T09:04:52Z</time>
      </trkpt>
      <trkpt lat="47.31656" lon="3.97059">
        <ele>488.9</ele>
        <time>2024-09-06T09:04:57.500Z</time>
      </trkpt>
      <trkpt lat="47.3166" lon="3.97054">
        <ele>488.2</ele>
        <time>2024-09-06T09:05:03Z</time>
      </trkpt>
      <trkpt lat="47.31664" lon="3.97048">
        <ele>487.4</ele>
        <time>2024-09-06T09:05:08.500Z</time>
      </trkpt>
      <trkpt lat="47.31667" lon="3.97042">
        <ele>486.4</ele>
        <time>2024-09-06T09:05:14Z</time>
      </trkpt>
      <trkpt lat="47.3167" lon="3.97035">
        <ele>485.5</ele>
        <time>2024-09-06T09:05:21.000Z</time>
      </trkpt>
      <trkpt lat="47.31672" lon="3.97028">
        <ele>484.7</ele>
        <time>2024-09-06T09:05:28Z</time>
      </trkpt>
      <trkpt lat="47.31673" lon="3.97021">
        <ele>484</ele>
        <time>2024-09-06T09:05:34.000Z</time>
      </trkpt>
      <trkpt lat="47.31674" lon="3.97014">
        <ele>483.4</ele>
        <time>2024-09-06T09:05:40Z</time>
      </trkpt>
      <trkpt lat="47.31676" lon="3.97004">
        <ele>482.6</ele>
        <time>2024-09-06T09:05:46.500Z</time>
      </trkpt>
      <trkpt lat="47.31677" lon="3.96994">
        <ele>482.2</ele>
        <time>2024-09-06T09:05:53Z</time>
      </trkpt>
      <trkpt lat="47.31678" lon="3.96986">
        <ele>482</ele>
        <time>2024-09-06T09:05:58.250Z</time>
      </trkpt>
      <trkpt lat="47.3168" lon="3.96977">
        <ele>482</ele>
        <time>2024-09-06T09:06:03.500Z</time>
      </trkpt>
      <trkpt lat="47.31681" lon="3.96969">
        <ele>482.2</ele>
        <time>2024-09-06T09:06:08.750Z</time>
      </trkpt>
      <trkpt lat="47.31682" lon="3.9696">
        <ele>482.6</ele>
        <time>2024-09-06T09:06:14Z</time>
      </trkpt>
      <trkpt lat="47.31687" lon="3.96958">
        <ele>482.4</ele>
        <time>2024-09-06T09:06:22.500Z</time>
      </trkpt>
      <trkpt lat="47.31691" lon="3.96956">
        <ele>482.3</ele>
        <time>2024-09-06T09:06:31Z</time>
      </trkpt>
      <trkpt lat="47.31696" lon="3.96953">
        <ele>482.7</ele>
        <time>2024-09-06T09:06:39.500Z</time>
      </trkpt>
      <trkpt lat="47.31701" lon="3.9695">
        <ele>484.2</ele>
        <time>2024-09-06T09:06:48Z</time>
      </trkpt>
      <trkpt lat="47.31705" lon="3.96956">
        <ele>484.4</ele>
        <time>2024-09-06T09:06:54.000Z</time>
      </trkpt>
      <trkpt lat="47.31708" lon="3.96962">
        <ele>484.5</ele>
        <time>2024-09-06T09:07:00Z</time>
      </trkpt>
      <trkpt lat="47.31712" lon="3.96973">
        <ele>484.1</ele>
        <time>2024-09-06T09:07:07.500Z</time>
      </trkpt>
      <trkpt lat="47.31716" lon="3.96983">
        <ele>483.8</ele>
        <time>2024-09-06T09:07:15Z</time>
      </trkpt>
      <trkpt lat="47.31721" lon="3.96991">
        <ele>483.8</ele>
        <time>2024-09-06T09:07:21.000Z</time>
      </trkpt>
      <trkpt lat="47.31726" lon="3.96998">
        <ele>484.3</ele>
        <time>2024-09-06T09:07:27Z</time>
      </trkpt>
      <trkpt lat="47.3173" lon="3.97005">
        <ele>484.7</ele>
        <time>2024-09-06T09:07:33.500Z</time>
      </trkpt>
      <trkpt lat="47.31733" lon="3.97011">
        <ele>485</ele>
        <time>2024-09-06T09:07:40Z</time>
      </trkpt>
      <trkpt lat="47.31738" lon="3.9702">
        <ele>485.2</ele>
        <time>2024-09-06T09:07:46.000Z</time>
      </trkpt>
      <trkpt lat="47.31742" lon="3.97028">
        <ele>485.3</ele>
        <time>2024-09-06T09:07:52Z</time>
      </trkpt>
      <trkpt lat="47.31748" lon="3.97037">
        <ele>485.9</ele>
        <time>2024-09-06T09:08:05Z</time>
      </trkpt>
      <trkpt lat="47.31754" lon="3.97042">
        <ele>486.9</ele>
        <time>2024-09-06T09:08:12.500Z</time>
      </trkpt>
      <trkpt lat="47.31759" lon="3.97046">
        <ele>488</ele>
        <time>2024-09-06T09:08:20Z</time>
      </trkpt>
      <trkpt lat="47.31764" lon="3.97052">
        <ele>488.7</ele>
        <time>2024-09-06T09:08:25.500Z</time>
      </trkpt>
      <trkpt lat="47.31768" lon="3.97058">
        <ele>489.4</ele>
        <time>2024-09-06T09:08:31Z</time>
      </trkpt>
      <trkpt lat="47.31772" lon="3.97066">
        <ele>489.8</ele>
        <time>2024-09-06T09:08:38.500Z</time>
      </trkpt>
      <trkpt lat="47.31775" lon="3.97073">
        <ele>490.1</ele>
        <time>2024-09-06T09:08:46Z</time>
      </trkpt>
      <trkpt lat="47.3178" lon="3.97078">
        <ele>490.8</ele>
        <time>2024-09-06T09:08:51.000Z</time>
      </trkpt>
      <trkpt lat="47.31785" lon="3.97083">
        <ele>491.3</ele>
        <time>2024-09-06T09:08:56Z</time>
      </trkpt>
      <trkpt lat="47.31791" lon="3.97086">
        <ele>492.1</ele>
        <time>2024-09-06T09:09:02.000Z</time>
      </trkpt>
      <trkpt lat="47.31796" lon="3.97089">
        <ele>492.7</ele>
        <time>2024-09-06T09:09:08Z</time>
      </trkpt>
      <trkpt lat="47.31801" lon="3.97095">
        <ele>493</ele>
        <time>2024-09-06T09:09:15.500Z</time>
      </trkpt>
      <trkpt lat="47.31806" lon="3.97101">
        <ele>493.2</ele>
        <time>2024-09-06T09:09:23Z</time>
      </trkpt>
      <trkpt lat="47.31814" lon="3.97107">
        <ele>493.6</ele>
        <time>2024-09-06T09:09:30.500Z</time>
      </trkpt>
      <trkpt lat="47.31821" lon="3.97113">
        <ele>494.1</ele>
        <time>2024-09-06T09:09:38Z</time>
      </trkpt>
      <trkpt lat="47.31826" lon="3.97118">
        <ele>494.4</ele>
        <time>2024-09-06T09:09:45.000Z</time>
      </trkpt>
      <trkpt lat="47.3183" lon="3.97123">
        <ele>494.7</ele>
        <time>2024-09-06T09:09:52Z</time>
      </trkpt>
      <trkpt lat="47.31837" lon="3.97128">
        <ele>495.2</ele>
        <time>2024-09-06T09:10:00.500Z</time>
      </trkpt>
      <trkpt lat="47.31843" lon="3.97133">
        <ele>495.8</ele>
        <time>2024-09-06T09:10:09Z</time>
      </trkpt>
      <trkpt lat="47.31849" lon="3.97139">
        <ele>496.3</ele>
        <time>2024-09-06T09:10:15.000Z</time>
      </trkpt>
      <trkpt lat="47.31855" lon="3.97144">
        <ele>496.8</ele>
        <time>2024-09-06T09:10:21Z</time>
      </trkpt>
      <trkpt lat="47.3186" lon="3.97149">
        <ele>497.1</ele>
        <time>2024-09-06T09:10:26.500Z</time>
      </trkpt>
      <trkpt lat="47.31864" lon="3.97153">
        <ele>497.1</ele>
        <time>2024-09-06T09:10:32Z</time>
      </trkpt>
      <trkpt lat="47.31869" lon="3.97157">
        <ele>497.2</ele>
        <time>2024-09-06T09:10:38.500Z</time>
      </trkpt>
      <trkpt lat="47.31873" lon="3.9716">
        <ele>497.2</ele>
        <time>2024-09-06T09:10:45Z</time>
      </trkpt>
      <trkpt lat="47.31881" lon="3.97166">
        <ele>497.5</ele>
        <time>2024-09-06T09:10:54.000Z</time>
      </trkpt>
      <trkpt lat="47.31888" lon="3.97171">
        <ele>497.8</ele>
        <time>2024-09-06T09:11:03Z</time>
      </trkpt>
      <trkpt lat="47.31892" lon="3.97175">
        <ele>497.7</ele>
        <time>2024-09-06T09:11:06.000Z</time>
      </trkpt>
      <trkpt lat="47.31896" lon="3.97179">
        <ele>497.6</ele>
        <time>2024-09-06T09:11:09.000Z</time>
      </trkpt>
      <trkpt lat="47.31899" lon="3.97183">
        <ele>497.4</ele>
        <time>2024-09-06T09:11:12.000Z</time>
      </trkpt>
      <trkpt lat="47.31903" lon="3.97187">
        <ele>497.3</ele>
        <time>2024-09-06T09:11:15Z</time>
      </trkpt>
      <trkpt lat="47.31909" lon="3.97196">
        <ele>497</ele>
        <time>2024-09-06T09:11:23.500Z</time>
      </trkpt>
      <trkpt lat="47.31915" lon="3.97205">
        <ele>497</ele>
        <time>2024-09-06T09:11:32Z</time>
      </trkpt>
      <trkpt lat="47.3192" lon="3.9721">
        <ele>497.1</ele>
        <time>2024-09-06T09:11:36.500Z</time>
      </trkpt>
      <trkpt lat="47.31924" lon="3.97215">
        <ele>497.3</ele>
        <time>2024-09-06T09:11:41Z</time>
      </trkpt>
      <trkpt lat="47.3193" lon="3.9722">
        <ele>497.5</ele>
        <time>2024-09-06T09:11:47.000Z</time>
      </trkpt>
      <trkpt lat="47.31936" lon="3.97225">
        <ele>497.8</ele>
        <time>2024-09-06T09:11:53Z</time>
      </trkpt>
      <trkpt lat="47.31942" lon="3.97227">
        <ele>498</ele>
        <time>2024-09-06T09:11:59.500Z</time>
      </trkpt>
      <trkpt lat="47.31947" lon="3.97228">
        <ele>498.2</ele>
        <time>2024-09-06T09:12:06Z</time>
      </trkpt>
      <trkpt lat="47.31955" lon="3.97231">
        <ele>498.4</ele>
        <time>2024-09-06T09:12:11.000Z</time>
      </trkpt>
      <trkpt lat="47.31962" lon="3.97233">
        <ele>498.6</ele>
        <time>2024-09-06T09:12:16Z</time>
      </trkpt>
      <trkpt lat="47.3197" lon="3.97233">
        <ele>498.7</ele>
        <time>2024-09-06T09:12:25.000Z</time>
      </trkpt>
      <trkpt lat="47.31978" lon="3.97233">
        <ele>498.8</ele>
        <time>2024-09-06T09:12:34Z</time>
      </trkpt>
      <trkpt lat="47.31983" lon="3.97234">
        <ele>498.8</ele>
        <time>2024-09-06T09:12:38.000Z</time>
      </trkpt>
      <trkpt lat="47.31989" lon="3.97234">
        <ele>498.8</ele>
        <time>2024-09-06T09:12:42.000Z</time>
      </trkpt>
      <trkpt lat="47.31994" lon="3.97235">
        <ele>498.9</ele>
        <time>2024-09-06T09:12:46.000Z</time>
      </trkpt>
      <trkpt lat="47.31999" lon="3.97235">
        <ele>498.9</ele>
        <time>2024-09-06T09:12:50Z</time>
      </trkpt>
      <trkpt lat="47.32006" lon="3.97235">
        <ele>498.5</ele>
        <time>2024-09-06T09:12:56.000Z</time>
      </trkpt>
      <trkpt lat="47.32012" lon="3.97234">
        <ele>498</ele>
        <time>2024-09-06T09:13:02Z</time>
      </trkpt>
      <trkpt lat="47.32021" lon="3.97236">
        <ele>497.5</ele>
        <time>2024-09-06T09:13:09.500Z</time>
      </trkpt>
      <trkpt lat="47.32029" lon="3.97238">
        <ele>497</ele>
        <time>2024-09-06T09:13:17Z</time>
      </trkpt>
      <trkpt lat="47.32037" lon="3.97239">
        <ele>496.2</ele>
        <time>2024-09-06T09:13:32Z</time>
      </trkpt>
      <trkpt lat="47.32043" lon="3.97242">
        <ele>495.7</ele>
        <time>2024-09-06T09:13:35.750Z</time>
      </trkpt>
      <trkpt lat="47.3205" lon="3.97244">
        <ele>495.2</ele>
        <time>2024-09-06T09:13:39.500Z</time>
      </trkpt>
      <trkpt lat="47.32056" lon="3.97247">
        <ele>494.7</ele>
        <time>2024-09-06T09:13:43.250Z</time>
      </trkpt>
      <trkpt lat="47.32062" lon="3.97249">
        <ele>494</ele>
        <time>2024-09-06T09:13:47Z</time>
      </trkpt>
      <trkpt lat="47.32067" lon="3.9725">
        <ele>493.4</ele>
        <time>2024-09-06T09:13:54.500Z</time>
      </trkpt>
      <trkpt lat="47.32072" lon="3.97251">
        <ele>492.8</ele>
        <time>2024-09-06T09:14:02Z</time>
      </trkpt>
      <trkpt lat="47.32077" lon="3.97253">
        <ele>492.4</ele>
        <time>2024-09-06T09:14:06.500Z</time>
      </trkpt>
      <trkpt lat="47.32082" lon="3.97254">
        <ele>492</ele>
        <time>2024-09-06T09:14:11.000Z</time>
      </trkpt>
      <trkpt lat="47.32087" lon="3.97256">
        <ele>491.7</ele>
        <time>2024-09-06T09:14:15.500Z</time>
      </trkpt>
      <trkpt lat="47.32092" lon="3.97257">
        <ele>491.3</ele>
        <time>2024-09-06T09:14:20Z</time>
      </trkpt>
      <trkpt lat="47.32099" lon="3.97259">
        <ele>490.7</ele>
        <time>2024-09-06T09:14:26.500Z</time>
      </trkpt>
      <trkpt lat="47.32106" lon="3.97261">
        <ele>490.1</ele>
        <time>2024-09-06T09:14:33Z</time>
      </trkpt>
      <trkpt lat="47.32114" lon="3.97262">
        <ele>489.1</ele>
        <time>2024-09-06T09:14:39.000Z</time>
      </trkpt>
      <trkpt lat="47.32122" lon="3.97263">
        <ele>488.1</ele>
        <time>2024-09-06T09:14:45Z</time>
      </trkpt>
      <trkpt lat="47.3213" lon="3.9726">
        <ele>486.2</ele>
        <time>2024-09-06T09:14:53.000Z</time>
      </trkpt>
      <trkpt lat="47.32138" lon="3.97257">
        <ele>484.4</ele>
        <time>2024-09-06T09:15:01Z</time>
      </trkpt>
      <trkpt lat="47.32143" lon="3.97257">
        <ele>483.9</ele>
        <time>2024-09-06T09:15:04.500Z</time>
      </trkpt>
      <trkpt lat="47.32147" lon="3.97257">
        <ele>483.5</ele>
        <time>2024-09-06T09:15:08.000Z</time>
      </trkpt>
      <trkpt lat="47.32152" lon="3.97256">
        <ele>483.1</ele>
        <time>2024-09-06T09:15:11.500Z</time>
      </trkpt>
      <trkpt lat="47.32156" lon="3.97256">
        <ele>482.7</ele>
        <time>2024-09-06T09:15:15Z</time>
      </trkpt>
      <trkpt lat="47.32163" lon="3.9725">
        <ele>481.3</ele>
        <time>2024-09-06T09:15:25Z</time>
      </trkpt>
      <trkpt lat="47.3217" lon="3.97249">
        <ele>480.6</ele>
        <time>2024-09-06T09:15:30.000Z</time>
      </trkpt>
      <trkpt lat="47.32177" lon="3.97248">
        <ele>480</ele>
        <time>2024-09-06T09:15:35Z</time>
      </trkpt>
      <trkpt lat="47.32185" lon="3.97251">
        <ele>479.8</ele>
        <time>2024-09-06T09:15:40.000Z</time>
      </trkpt>
      <trkpt lat="47.32192" lon="3.97253">
        <ele>479.5</ele>
        <time>2024-09-06T09:15:45Z</time>
      </trkpt>
      <trkpt lat="47.32198" lon="3.97253">
        <ele>479</ele>
        <time>2024-09-06T09:15:51.000Z</time>
      </trkpt>
      <trkpt lat="47.32203" lon="3.97253">
        <ele>478.4</ele>
        <time>2024-09-06T09:15:57Z</time>
      </trkpt>
      <trkpt lat="47.32209" lon="3.97254">
        <ele>477.9</ele>
        <time>2024-09-06T09:16:01.000Z</time>
      </trkpt>
      <trkpt lat="47.32214" lon="3.97255">
        <ele>477.4</ele>
        <time>2024-09-06T09:16:05Z</time>
      </trkpt>
      <trkpt lat="47.3222" lon="3.97253">
        <ele>476.6</ele>
        <time>2024-09-06T09:16:10.500Z</time>
      </trkpt>
      <trkpt lat="47.32225" lon="3.97251">
        <ele>475.9</ele>
        <time>2024-09-06T09:16:16Z</time>
      </trkpt>
      <trkpt lat="47.3223" lon="3.9725">
        <ele>475.4</ele>
        <time>2024-09-06T09:16:21.000Z</time>
      </trkpt>
      <trkpt lat="47.32235" lon="3.97248">
        <ele>474.8</ele>
        <time>2024-09-06T09:16:26Z</time>
      </trkpt>
      <trkpt lat="47.3224" lon="3.97248">
        <ele>474.4</ele>
        <time>2024-09-06T09:16:31.000Z</time>
      </trkpt>
      <trkpt lat="47.32244" lon="3.97247">
        <ele>474</ele>
        <time>2024-09-06T09:16:36Z</time>
      </trkpt>
      <trkpt lat="47.32249" lon="3.97245">
        <ele>473.4</ele>
        <time>2024-09-06T09:16:41.500Z</time>
      </trkpt>
      <trkpt lat="47.32253" lon="3.97243">
        <ele>472.9</ele>
        <time>2024-09-06T09:16:47Z</time>
      </trkpt>
      <trkpt lat="47.32258" lon="3.97243">
        <ele>472.8</ele>
        <time>2024-09-06T09:16:50.750Z</time>
      </trkpt>
      <trkpt lat="47.32262" lon="3.97244">
        <ele>472.6</ele>
        <time>2024-09-06T09:16:54.500Z</time>
      </trkpt>
      <trkpt lat="47.32267" lon="3.97244">
        <ele>472.5</ele>
        <time>2024-09-06T09:16:58.250Z</time>
      </trkpt>
      <trkpt lat="47.32271" lon="3.97244">
        <ele>472.4</ele>
        <time>2024-09-06T09:17:02Z</time>
      </trkpt>
      <trkpt lat="47.32278" lon="3.97247">
        <ele>472.5</ele>
        <time>2024-09-06T09:17:08.000Z</time>
      </trkpt>
      <trkpt lat="47.32285" lon="3.97249">
        <ele>472.1</ele>
        <time>2024-09-06T09:17:14Z</time>
      </trkpt>
      <trkpt lat="47.32291" lon="3.9725">
        <ele>471.5</ele>
        <time>2024-09-06T09:17:18.500Z</time>
      </trkpt>
      <trkpt lat="47.32297" lon="3.9725">
        <ele>470.9</ele>
        <time>2024-09-06T09:17:23Z</time>
      </trkpt>
      <trkpt lat="47.32302" lon="3.97252">
        <ele>470.6</ele>
        <time>2024-09-06T09:17:27.500Z</time>
      </trkpt>
      <trkpt lat="47.32306" lon="3.97253">
        <ele>470.4</ele>
        <time>2024-09-06T09:17:32Z</time>
      </trkpt>
      <trkpt lat="47.32312" lon="3.97259">
        <ele>470.2</ele>
        <time>2024-09-06T09:17:50Z</time>
      </trkpt>
      <trkpt lat="47.32317" lon="3.97264">
        <ele>470.2</ele>
        <time>2024-09-06T09:17:57.000Z</time>
      </trkpt>
      <trkpt lat="47.32321" lon="3.97268">
        <ele>470.2</ele>
        <time>2024-09-06T09:18:04Z</time>
      </trkpt>
      <trkpt lat="47.32327" lon="3.97271">
        <ele>469.7</ele>
        <time>2024-09-06T09:18:09.000Z</time>
      </trkpt>
      <trkpt lat="47.32333" lon="3.97273">
        <ele>469.2</ele>
        <time>2024-09-06T09:18:14Z</time>
      </trkpt>
      <trkpt lat="47.3234" lon="3.97274">
        <ele>468.4</ele>
        <time>2024-09-06T09:18:19.000Z</time>
      </trkpt>
      <trkpt lat="47.32346" lon="3.97275">
        <ele>467.6</ele>
        <time>2024-09-06T09:18:24Z</time>
      </trkpt>
      <trkpt lat="47.32351" lon="3.97278">
        <ele>467.4</ele>
        <time>2024-09-06T09:18:29.500Z</time>
      </trkpt>
      <trkpt lat="47.32356" lon="3.9728">
        <ele>467.2</ele>
        <time>2024-09-06T09:18:35Z</time>
      </trkpt>
      <trkpt lat="47.32363" lon="3.97282">
        <ele>466.7</ele>
        <time>2024-09-06T09:18:41.000Z</time>
      </trkpt>
      <trkpt lat="47.32369" lon="3.97284">
        <ele>466.1</ele>
        <time>2024-09-06T09:18:47Z</time>
      </trkpt>
      <trkpt lat="47.32375" lon="3.97285">
        <ele>465.2</ele>
        <time>2024-09-06T09:18:52.500Z</time>
      </trkpt>
      <trkpt lat="47.32381" lon="3.97285">
        <ele>464.3</ele>
        <time>2024-09-06T09:18:58Z</time>
      </trkpt>
      <trkpt lat="47.32388" lon="3.97289">
        <ele>463.7</ele>
        <time>2024-09-06T09:19:05.000Z</time>
      </trkpt>
      <trkpt lat="47.32395" lon="3.97292">
        <ele>463.2</ele>
        <time>2024-09-06T09:19:12Z</time>
      </trkpt>
      <trkpt lat="47.32403" lon="3.97294">
        <ele>462.4</ele>
        <time>2024-09-06T09:19:16.500Z</time>
      </trkpt>
      <trkpt lat="47.3241" lon="3.97296">
        <ele>461.6</ele>
        <time>2024-09-06T09:19:21Z</time>
      </trkpt>
      <trkpt lat="47.32416" lon="3.97297">
        <ele>460.9</ele>
        <time>2024-09-06T09:19:26.000Z</time>
      </trkpt>
      <trkpt lat="47.32421" lon="3.97298">
        <ele>460.2</ele>
        <time>2024-09-06T09:19:31Z</time>
      </trkpt>
      <trkpt lat="47.32427" lon="3.973">
        <ele>459.4</ele>
        <time>2024-09-06T09:19:37.000Z</time>
      </trkpt>
      <trkpt lat="47.32433" lon="3.97302">
        <ele>458.6</ele>
        <time>2024-09-06T09:19:43Z</time>
      </trkpt>
      <trkpt lat="47.32438" lon="3.973">
        <ele>457.5</ele>
        <time>2024-09-06T09:19:48.500Z</time>
      </trkpt>
      <trkpt lat="47.32443" lon="3.97297">
        <ele>456.3</ele>
        <time>2024-09-06T09:19:54Z</time>
      </trkpt>
      <trkpt lat="47.3245" lon="3.97296">
        <ele>454.9</ele>
        <time>2024-09-06T09:20:01.000Z</time>
      </trkpt>
      <trkpt lat="47.32457" lon="3.97295">
        <ele>453.4</ele>
        <time>2024-09-06T09:20:08Z</time>
      </trkpt>
      <trkpt lat="47.32463" lon="3.97295">
        <ele>452.4</ele>
        <time>2024-09-06T09:20:13.500Z</time>
      </trkpt>
      <trkpt lat="47.32468" lon="3.97295">
        <ele>451.3</ele>
        <time>2024-09-06T09:20:19Z</time>
      </trkpt>
      <trkpt lat="47.32476" lon="3.97296">
        <ele>450</ele>
        <time>2024-09-06T09:20:25.000Z</time>
      </trkpt>
      <trkpt lat="47.32483" lon="3.97297">
        <ele>448.8</ele>
        <time>2024-09-06T09:20:31Z</time>
      </trkpt>
      <trkpt lat="47.32489" lon="3.97299">
        <ele>448</ele>
        <time>2024-09-06T09:20:36.500Z</time>
      </trkpt>
      <trkpt lat="47.32495" lon="3.973">
        <ele>447.1</ele>
        <time>2024-09-06T09:20:42Z</time>
      </trkpt>
      <trkpt lat="47.32501" lon="3.97301">
        <ele>446.2</ele>
        <time>2024-09-06T09:20:47.500Z</time>
      </trkpt>
      <trkpt lat="47.32507" lon="3.97302">
        <ele>445.2</ele>
        <time>2024-09-06T09:20:53Z</time>
      </trkpt>
      <trkpt lat="47.32514" lon="3.97302">
        <ele>443.8</ele>
        <time>2024-09-06T09:20:59.000Z</time>
      </trkpt>
      <trkpt lat="47.32521" lon="3.97301">
        <ele>442.4</ele>
        <time>2024-09-06T09:21:05Z</time>
      </trkpt>
      <trkpt lat="47.32527" lon="3.97302">
        <ele>441.4</ele>
        <time>2024-09-06T09:21:11.500Z</time>
      </trkpt>
      <trkpt lat="47.32533" lon="3.97302">
        <ele>440.2</ele>
        <time>2024-09-06T09:21:18Z</time>
      </trkpt>
      <trkpt lat="47.32538" lon="3.97302">
        <ele>439.3</ele>
        <time>2024-09-06T09:21:23.000Z</time>
      </trkpt>
      <trkpt lat="47.32542" lon="3.97302">
        <ele>438.3</ele>
        <time>2024-09-06T09:21:28Z</time>
      </trkpt>
      <trkpt lat="47.32548" lon="3.97303">
        <ele>437.2</ele>
        <time>2024-09-06T09:21:35.000Z</time>
      </trkpt>
      <trkpt lat="47.32553" lon="3.97303">
        <ele>436.1</ele>
        <time>2024-09-06T09:21:42Z</time>
      </trkpt>
      <trkpt lat="47.3256" lon="3.97305">
        <ele>435</ele>
        <time>2024-09-06T09:21:48.000Z</time>
      </trkpt>
      <trkpt lat="47.32567" lon="3.97306">
        <ele>434</ele>
        <time>2024-09-06T09:21:54Z</time>
      </trkpt>
      <trkpt lat="47.32574" lon="3.97306">
        <ele>432.8</ele>
        <time>2024-09-06T09:21:59.000Z</time>
      </trkpt>
      <trkpt lat="47.3258" lon="3.97305">
        <ele>431.5</ele>
        <time>2024-09-06T09:22:04Z</time>
      </trkpt>
      <trkpt lat="47.32586" lon="3.97304">
        <ele>430.3</ele>
        <time>2024-09-06T09:22:10.000Z</time>
      </trkpt>
      <trkpt lat="47.32591" lon="3.97303">
        <ele>429.2</ele>
        <time>2024-09-06T09:22:16Z</time>
      </trkpt>
      <trkpt lat="47.32596" lon="3.97302">
        <ele>428.1</ele>
        <time>2024-09-06T09:22:21.500Z</time>
      </trkpt>
      <trkpt lat="47.32601" lon="3.97301">
        <ele>427</ele>
        <time>2024-09-06T09:22:27Z</time>
      </trkpt>
      <trkpt lat="47.32608" lon="3.97301">
        <ele>425.8</ele>
        <time>2024-09-06T09:22:32.500Z</time>
      </trkpt>
      <trkpt lat="47.32614" lon="3.97301">
        <ele>424.9</ele>
        <time>2024-09-06T09:22:38Z</time>
      </trkpt>
      <trkpt lat="47.3262" lon="3.97301">
        <ele>424.2</ele>
        <time>2024-09-06T09:22:43.500Z</time>
      </trkpt>
      <trkpt lat="47.32625" lon="3.97301">
        <ele>423.6</ele>
        <time>2024-09-06T09:22:49Z</time>
      </trkpt>
      <trkpt lat="47.32631" lon="3.97302">
        <ele>423.2</ele>
        <time>2024-09-06T09:22:54.000Z</time>
      </trkpt>
      <trkpt lat="47.32636" lon="3.97303">
        <ele>422.8</ele>
        <time>2024-09-06T09:22:59Z</time>
      </trkpt>
      <trkpt lat="47.32642" lon="3.97304">
        <ele>422.3</ele>
        <time>2024-09-06T09:23:04.500Z</time>
      </trkpt>
      <trkpt lat="47.32647" lon="3.97305">
        <ele>421.7</ele>
        <time>2024-09-06T09:23:10Z</time>
      </trkpt>
      <trkpt lat="47.32655" lon="3.97306">
        <ele>420.7</ele>
        <time>2024-09-06T09:23:14.500Z</time>
      </trkpt>
      <trkpt lat="47.32662" lon="3.97306">
        <ele>419.7</ele>
        <time>2024-09-06T09:23:19Z</time>
      </trkpt>
      <trkpt lat="47.32667" lon="3.97306">
        <ele>419</ele>
        <time>2024-09-06T09:23:24.000Z</time>
      </trkpt>
      <trkpt lat="47.32672" lon="3.97306">
        <ele>418.5</ele>
        <time>2024-09-06T09:23:29Z</time>
      </trkpt>
      <trkpt lat="47.32677" lon="3.97306">
        <ele>417.9</ele>
        <time>2024-09-06T09:23:33.500Z</time>
      </trkpt>
      <trkpt lat="47.32681" lon="3.97305">
        <ele>417.3</ele>
        <time>2024-09-06T09:23:38Z</time>
      </trkpt>
      <trkpt lat="47.32688" lon="3.97303">
        <ele>416.1</ele>
        <time>2024-09-06T09:23:43.500Z</time>
      </trkpt>
      <trkpt lat="47.32694" lon="3.973">
        <ele>414.8</ele>
        <time>2024-09-06T09:23:49Z</time>
      </trkpt>
      <trkpt lat="47.327" lon="3.973">
        <ele>414.1</ele>
        <time>2024-09-06T09:23:54.500Z</time>
      </trkpt>
      <trkpt lat="47.32705" lon="3.973">
        <ele>413.4</ele>
        <time>2024-09-06T09:24:00Z</time>
      </trkpt>
      <trkpt lat="47.32711" lon="3.97301">
        <ele>412.7</ele>
        <time>2024-09-06T09:24:05.500Z</time>
      </trkpt>
      <trkpt lat="47.32716" lon="3.97301">
        <ele>412</ele>
        <time>2024-09-06T09:24:11Z</time>
      </trkpt>
      <trkpt lat="47.32723" lon="3.97301">
        <ele>411.1</ele>
        <time>2024-09-06T09:24:16.000Z</time>
      </trkpt>
      <trkpt lat="47.3273" lon="3.97301">
        <ele>410.1</ele>
        <time>2024-09-06T09:24:21Z</time>
      </trkpt>
      <trkpt lat="47.32735" lon="3.97303">
        <ele>409.7</ele>
        <time>2024-09-06T09:24:26.500Z</time>
      </trkpt>
      <trkpt lat="47.3274" lon="3.97304">
        <ele>409.2</ele>
        <time>2024-09-06T09:24:32Z</time>
      </trkpt>
      <trkpt lat="47.32746" lon="3.97306">
        <ele>408.6</ele>
        <time>2024-09-06T09:24:38.000Z</time>
      </trkpt>
      <trkpt lat="47.32752" lon="3.97307">
        <ele>407.9</ele>
        <time>2024-09-06T09:24:44Z</time>
      </trkpt>
      <trkpt lat="47.32758" lon="3.97309">
        <ele>407.4</ele>
        <time>2024-09-06T09:24:49.500Z</time>
      </trkpt>
      <trkpt lat="47.32764" lon="3.9731">
        <ele>406.8</ele>
        <time>2024-09-06T09:24:55Z</time>
      </trkpt>
      <trkpt lat="47.32769" lon="3.97312">
        <ele>406.3</ele>
        <time>2024-09-06T09:25:03.000Z</time>
      </trkpt>
      <trkpt lat="47.32774" lon="3.97313">
        <ele>405.7</ele>
        <time>2024-09-06T09:25:11Z</time>
      </trkpt>
      <trkpt lat="47.32782" lon="3.97312">
        <ele>404.5</ele>
        <time>2024-09-06T09:25:19.500Z</time>
      </trkpt>
      <trkpt lat="47.32789" lon="3.9731">
        <ele>403.1</ele>
        <time>2024-09-06T09:25:28Z</time>
      </trkpt>
      <trkpt lat="47.32794" lon="3.97315">
        <ele>402.5</ele>
        <time>2024-09-06T09:25:35.000Z</time>
      </trkpt>
      <trkpt lat="47.32798" lon="3.9732">
        <ele>401.9</ele>
        <time>2024-09-06T09:25:42Z</time>
      </trkpt>
      <trkpt lat="47.32806" lon="3.97323">
        <ele>400.5</ele>
        <time>2024-09-06T09:25:50.000Z</time>
      </trkpt>
      <trkpt lat="47.32814" lon="3.97326">
        <ele>398.8</ele>
        <time>2024-09-06T09:25:58Z</time>
      </trkpt>
      <trkpt lat="47.32822" lon="3.97329">
        <ele>397.2</ele>
        <time>2024-09-06T09:26:05.500Z</time>
      </trkpt>
      <trkpt lat="47.3283" lon="3.97331">
        <ele>395.6</ele>
        <time>2024-09-06T09:26:13Z</time>
      </trkpt>
      <trkpt lat="47.32836" lon="3.97337">
        <ele>394.5</ele>
        <time>2024-09-06T09:26:20.000Z</time>
      </trkpt>
      <trkpt lat="47.32842" lon="3.97342">
        <ele>393.3</ele>
        <time>2024-09-06T09:26:27Z</time>
      </trkpt>
      <trkpt lat="47.32849" lon="3.97346">
        <ele>392</ele>
        <time>2024-09-06T09:26:33.500Z</time>
      </trkpt>
      <trkpt lat="47.32855" lon="3.9735">
        <ele>390.6</ele>
        <time>2024-09-06T09:26:40Z</time>
      </trkpt>
      <trkpt lat="47.32861" lon="3.9735">
        <ele>389.4</ele>
        <time>2024-09-06T09:26:49.500Z</time>
      </trkpt>
      <trkpt lat="47.32867" lon="3.97349">
        <ele>388.1</ele>
        <time>2024-09-06T09:26:59Z</time>
      </trkpt>
      <trkpt lat="47.32872" lon="3.97346">
        <ele>387</ele>
        <time>2024-09-06T09:27:27Z</time>
      </trkpt>
      <trkpt lat="47.32877" lon="3.97347">
        <ele>385.9</ele>
        <time>2024-09-06T09:27:46.500Z</time>
      </trkpt>
      <trkpt lat="47.32881" lon="3.97348">
        <ele>384.8</ele>
        <time>2024-09-06T09:28:06Z</time>
      </trkpt>
      <trkpt lat="47.32885" lon="3.97342">
        <ele>384.1</ele>
        <time>2024-09-06T09:28:11.500Z</time>
      </trkpt>
      <trkpt lat="47.32888" lon="3.97335">
        <ele>383.2</ele>
        <time>2024-09-06T09:28:17Z</time>
      </trkpt>
      <trkpt lat="47.32889" lon="3.97328">
        <ele>382.6</ele>
        <time>2024-09-06T09:28:22.500Z</time>
      </trkpt>
      <trkpt lat="47.3289" lon="3.97321">
        <ele>381.8</ele>
        <time>2024-09-06T09:28:28Z</time>
      </trkpt>
      <trkpt lat="47.32892" lon="3.97314">
        <ele>380.8</ele>
        <time>2024-09-06T09:28:33.500Z</time>
      </trkpt>
      <trkpt lat="47.32894" lon="3.97307">
        <ele>379.8</ele>
        <time>2024-09-06T09:28:39Z</time>
      </trkpt>
      <trkpt lat="47.32897" lon="3.97299">
        <ele>378.6</ele>
        <time>2024-09-06T09:28:45.500Z</time>
      </trkpt>
      <trkpt lat="47.329" lon="3.97291">
        <ele>377.4</ele>
        <time>2024-09-06T09:28:52Z</time>
      </trkpt>
      <trkpt lat="47.32904" lon="3.97285">
        <ele>376.1</ele>
        <time>2024-09-06T09:29:01.000Z</time>
      </trkpt>
      <trkpt lat="47.32908" lon="3.97279">
        <ele>374.9</ele>
        <time>2024-09-06T09:29:10Z</time>
      </trkpt>
      <trkpt lat="47.32913" lon="3.97279">
        <ele>373.9</ele>
        <time>2024-09-06T09:29:13.250Z</time>
      </trkpt>
      <trkpt lat="47.32917" lon="3.97279">
        <ele>373</ele>
        <time>2024-09-06T09:29:16.500Z</time>
      </trkpt>
      <trkpt lat="47.32922" lon="3.97278">
        <ele>372.1</ele>
        <time>2024-09-06T09:29:19.750Z</time>
      </trkpt>
      <trkpt lat="47.32926" lon="3.97278">
        <ele>371.3</ele>
        <time>2024-09-06T09:29:23Z</time>
      </trkpt>
      <trkpt lat="47.32934" lon="3.97278">
        <ele>369.9</ele>
        <time>2024-09-06T09:29:31.500Z</time>
      </trkpt>
      <trkpt lat="47.32942" lon="3.97278">
        <ele>368.4</ele>
        <time>2024-09-06T09:29:40Z</time>
      </trkpt>
      <trkpt lat="47.32949" lon="3.9728">
        <ele>367.2</ele>
        <time>2024-09-06T09:29:48.500Z</time>
      </trkpt>
      <trkpt lat="47.32956" lon="3.97281">
        <ele>366.1</ele>
        <time>2024-09-06T09:29:57Z</time>
      </trkpt>
      <trkpt lat="47.32964" lon="3.97284">
        <ele>364.7</ele>
        <time>2024-09-06T09:30:05.000Z</time>
      </trkpt>
      <trkpt lat="47.32971" lon="3.97286">
        <ele>363.3</ele>
        <time>2024-09-06T09:30:13Z</time>
      </trkpt>
      <trkpt lat="47.32978" lon="3.97285">
        <ele>362.9</ele>
        <time>2024-09-06T09:30:20.500Z</time>
      </trkpt>
      <trkpt lat="47.32985" lon="3.97283">
        <ele>362.6</ele>
        <time>2024-09-06T09:30:28Z</time>
      </trkpt>
      <trkpt lat="47.32992" lon="3.97283">
        <ele>362.2</ele>
        <time>2024-09-06T09:30:35.500Z</time>
      </trkpt>
      <trkpt lat="47.32999" lon="3.97282">
        <ele>361.8</ele>
        <time>2024-09-06T09:30:43Z</time>
      </trkpt>
      <trkpt lat="47.33006" lon="3.97286">
        <ele>360.9</ele>
        <time>2024-09-06T09:30:50.500Z</time>
      </trkpt>
      <trkpt lat="47.33013" lon="3.97289">
        <ele>359.9</ele>
        <time>2024-09-06T09:30:58Z</time>
      </trkpt>
      <trkpt lat="47.3302" lon="3.97292">
        <ele>358.9</ele>
        <time>2024-09-06T09:31:05.000Z</time>
      </trkpt>
      <trkpt lat="47.33027" lon="3.97294">
        <ele>357.8</ele>
        <time>2024-09-06T09:31:12Z</time>
      </trkpt>
      <trkpt lat="47.33035" lon="3.97292">
        <ele>356.6</ele>
        <time>2024-09-06T09:31:19.500Z</time>
      </trkpt>
      <trkpt lat="47.33042" lon="3.97289">
        <ele>355.2</ele>
        <time>2024-09-06T09:31:27Z</time>
      </trkpt>
      <trkpt lat="47.33049" lon="3.97285">
        <ele>354.1</ele>
        <time>2024-09-06T09:31:33.000Z</time>
      </trkpt>
      <trkpt lat="47.33055" lon="3.97281">
        <ele>352.9</ele>
        <time>2024-09-06T09:31:39Z</time>
      </trkpt>
      <trkpt lat="47.33062" lon="3.97274">
        <ele>352.3</ele>
        <time>2024-09-06T09:31:44.500Z</time>
      </trkpt>
      <trkpt lat="47.33069" lon="3.97267">
        <ele>351.5</ele>
        <time>2024-09-06T09:31:50Z</time>
      </trkpt>
      <trkpt lat="47.33073" lon="3.97262">
        <ele>350.9</ele>
        <time>2024-09-06T09:31:54.500Z</time>
      </trkpt>
      <trkpt lat="47.33077" lon="3.97256">
        <ele>350.3</ele>
        <time>2024-09-06T09:31:59Z</time>
      </trkpt>
      <trkpt lat="47.33084" lon="3.97248">
        <ele>349.1</ele>
        <time>2024-09-06T09:32:10Z</time>
      </trkpt>
      <trkpt lat="47.3309" lon="3.97248">
        <ele>349.1</ele>
        <time>2024-09-06T09:32:17.500Z</time>
      </trkpt>
      <trkpt lat="47.33095" lon="3.97248">
        <ele>349.1</ele>
        <time>2024-09-06T09:32:25Z</time>
      </trkpt>
      <trkpt lat="47.33101" lon="3.97248">
        <ele>349.1</ele>
        <time>2024-09-06T09:32:31.000Z</time>
      </trkpt>
      <trkpt lat="47.33107" lon="3.97248">
        <ele>349.1</ele>
        <time>2024-09-06T09:32:37Z</time>
      </trkpt>
      <trkpt lat="47.33115" lon="3.97242">
        <ele>349.9</ele>
        <time>2024-09-06T09:32:53Z</time>
      </trkpt>
      <trkpt lat="47.3312" lon="3.97241">
        <ele>350.3</ele>
        <time>2024-09-06T09:32:59.000Z</time>
      </trkpt>
      <trkpt lat="47.33125" lon="3.97239">
        <ele>350.8</ele>
        <time>2024-09-06T09:33:05Z</time>
      </trkpt>
      <trkpt lat="47.3313" lon="3.97237">
        <ele>351.3</ele>
        <time>2024-09-06T09:33:11.500Z</time>
      </trkpt>
      <trkpt lat="47.33135" lon="3.97235">
        <ele>351.8</ele>
        <time>2024-09-06T09:33:18Z</time>
      </trkpt>
      <trkpt lat="47.33141" lon="3.97232">
        <ele>352.3</ele>
        <time>2024-09-06T09:33:23.500Z</time>
      </trkpt>
      <trkpt lat="47.33146" lon="3.97228">
        <ele>352.4</ele>
        <time>2024-09-06T09:33:29Z</time>
      </trkpt>
      <trkpt lat="47.33151" lon="3.97224">
        <ele>352.5</ele>
        <time>2024-09-06T09:33:34.000Z</time>
      </trkpt>
      <trkpt lat="47.33156" lon="3.9722">
        <ele>352.4</ele>
        <time>2024-09-06T09:33:39Z</time>
      </trkpt>
      <trkpt lat="47.3316" lon="3.97214">
        <ele>352.5</ele>
        <time>2024-09-06T09:33:45.500Z</time>
      </trkpt>
      <trkpt lat="47.33163" lon="3.97208">
        <ele>352.6</ele>
        <time>2024-09-06T09:33:52Z</time>
      </trkpt>
      <trkpt lat="47.33168" lon="3.97204">
        <ele>352.6</ele>
        <time>2024-09-06T09:33:56.500Z</time>
      </trkpt>
      <trkpt lat="47.33172" lon="3.97199">
        <ele>352.3</ele>
        <time>2024-09-06T09:34:01Z</time>
      </trkpt>
      <trkpt lat="47.33177" lon="3.97194">
        <ele>352</ele>
        <time>2024-09-06T09:34:05.500Z</time>
      </trkpt>
      <trkpt lat="47.33181" lon="3.97189">
        <ele>351.7</ele>
        <time>2024-09-06T09:34:10Z</time>
      </trkpt>
      <trkpt lat="47.33186" lon="3.97185">
        <ele>351.5</ele>
        <time>2024-09-06T09:34:14.500Z</time>
      </trkpt>
      <trkpt lat="47.3319" lon="3.97181">
        <ele>351.4</ele>
        <time>2024-09-06T09:34:19Z</time>
      </trkpt>
      <trkpt lat="47.33194" lon="3.97176">
        <ele>351.4</ele>
        <time>2024-09-06T09:34:23.500Z</time>
      </trkpt>
      <trkpt lat="47.33197" lon="3.97171">
        <ele>351.4</ele>
        <time>2024-09-06T09:34:28Z</time>
      </trkpt>
      <trkpt lat="47.33201" lon="3.97167">
        <ele>351</ele>
        <time>2024-09-06T09:34:32.000Z</time>
      </trkpt>
      <trkpt lat="47.33205" lon="3.97163">
        <ele>350.6</ele>
        <time>2024-09-06T09:34:36Z</time>
      </trkpt>
      <trkpt lat="47.33209" lon="3.97158">
        <ele>350.3</ele>
        <time>2024-09-06T09:34:40.000Z</time>
      </trkpt>
      <trkpt lat="47.33212" lon="3.97152">
        <ele>350</ele>
        <time>2024-09-06T09:34:44Z</time>
      </trkpt>
      <trkpt lat="47.33216" lon="3.97147">
        <ele>349.7</ele>
        <time>2024-09-06T09:34:48.500Z</time>
      </trkpt>
      <trkpt lat="47.33219" lon="3.97142">
        <ele>349.4</ele>
        <time>2024-09-06T09:34:53Z</time>
      </trkpt>
      <trkpt lat="47.33223" lon="3.97137">
        <ele>349.1</ele>
        <time>2024-09-06T09:34:57.500Z</time>
      </trkpt>
      <trkpt lat="47.33226" lon="3.97132">
        <ele>348.9</ele>
        <time>2024-09-06T09:35:02Z</time>
      </trkpt>
      <trkpt lat="47.33229" lon="3.97126">
        <ele>348.7</ele>
        <time>2024-09-06T09:35:06.500Z</time>
      </trkpt>
      <trkpt lat="47.33232" lon="3.9712">
        <ele>348.5</ele>
        <time>2024-09-06T09:35:11Z</time>
      </trkpt>
      <trkpt lat="47.33234" lon="3.97113">
        <ele>348.4</ele>
        <time>2024-09-06T09:35:15.000Z</time>
      </trkpt>
      <trkpt lat="47.33236" lon="3.97106">
        <ele>348.4</ele>
        <time>2024-09-06T09:35:19Z</time>
      </trkpt>
      <trkpt lat="47.33237" lon="3.97099">
        <ele>348.7</ele>
        <time>2024-09-06T09:35:23.000Z</time>
      </trkpt>
      <trkpt lat="47.33238" lon="3.97092">
        <ele>349</ele>
        <time>2024-09-06T09:35:27Z</time>
      </trkpt>
      <trkpt lat="47.33239" lon="3.97084">
        <ele>349.3</ele>
        <time>2024-09-06T09:35:31.500Z</time>
      </trkpt>
      <trkpt lat="47.3324" lon="3.97076">
        <ele>349.3</ele>
        <time>2024-09-06T09:35:36Z</time>
      </trkpt>
      <trkpt lat="47.33242" lon="3.9707">
        <ele>349</ele>
        <time>2024-09-06T09:35:41.000Z</time>
      </trkpt>
      <trkpt lat="47.33243" lon="3.97063">
        <ele>348.7</ele>
        <time>2024-09-06T09:35:46Z</time>
      </trkpt>
      <trkpt lat="47.33245" lon="3.97052">
        <ele>348.6</ele>
        <time>2024-09-06T09:35:52.500Z</time>
      </trkpt>
      <trkpt lat="47.33246" lon="3.9704">
        <ele>348.9</ele>
        <time>2024-09-06T09:35:59Z</time>
      </trkpt>
      <trkpt lat="47.33251" lon="3.97032">
        <ele>348.7</ele>
        <time>2024-09-06T09:36:06.000Z</time>
      </trkpt>
      <trkpt lat="47.33256" lon="3.97024">
        <ele>349.2</ele>
        <time>2024-09-06T09:36:13Z</time>
      </trkpt>
      <trkpt lat="47.33263" lon="3.97021">
        <ele>349.4</ele>
        <time>2024-09-06T09:36:17.500Z</time>
      </trkpt>
      <trkpt lat="47.33269" lon="3.97018">
        <ele>349.6</ele>
        <time>2024-09-06T09:36:22Z</time>
      </trkpt>
      <trkpt lat="47.33274" lon="3.97016">
        <ele>349.8</ele>
        <time>2024-09-06T09:36:26.500Z</time>
      </trkpt>
      <trkpt lat="47.33279" lon="3.97013">
        <ele>350.1</ele>
        <time>2024-09-06T09:36:31Z</time>
      </trkpt>
      <trkpt lat="47.33284" lon="3.97013">
        <ele>350.3</ele>
        <time>2024-09-06T09:36:36.500Z</time>
      </trkpt>
      <trkpt lat="47.33288" lon="3.97012">
        <ele>350.4</ele>
        <time>2024-09-06T09:36:42Z</time>
      </trkpt>
      <trkpt lat="47.33293" lon="3.97011">
        <ele>350.6</ele>
        <time>2024-09-06T09:36:47.000Z</time>
      </trkpt>
      <trkpt lat="47.33298" lon="3.9701">
        <ele>350.8</ele>
        <time>2024-09-06T09:36:52Z</time>
      </trkpt>
      <trkpt lat="47.33303" lon="3.97009">
        <ele>351</ele>
        <time>2024-09-06T09:36:56.500Z</time>
      </trkpt>
      <trkpt lat="47.33308" lon="3.97008">
        <ele>351</ele>
        <time>2024-09-06T09:37:01Z</time>
      </trkpt>
      <trkpt lat="47.33314" lon="3.97005">
        <ele>350.9</ele>
        <time>2024-09-06T09:37:06.500Z</time>
      </trkpt>
      <trkpt lat="47.3332" lon="3.97002">
        <ele>350.8</ele>
        <time>2024-09-06T09:37:12Z</time>
      </trkpt>
      <trkpt lat="47.33325" lon="3.97001">
        <ele>350.5</ele>
        <time>2024-09-06T09:37:16.000Z</time>
      </trkpt>
      <trkpt lat="47.3333" lon="3.97">
        <ele>350.2</ele>
        <time>2024-09-06T09:37:20Z</time>
      </trkpt>
      <trkpt lat="47.33337" lon="3.96999">
        <ele>350.1</ele>
        <time>2024-09-06T09:37:25.500Z</time>
      </trkpt>
      <trkpt lat="47.33343" lon="3.96997">
        <ele>350.2</ele>
        <time>2024-09-06T09:37:31Z</time>
      </trkpt>
      <trkpt lat="47.33349" lon="3.96998">
        <ele>350.1</ele>
        <time>2024-09-06T09:37:35.500Z</time>
      </trkpt>
      <trkpt lat="47.33354" lon="3.96999">
        <ele>350.1</ele>
        <time>2024-09-06T09:37:40Z</time>
      </trkpt>
      <trkpt lat="47.33359" lon="3.97">
        <ele>350</ele>
        <time>2024-09-06T09:37:44.500Z</time>
      </trkpt>
      <trkpt lat="47.33364" lon="3.97">
        <ele>349.9</ele>
        <time>2024-09-06T09:37:49Z</time>
      </trkpt>
      <trkpt lat="47.3337" lon="3.96996">
        <ele>350</ele>
        <time>2024-09-06T09:38:14Z</time>
      </trkpt>
      <trkpt lat="47.33376" lon="3.96998">
        <ele>349.7</ele>
        <time>2024-09-06T09:38:19.500Z</time>
      </trkpt>
      <trkpt lat="47.33381" lon="3.97">
        <ele>349.3</ele>
        <time>2024-09-06T09:38:25Z</time>
      </trkpt>
      <trkpt lat="47.33387" lon="3.97002">
        <ele>348.9</ele>
        <time>2024-09-06T09:38:29.500Z</time>
      </trkpt>
      <trkpt lat="47.33393" lon="3.97004">
        <ele>349</ele>
        <time>2024-09-06T09:38:34Z</time>
      </trkpt>
      <trkpt lat="47.33399" lon="3.97007">
        <ele>349.1</ele>
        <time>2024-09-06T09:38:38.500Z</time>
      </trkpt>
      <trkpt lat="47.33404" lon="3.97009">
        <ele>349.1</ele>
        <time>2024-09-06T09:38:43Z</time>
      </trkpt>
      <trkpt lat="47.33409" lon="3.97011">
        <ele>349.1</ele>
        <time>2024-09-06T09:38:47.500Z</time>
      </trkpt>
      <trkpt lat="47.33414" lon="3.97013">
        <ele>349</ele>
        <time>2024-09-06T09:38:52Z</time>
      </trkpt>
      <trkpt lat="47.3342" lon="3.97016">
        <ele>348.9</ele>
        <time>2024-09-06T09:38:57.000Z</time>
      </trkpt>
      <trkpt lat="47.33425" lon="3.97018">
        <ele>348.9</ele>
        <time>2024-09-06T09:39:02Z</time>
      </trkpt>
      <trkpt lat="47.3343" lon="3.97021">
        <ele>348.8</ele>
        <time>2024-09-06T09:39:07.000Z</time>
      </trkpt>
      <trkpt lat="47.33435" lon="3.97024">
        <ele>348.8</ele>
        <time>2024-09-06T09:39:12Z</time>
      </trkpt>
      <trkpt lat="47.3344" lon="3.97027">
        <ele>348.8</ele>
        <time>2024-09-06T09:39:17.000Z</time>
      </trkpt>
      <trkpt lat="47.33445" lon="3.97029">
        <ele>349</ele>
        <time>2024-09-06T09:39:22Z</time>
      </trkpt>
      <trkpt lat="47.33452" lon="3.97031">
        <ele>349.5</ele>
        <time>2024-09-06T09:39:27.500Z</time>
      </trkpt>
      <trkpt lat="47.33458" lon="3.97032">
        <ele>350</ele>
        <time>2024-09-06T09:39:33Z</time>
      </trkpt>
      <trkpt lat="47.33464" lon="3.97036">
        <ele>350.2</ele>
        <time>2024-09-06T09:39:38.500Z</time>
      </trkpt>
      <trkpt lat="47.3347" lon="3.97039">
        <ele>350.2</ele>
        <time>2024-09-06T09:39:44Z</time>
      </trkpt>
      <trkpt lat="47.33476" lon="3.97042">
        <ele>350.2</ele>
        <time>2024-09-06T09:39:50.000Z</time>
      </trkpt>
      <trkpt lat="47.33482" lon="3.97044">
        <ele>350</ele>
        <time>2024-09-06T09:39:56Z</time>
      </trkpt>
      <trkpt lat="47.33488" lon="3.97048">
        <ele>349.7</ele>
        <time>2024-09-06T09:40:03.000Z</time>
      </trkpt>
      <trkpt lat="47.33494" lon="3.97052">
        <ele>349.3</ele>
        <time>2024-09-06T09:40:10Z</time>
      </trkpt>
      <trkpt lat="47.33499" lon="3.97055">
        <ele>349</ele>
        <time>2024-09-06T09:40:14.500Z</time>
      </trkpt>
      <trkpt lat="47.33503" lon="3.97058">
        <ele>348.7</ele>
        <time>2024-09-06T09:40:19Z</time>
      </trkpt>
      <trkpt lat="47.33509" lon="3.97059">
        <ele>348.8</ele>
        <time>2024-09-06T09:40:23.250Z</time>
      </trkpt>
      <trkpt lat="47.33515" lon="3.9706">
        <ele>348.9</ele>
        <time>2024-09-06T09:40:27.500Z</time>
      </trkpt>
      <trkpt lat="47.3352" lon="3.9706">
        <ele>348.9</ele>
        <time>2024-09-06T09:40:31.750Z</time>
      </trkpt>
      <trkpt lat="47.33526" lon="3.97061">
        <ele>349</ele>
        <time>2024-09-06T09:40:36Z</time>
      </trkpt>
      <trkpt lat="47.33531" lon="3.97064">
        <ele>348.6</ele>
        <time>2024-09-06T09:40:40.500Z</time>
      </trkpt>
      <trkpt lat="47.33536" lon="3.97067">
        <ele>348.2</ele>
        <time>2024-09-06T09:40:45Z</time>
      </trkpt>
      <trkpt lat="47.33541" lon="3.97069">
        <ele>348.1</ele>
        <time>2024-09-06T09:40:51.500Z</time>
      </trkpt>
      <trkpt lat="47.33546" lon="3.97071">
        <ele>347.9</ele>
        <time>2024-09-06T09:40:58Z</time>
      </trkpt>
      <trkpt lat="47.33551" lon="3.97072">
        <ele>348</ele>
        <time>2024-09-06T09:41:03.500Z</time>
      </trkpt>
      <trkpt lat="47.33556" lon="3.97072">
        <ele>348.1</ele>
        <time>2024-09-06T09:41:09Z</time>
      </trkpt>
      <trkpt lat="47.33562" lon="3.97074">
        <ele>348.1</ele>
        <time>2024-09-06T09:41:15.000Z</time>
      </trkpt>
      <trkpt lat="47.33568" lon="3.97076">
        <ele>348.2</ele>
        <time>2024-09-06T09:41:21Z</time>
      </trkpt>
      <trkpt lat="47.33573" lon="3.97078">
        <ele>348.2</ele>
        <time>2024-09-06T09:41:25.000Z</time>
      </trkpt>
      <trkpt lat="47.33578" lon="3.9708">
        <ele>348.2</ele>
        <time>2024-09-06T09:41:29.000Z</time>
      </trkpt>
      <trkpt lat="47.33583" lon="3.97082">
        <ele>348.2</ele>
        <time>2024-09-06T09:41:33.000Z</time>
      </trkpt>
      <trkpt lat="47.33588" lon="3.97084">
        <ele>348</ele>
        <time>2024-09-06T09:41:37Z</time>
      </trkpt>
      <trkpt lat="47.33596" lon="3.97083">
        <ele>348.5</ele>
        <time>2024-09-06T09:41:43.000Z</time>
      </trkpt>
      <trkpt lat="47.33603" lon="3.97082">
        <ele>349</ele>
        <time>2024-09-06T09:41:49Z</time>
      </trkpt>
      <trkpt lat="47.33609" lon="3.97085">
        <ele>348.7</ele>
        <time>2024-09-06T09:41:55.500Z</time>
      </trkpt>
      <trkpt lat="47.33615" lon="3.97087">
        <ele>348.5</ele>
        <time>2024-09-06T09:42:02Z</time>
      </trkpt>
      <trkpt lat="47.33622" lon="3.97091">
        <ele>348</ele>
        <time>2024-09-06T09:42:09.500Z</time>
      </trkpt>
      <trkpt lat="47.33628" lon="3.97094">
        <ele>347.4</ele>
        <time>2024-09-06T09:42:17Z</time>
      </trkpt>
      <trkpt lat="47.33635" lon="3.97097">
        <ele>347</ele>
        <time>2024-09-06T09:42:24.500Z</time>
      </trkpt>
      <trkpt lat="47.33641" lon="3.97099">
        <ele>346.4</ele>
        <time>2024-09-06T09:42:32Z</time>
      </trkpt>
      <trkpt lat="47.33649" lon="3.971">
        <ele>346.1</ele>
        <time>2024-09-06T09:42:39.000Z</time>
      </trkpt>
      <trkpt lat="47.33656" lon="3.971">
        <ele>345.8</ele>
        <time>2024-09-06T09:42:46Z</time>
      </trkpt>
      <trkpt lat="47.33661" lon="3.97101">
        <ele>345.6</ele>
        <time>2024-09-06T09:42:49.500Z</time>
      </trkpt>
      <trkpt lat="47.33666" lon="3.97101">
        <ele>345.3</ele>
        <time>2024-09-06T09:42:53.000Z</time>
      </trkpt>
      <trkpt lat="47.3367" lon="3.97102">
        <ele>345</ele>
        <time>2024-09-06T09:42:56.500Z</time>
      </trkpt>
      <trkpt lat="47.33675" lon="3.97102">
        <ele>344.7</ele>
        <time>2024-09-06T09:43:00Z</time>
      </trkpt>
      <trkpt lat="47.3368" lon="3.97103">
        <ele>344.2</ele>
        <time>2024-09-06T09:43:04.500Z</time>
      </trkpt>
      <trkpt lat="47.33685" lon="3.97104">
        <ele>343.7</ele>
        <time>2024-09-06T09:43:09.000Z</time>
      </trkpt>
      <trkpt lat="47.33689" lon="3.97105">
        <ele>343.2</ele>
        <time>2024-09-06T09:43:13.500Z</time>
      </trkpt>
      <trkpt lat="47.33694" lon="3.97106">
        <ele>342.7</ele>
        <time>2024-09-06T09:43:18Z</time>
      </trkpt>
      <trkpt lat="47.33699" lon="3.97107">
        <ele>342.2</ele>
        <time>2024-09-06T09:43:22.250Z</time>
      </trkpt>
      <trkpt lat="47.33703" lon="3.97107">
        <ele>341.8</ele>
        <time>2024-09-06T09:43:26.500Z</time>
      </trkpt>
      <trkpt lat="47.33708" lon="3.97108">
        <ele>341.3</ele>
        <time>2024-09-06T09:43:30.750Z</time>
      </trkpt>
      <trkpt lat="47.33712" lon="3.97108">
        <ele>340.8</ele>
        <time>2024-09-06T09:43:35Z</time>
      </trkpt>
      <trkpt lat="47.33721" lon="3.9711">
        <ele>339.5</ele>
        <time>2024-09-06T09:43:41.000Z</time>
      </trkpt>
      <trkpt lat="47.33729" lon="3.97112">
        <ele>338.3</ele>
        <time>2024-09-06T09:43:47Z</time>
      </trkpt>
      <trkpt lat="47.33737" lon="3.97113">
        <ele>337.5</ele>
        <time>2024-09-06T09:43:53.500Z</time>
      </trkpt>
      <trkpt lat="47.33744" lon="3.97114">
        <ele>336.7</ele>
        <time>2024-09-06T09:44:00Z</time>
      </trkpt>
      <trkpt lat="47.33751" lon="3.97117">
        <ele>335.5</ele>
        <time>2024-09-06T09:44:06.000Z</time>
      </trkpt>
      <trkpt lat="47.33758" lon="3.9712">
        <ele>334.8</ele>
        <time>2024-09-06T09:44:12Z</time>
      </trkpt>
      <trkpt lat="47.33766" lon="3.97124">
        <ele>333.9</ele>
        <time>2024-09-06T09:44:18.000Z</time>
      </trkpt>
      <trkpt lat="47.33773" lon="3.97127">
        <ele>333</ele>
        <time>2024-09-06T09:44:24Z</time>
      </trkpt>
      <trkpt lat="47.33781" lon="3.97133">
        <ele>331.5</ele>
        <time>2024-09-06T09:44:29.500Z</time>
      </trkpt>
      <trkpt lat="47.33788" lon="3.97139">
        <ele>330.4</ele>
        <time>2024-09-06T09:44:35Z</time>
      </trkpt>
      <trkpt lat="47.33792" lon="3.97142">
        <ele>330.5</ele>
        <time>2024-09-06T09:45:01Z</time>
      </trkpt>
      <trkpt lat="47.33793" lon="3.97147">
        <ele>330.4</ele>
        <time>2024-09-06T09:45:40Z</time>
      </trkpt>
      <trkpt lat="47.33792" lon="3.97158">
        <ele>330.2</ele>
        <time>2024-09-06T09:51:32Z</time>
      </trkpt>
      <trkpt lat="47.33791" lon="3.97159">
        <ele>330.1</ele>
        <time>2024-09-06T09:52:33Z</time>
      </trkpt>
      <trkpt lat="47.33791" lon="3.97169">
        <ele>330.1</ele>
        <time>2024-09-06T09:56:40Z</time>
      </trkpt>
      <trkpt lat="47.33787" lon="3.97178">
        <ele>330.5</ele>
        <time>2024-09-06T09:57:30.999Z</time>
      </trkpt>
      <trkpt lat="47.33783" lon="3.97187">
        <ele>331.2</ele>
        <time>2024-09-06T09:58:22Z</time>
      </trkpt>
      <trkpt lat="47.33781" lon="3.97194">
        <ele>331.7</ele>
        <time>2024-09-06T09:58:26.999Z</time>
      </trkpt>
      <trkpt lat="47.33779" lon="3.97201">
        <ele>331.5</ele>
        <time>2024-09-06T09:58:32Z</time>
      </trkpt>
      <trkpt lat="47.33778" lon="3.9721">
        <ele>330.9</ele>
        <time>2024-09-06T09:58:37.499Z</time>
      </trkpt>
      <trkpt lat="47.33777" lon="3.97218">
        <ele>330.3</ele>
        <time>2024-09-06T09:58:43Z</time>
      </trkpt>
      <trkpt lat="47.33775" lon="3.97227">
        <ele>330.1</ele>
        <time>2024-09-06T09:58:48.499Z</time>
      </trkpt>
      <trkpt lat="47.33772" lon="3.97236">
        <ele>330.2</ele>
        <time>2024-09-06T09:58:54Z</time>
      </trkpt>
      <trkpt lat="47.33771" lon="3.97243">
        <ele>330.2</ele>
        <time>2024-09-06T09:58:58.499Z</time>
      </trkpt>
      <trkpt lat="47.3377" lon="3.9725">
        <ele>330.3</ele>
        <time>2024-09-06T09:59:03Z</time>
      </trkpt>
      <trkpt lat="47.33765" lon="3.97258">
        <ele>330.6</ele>
        <time>2024-09-06T09:59:07.999Z</time>
      </trkpt>
      <trkpt lat="47.33759" lon="3.97266">
        <ele>330.9</ele>
        <time>2024-09-06T09:59:13Z</time>
      </trkpt>
      <trkpt lat="47.33754" lon="3.97269">
        <ele>331</ele>
        <time>2024-09-06T09:59:16.999Z</time>
      </trkpt>
      <trkpt lat="47.33749" lon="3.97272">
        <ele>331</ele>
        <time>2024-09-06T09:59:21Z</time>
      </trkpt>
      <trkpt lat="47.33744" lon="3.97274">
        <ele>331</ele>
        <time>2024-09-06T09:59:25.500Z</time>
      </trkpt>
      <trkpt lat="47.33738" lon="3.97275">
        <ele>331</ele>
        <time>2024-09-06T09:59:30Z</time>
      </trkpt>
      <trkpt lat="47.33733" lon="3.97277">
        <ele>331</ele>
        <time>2024-09-06T09:59:34.499Z</time>
      </trkpt>
      <trkpt lat="47.33727" lon="3.97279">
        <ele>331</ele>
        <time>2024-09-06T09:59:39Z</time>
      </trkpt>
      <trkpt lat="47.33723" lon="3.97283">
        <ele>331</ele>
        <time>2024-09-06T09:59:42.999Z</time>
      </trkpt>
      <trkpt lat="47.33718" lon="3.97287">
        <ele>331.1</ele>
        <time>2024-09-06T09:59:47Z</time>
      </trkpt>
      <trkpt lat="47.33714" lon="3.97292">
        <ele>331.1</ele>
        <time>2024-09-06T09:59:50.499Z</time>
      </trkpt>
      <trkpt lat="47.3371" lon="3.97296">
        <ele>331.3</ele>
        <time>2024-09-06T09:59:54Z</time>
      </trkpt>
      <trkpt lat="47.33706" lon="3.97301">
        <ele>331.5</ele>
        <time>2024-09-06T09:59:57.999Z</time>
      </trkpt>
      <trkpt lat="47.33702" lon="3.97305">
        <ele>331.7</ele>
        <time>2024-09-06T10:00:02Z</time>
      </trkpt>
      <trkpt lat="47.33696" lon="3.97309">
        <ele>332</ele>
        <time>2024-09-06T10:00:10Z</time>
      </trkpt>
      <trkpt lat="47.33692" lon="3.97313">
        <ele>332</ele>
        <time>2024-09-06T10:00:14.499Z</time>
      </trkpt>
      <trkpt lat="47.33687" lon="3.97317">
        <ele>332.1</ele>
        <time>2024-09-06T10:00:19Z</time>
      </trkpt>
      <trkpt lat="47.33684" lon="3.97322">
        <ele>332.2</ele>
        <time>2024-09-06T10:00:22.999Z</time>
      </trkpt>
      <trkpt lat="47.33681" lon="3.97327">
        <ele>332.4</ele>
        <time>2024-09-06T10:00:27Z</time>
      </trkpt>
      <trkpt lat="47.33678" lon="3.97332">
        <ele>332.6</ele>
        <time>2024-09-06T10:00:30.999Z</time>
      </trkpt>
      <trkpt lat="47.33674" lon="3.97336">
        <ele>332.7</ele>
        <time>2024-09-06T10:00:35Z</time>
      </trkpt>
      <trkpt lat="47.33667" lon="3.97344">
        <ele>333</ele>
        <time>2024-09-06T10:00:43Z</time>
      </trkpt>
      <trkpt lat="47.33663" lon="3.97348">
        <ele>333.1</ele>
        <time>2024-09-06T10:00:47.499Z</time>
      </trkpt>
      <trkpt lat="47.33659" lon="3.97352">
        <ele>333.2</ele>
        <time>2024-09-06T10:00:52Z</time>
      </trkpt>
      <trkpt lat="47.33654" lon="3.97354">
        <ele>333.4</ele>
        <time>2024-09-06T10:00:56.499Z</time>
      </trkpt>
      <trkpt lat="47.33648" lon="3.97356">
        <ele>333.5</ele>
        <time>2024-09-06T10:01:01Z</time>
      </trkpt>
      <trkpt lat="47.33644" lon="3.9736">
        <ele>333.8</ele>
        <time>2024-09-06T10:01:04.999Z</time>
      </trkpt>
      <trkpt lat="47.33639" lon="3.97363">
        <ele>334</ele>
        <time>2024-09-06T10:01:09Z</time>
      </trkpt>
      <trkpt lat="47.33632" lon="3.97365">
        <ele>334</ele>
        <time>2024-09-06T10:01:16Z</time>
      </trkpt>
      <trkpt lat="47.33624" lon="3.97369">
        <ele>334</ele>
        <time>2024-09-06T10:01:25Z</time>
      </trkpt>
      <trkpt lat="47.3362" lon="3.9737">
        <ele>334</ele>
        <time>2024-09-06T10:01:30.000Z</time>
      </trkpt>
      <trkpt lat="47.33615" lon="3.97371">
        <ele>334</ele>
        <time>2024-09-06T10:01:35Z</time>
      </trkpt>
      <trkpt lat="47.3361" lon="3.9737">
        <ele>334</ele>
        <time>2024-09-06T10:01:40.500Z</time>
      </trkpt>
      <trkpt lat="47.33604" lon="3.97368">
        <ele>334.1</ele>
        <time>2024-09-06T10:01:46Z</time>
      </trkpt>
      <trkpt lat="47.33596" lon="3.97365">
        <ele>334.1</ele>
        <time>2024-09-06T10:01:58Z</time>
      </trkpt>
      <trkpt lat="47.33589" lon="3.97364">
        <ele>334.1</ele>
        <time>2024-09-06T10:02:03.000Z</time>
      </trkpt>
      <trkpt lat="47.33582" lon="3.97363">
        <ele>334.1</ele>
        <time>2024-09-06T10:02:08Z</time>
      </trkpt>
      <trkpt lat="47.33575" lon="3.97362">
        <ele>334.3</ele>
        <time>2024-09-06T10:02:18Z</time>
      </trkpt>
      <trkpt lat="47.33577" lon="3.97359">
        <ele>334.2</ele>
        <time>2024-09-06T10:05:26Z</time>
      </trkpt>
      <trkpt lat="47.33575" lon="3.97368">
        <ele>334.5</ele>
        <time>2024-09-06T10:05:32.999Z</time>
      </trkpt>
      <trkpt lat="47.33573" lon="3.97377">
        <ele>334.9</ele>
        <time>2024-09-06T10:05:40Z</time>
      </trkpt>
      <trkpt lat="47.33573" lon="3.97387">
        <ele>335.3</ele>
        <time>2024-09-06T10:05:46.000Z</time>
      </trkpt>
      <trkpt lat="47.33573" lon="3.97397">
        <ele>335.4</ele>
        <time>2024-09-06T10:05:52Z</time>
      </trkpt>
      <trkpt lat="47.33573" lon="3.97406">
        <ele>335.4</ele>
        <time>2024-09-06T10:05:57.000Z</time>
      </trkpt>
      <trkpt lat="47.33573" lon="3.97414">
        <ele>335.4</ele>
        <time>2024-09-06T10:06:02Z</time>
      </trkpt>
      <trkpt lat="47.33574" lon="3.97422">
        <ele>335.4</ele>
        <time>2024-09-06T10:06:06.500Z</time>
      </trkpt>
      <trkpt lat="47.33574" lon="3.97429">
        <ele>335.3</ele>
        <time>2024-09-06T10:06:11Z</time>
      </trkpt>
      <trkpt lat="47.33573" lon="3.97437">
        <ele>335.4</ele>
        <time>2024-09-06T10:06:15.499Z</time>
      </trkpt>
      <trkpt lat="47.33571" lon="3.97444">
        <ele>335.4</ele>
        <time>2024-09-06T10:06:20Z</time>
      </trkpt>
      <trkpt lat="47.33569" lon="3.97453">
        <ele>335.5</ele>
        <time>2024-09-06T10:06:24.499Z</time>
      </trkpt>
      <trkpt lat="47.33567" lon="3.97461">
        <ele>335.6</ele>
        <time>2024-09-06T10:06:29Z</time>
      </trkpt>
      <trkpt lat="47.33565" lon="3.97469">
        <ele>335.7</ele>
        <time>2024-09-06T10:06:33.499Z</time>
      </trkpt>
      <trkpt lat="47.33562" lon="3.97477">
        <ele>335.8</ele>
        <time>2024-09-06T10:06:38Z</time>
      </trkpt>
      <trkpt lat="47.3356" lon="3.97485">
        <ele>335.8</ele>
        <time>2024-09-06T10:06:42.499Z</time>
      </trkpt>
      <trkpt lat="47.33558" lon="3.97492">
        <ele>335.9</ele>
        <time>2024-09-06T10:06:47Z</time>
      </trkpt>
      <trkpt lat="47.33557" lon="3.97501">
        <ele>336</ele>
        <time>2024-09-06T10:06:51.499Z</time>
      </trkpt>
      <trkpt lat="47.33555" lon="3.97509">
        <ele>336</ele>
        <time>2024-09-06T10:06:56Z</time>
      </trkpt>
      <trkpt lat="47.33553" lon="3.97518">
        <ele>336.1</ele>
        <time>2024-09-06T10:07:00.999Z</time>
      </trkpt>
      <trkpt lat="47.3355" lon="3.97526">
        <ele>336.2</ele>
        <time>2024-09-06T10:07:06Z</time>
      </trkpt>
      <trkpt lat="47.33549" lon="3.97533">
        <ele>336.3</ele>
        <time>2024-09-06T10:07:10.999Z</time>
      </trkpt>
      <trkpt lat="47.33547" lon="3.9754">
        <ele>336.3</ele>
        <time>2024-09-06T10:07:16Z</time>
      </trkpt>
      <trkpt lat="47.33545" lon="3.97548">
        <ele>336.4</ele>
        <time>2024-09-06T10:07:20.499Z</time>
      </trkpt>
      <trkpt lat="47.33542" lon="3.97555">
        <ele>336.5</ele>
        <time>2024-09-06T10:07:25Z</time>
      </trkpt>
      <trkpt lat="47.3354" lon="3.97564">
        <ele>336.8</ele>
        <time>2024-09-06T10:07:29.499Z</time>
      </trkpt>
      <trkpt lat="47.33537" lon="3.97573">
        <ele>337.1</ele>
        <time>2024-09-06T10:07:34Z</time>
      </trkpt>
      <trkpt lat="47.33535" lon="3.97582">
        <ele>337.4</ele>
        <time>2024-09-06T10:07:38.999Z</time>
      </trkpt>
      <trkpt lat="47.33533" lon="3.97591">
        <ele>337.7</ele>
        <time>2024-09-06T10:07:44Z</time>
      </trkpt>
      <trkpt lat="47.33529" lon="3.97601">
        <ele>338</ele>
        <time>2024-09-06T10:07:50.999Z</time>
      </trkpt>
      <trkpt lat="47.33524" lon="3.97611">
        <ele>338</ele>
        <time>2024-09-06T10:07:58Z</time>
      </trkpt>
      <trkpt lat="47.33521" lon="3.9762">
        <ele>338.7</ele>
        <time>2024-09-06T10:08:07.749Z</time>
      </trkpt>
      <trkpt lat="47.33518" lon="3.97628">
        <ele>339.4</ele>
        <time>2024-09-06T10:08:17.499Z</time>
      </trkpt>
      <trkpt lat="47.33515" lon="3.97637">
        <ele>340.2</ele>
        <time>2024-09-06T10:08:27.249Z</time>
      </trkpt>
      <trkpt lat="47.33512" lon="3.97645">
        <ele>341.3</ele>
        <time>2024-09-06T10:08:36.999Z</time>
      </trkpt>
      <trkpt lat="47.33509" lon="3.97654">
        <ele>342.4</ele>
        <time>2024-09-06T10:08:46.749Z</time>
      </trkpt>
      <trkpt lat="47.33506" lon="3.97662">
        <ele>343.5</ele>
        <time>2024-09-06T10:08:56.499Z</time>
      </trkpt>
      <trkpt lat="47.33503" lon="3.97671">
        <ele>344.7</ele>
        <time>2024-09-06T10:09:06.249Z</time>
      </trkpt>
      <trkpt lat="47.335" lon="3.97679">
        <ele>346.2</ele>
        <time>2024-09-06T10:09:16Z</time>
      </trkpt>
      <trkpt lat="47.33492" lon="3.97685">
        <ele>347</ele>
        <time>2024-09-06T10:09:24Z</time>
      </trkpt>
      <trkpt lat="47.33487" lon="3.97691">
        <ele>347.8</ele>
        <time>2024-09-06T10:09:29.499Z</time>
      </trkpt>
      <trkpt lat="47.33482" lon="3.97696">
        <ele>348.6</ele>
        <time>2024-09-06T10:09:35Z</time>
      </trkpt>
      <trkpt lat="47.33478" lon="3.977">
        <ele>348.9</ele>
        <time>2024-09-06T10:09:41.499Z</time>
      </trkpt>
      <trkpt lat="47.33473" lon="3.97704">
        <ele>349.1</ele>
        <time>2024-09-06T10:09:48Z</time>
      </trkpt>
      <trkpt lat="47.3347" lon="3.9771">
        <ele>349.6</ele>
        <time>2024-09-06T10:09:55.499Z</time>
      </trkpt>
      <trkpt lat="47.33466" lon="3.97716">
        <ele>350.2</ele>
        <time>2024-09-06T10:10:03Z</time>
      </trkpt>
      <trkpt lat="47.33462" lon="3.97721">
        <ele>350.8</ele>
        <time>2024-09-06T10:10:08.499Z</time>
      </trkpt>
      <trkpt lat="47.33457" lon="3.97726">
        <ele>351.6</ele>
        <time>2024-09-06T10:10:14Z</time>
      </trkpt>
      <trkpt lat="47.33453" lon="3.9773">
        <ele>352.1</ele>
        <time>2024-09-06T10:10:19.999Z</time>
      </trkpt>
      <trkpt lat="47.33448" lon="3.97733">
        <ele>352.6</ele>
        <time>2024-09-06T10:10:26Z</time>
      </trkpt>
      <trkpt lat="47.33444" lon="3.97738">
        <ele>353.2</ele>
        <time>2024-09-06T10:10:32.999Z</time>
      </trkpt>
      <trkpt lat="47.3344" lon="3.97742">
        <ele>353.6</ele>
        <time>2024-09-06T10:10:40Z</time>
      </trkpt>
      <trkpt lat="47.33437" lon="3.97747">
        <ele>354.2</ele>
        <time>2024-09-06T10:10:46.499Z</time>
      </trkpt>
      <trkpt lat="47.33433" lon="3.97752">
        <ele>354.9</ele>
        <time>2024-09-06T10:10:53Z</time>
      </trkpt>
      <trkpt lat="47.33428" lon="3.97758">
        <ele>355.6</ele>
        <time>2024-09-06T10:10:59.499Z</time>
      </trkpt>
      <trkpt lat="47.33422" lon="3.97763">
        <ele>356.4</ele>
        <time>2024-09-06T10:11:06Z</time>
      </trkpt>
      <trkpt lat="47.33415" lon="3.97769">
        <ele>357.5</ele>
        <time>2024-09-06T10:11:12.499Z</time>
      </trkpt>
      <trkpt lat="47.33407" lon="3.97774">
        <ele>359</ele>
        <time>2024-09-06T10:11:19Z</time>
      </trkpt>
      <trkpt lat="47.33403" lon="3.97775">
        <ele>359.4</ele>
        <time>2024-09-06T10:11:27.000Z</time>
      </trkpt>
      <trkpt lat="47.33398" lon="3.97775">
        <ele>359.8</ele>
        <time>2024-09-06T10:11:35Z</time>
      </trkpt>
      <trkpt lat="47.33393" lon="3.97776">
        <ele>360.2</ele>
        <time>2024-09-06T10:11:43.000Z</time>
      </trkpt>
      <trkpt lat="47.33388" lon="3.97776">
        <ele>360.6</ele>
        <time>2024-09-06T10:11:51Z</time>
      </trkpt>
      <trkpt lat="47.33384" lon="3.97778">
        <ele>361.2</ele>
        <time>2024-09-06T10:11:59.499Z</time>
      </trkpt>
      <trkpt lat="47.33379" lon="3.9778">
        <ele>361.8</ele>
        <time>2024-09-06T10:12:08Z</time>
      </trkpt>
      <trkpt lat="47.33375" lon="3.97782">
        <ele>362.4</ele>
        <time>2024-09-06T10:12:14.499Z</time>
      </trkpt>
      <trkpt lat="47.3337" lon="3.97784">
        <ele>362.9</ele>
        <time>2024-09-06T10:12:21Z</time>
      </trkpt>
      <trkpt lat="47.33365" lon="3.97789">
        <ele>363.8</ele>
        <time>2024-09-06T10:12:26.999Z</time>
      </trkpt>
      <trkpt lat="47.3336" lon="3.97793">
        <ele>364.7</ele>
        <time>2024-09-06T10:12:33Z</time>
      </trkpt>
      <trkpt lat="47.33356" lon="3.97797">
        <ele>365.3</ele>
        <time>2024-09-06T10:12:38.999Z</time>
      </trkpt>
      <trkpt lat="47.33351" lon="3.978">
        <ele>365.9</ele>
        <time>2024-09-06T10:12:45Z</time>
      </trkpt>
      <trkpt lat="47.33345" lon="3.97805">
        <ele>366.8</ele>
        <time>2024-09-06T10:12:51.499Z</time>
      </trkpt>
      <trkpt lat="47.33338" lon="3.97809">
        <ele>367.7</ele>
        <time>2024-09-06T10:12:58Z</time>
      </trkpt>
      <trkpt lat="47.33334" lon="3.97811">
        <ele>368.2</ele>
        <time>2024-09-06T10:13:03.999Z</time>
      </trkpt>
      <trkpt lat="47.33329" lon="3.97813">
        <ele>368.6</ele>
        <time>2024-09-06T10:13:10Z</time>
      </trkpt>
      <trkpt lat="47.33322" lon="3.9782">
        <ele>370.1</ele>
        <time>2024-09-06T10:13:25Z</time>
      </trkpt>
      <trkpt lat="47.33315" lon="3.97821">
        <ele>370.2</ele>
        <time>2024-09-06T10:13:32.500Z</time>
      </trkpt>
      <trkpt lat="47.33308" lon="3.97821">
        <ele>370.3</ele>
        <time>2024-09-06T10:13:40Z</time>
      </trkpt>
      <trkpt lat="47.33301" lon="3.97821">
        <ele>370.2</ele>
        <time>2024-09-06T10:13:46.500Z</time>
      </trkpt>
      <trkpt lat="47.33294" lon="3.97821">
        <ele>370.1</ele>
        <time>2024-09-06T10:13:53Z</time>
      </trkpt>
      <trkpt lat="47.33287" lon="3.97822">
        <ele>370.1</ele>
        <time>2024-09-06T10:13:59.500Z</time>
      </trkpt>
      <trkpt lat="47.3328" lon="3.97822">
        <ele>370</ele>
        <time>2024-09-06T10:14:06Z</time>
      </trkpt>
      <trkpt lat="47.33273" lon="3.97823">
        <ele>370.5</ele>
        <time>2024-09-06T10:14:12.500Z</time>
      </trkpt>
      <trkpt lat="47.33266" lon="3.97824">
        <ele>371.3</ele>
        <time>2024-09-06T10:14:19Z</time>
      </trkpt>
      <trkpt lat="47.33258" lon="3.9782">
        <ele>371.1</ele>
        <time>2024-09-06T10:14:31Z</time>
      </trkpt>
      <trkpt lat="47.33253" lon="3.97815">
        <ele>370.2</ele>
        <time>2024-09-06T10:14:36.499Z</time>
      </trkpt>
      <trkpt lat="47.33248" lon="3.9781">
        <ele>369.3</ele>
        <time>2024-09-06T10:14:42Z</time>
      </trkpt>
      <trkpt lat="47.33242" lon="3.97805">
        <ele>368.7</ele>
        <time>2024-09-06T10:14:47.999Z</time>
      </trkpt>
      <trkpt lat="47.33235" lon="3.97799">
        <ele>368.1</ele>
        <time>2024-09-06T10:14:54Z</time>
      </trkpt>
      <trkpt lat="47.33231" lon="3.97793">
        <ele>367.1</ele>
        <time>2024-09-06T10:14:59.499Z</time>
      </trkpt>
      <trkpt lat="47.33226" lon="3.97786">
        <ele>366.3</ele>
        <time>2024-09-06T10:15:05Z</time>
      </trkpt>
      <trkpt lat="47.33222" lon="3.9778">
        <ele>365.4</ele>
        <time>2024-09-06T10:15:10.999Z</time>
      </trkpt>
      <trkpt lat="47.33217" lon="3.97773">
        <ele>364.2</ele>
        <time>2024-09-06T10:15:17Z</time>
      </trkpt>
      <trkpt lat="47.3321" lon="3.97766">
        <ele>362.8</ele>
        <time>2024-09-06T10:15:22.499Z</time>
      </trkpt>
      <trkpt lat="47.33203" lon="3.97758">
        <ele>361.4</ele>
        <time>2024-09-06T10:15:28Z</time>
      </trkpt>
      <trkpt lat="47.33199" lon="3.97754">
        <ele>360.7</ele>
        <time>2024-09-06T10:15:33.499Z</time>
      </trkpt>
      <trkpt lat="47.33194" lon="3.9775">
        <ele>360</ele>
        <time>2024-09-06T10:15:39Z</time>
      </trkpt>
      <trkpt lat="47.33188" lon="3.97748">
        <ele>359.9</ele>
        <time>2024-09-06T10:15:45.499Z</time>
      </trkpt>
      <trkpt lat="47.33182" lon="3.97745">
        <ele>359.7</ele>
        <time>2024-09-06T10:15:52Z</time>
      </trkpt>
      <trkpt lat="47.33178" lon="3.97739">
        <ele>358.6</ele>
        <time>2024-09-06T10:15:58.499Z</time>
      </trkpt>
      <trkpt lat="47.33174" lon="3.97733">
        <ele>357.3</ele>
        <time>2024-09-06T10:16:05Z</time>
      </trkpt>
      <trkpt lat="47.33169" lon="3.97725">
        <ele>355.6</ele>
        <time>2024-09-06T10:16:10.999Z</time>
      </trkpt>
      <trkpt lat="47.33164" lon="3.97717">
        <ele>353.7</ele>
        <time>2024-09-06T10:16:17Z</time>
      </trkpt>
      <trkpt lat="47.33159" lon="3.97713">
        <ele>352.6</ele>
        <time>2024-09-06T10:16:22.499Z</time>
      </trkpt>
      <trkpt lat="47.33154" lon="3.97708">
        <ele>351.4</ele>
        <time>2024-09-06T10:16:28Z</time>
      </trkpt>
      <trkpt lat="47.33149" lon="3.97706">
        <ele>350.9</ele>
        <time>2024-09-06T10:16:33.499Z</time>
      </trkpt>
      <trkpt lat="47.33143" lon="3.97704">
        <ele>350.4</ele>
        <time>2024-09-06T10:16:39Z</time>
      </trkpt>
      <trkpt lat="47.33138" lon="3.97699">
        <ele>348.8</ele>
        <time>2024-09-06T10:16:45.499Z</time>
      </trkpt>
      <trkpt lat="47.33132" lon="3.97693">
        <ele>346.9</ele>
        <time>2024-09-06T10:16:52Z</time>
      </trkpt>
      <trkpt lat="47.33126" lon="3.97685">
        <ele>345.3</ele>
        <time>2024-09-06T10:17:04Z</time>
      </trkpt>
      <trkpt lat="47.33121" lon="3.97683">
        <ele>344.5</ele>
        <time>2024-09-06T10:17:11.499Z</time>
      </trkpt>
      <trkpt lat="47.33116" lon="3.97681">
        <ele>343.7</ele>
        <time>2024-09-06T10:17:19Z</time>
      </trkpt>
      <trkpt lat="47.3311" lon="3.97675">
        <ele>342.6</ele>
        <time>2024-09-06T10:17:57.749Z</time>
      </trkpt>
      <trkpt lat="47.33105" lon="3.97669">
        <ele>342.1</ele>
        <time>2024-09-06T10:18:36.499Z</time>
      </trkpt>
      <trkpt lat="47.33099" lon="3.97662">
        <ele>342</ele>
        <time>2024-09-06T10:19:15.249Z</time>
      </trkpt>
      <trkpt lat="47.33093" lon="3.97656">
        <ele>342</ele>
        <time>2024-09-06T10:19:54Z</time>
      </trkpt>
      <trkpt lat="47.33097" lon="3.97659">
        <ele>342</ele>
        <time>2024-09-06T10:23:38.500Z</time>
      </trkpt>
      <trkpt lat="47.33101" lon="3.97663">
        <ele>342</ele>
        <time>2024-09-06T10:27:23.000Z</time>
      </trkpt>
      <trkpt lat="47.33105" lon="3.97666">
        <ele>342</ele>
        <time>2024-09-06T10:31:07.500Z</time>
      </trkpt>
      <trkpt lat="47.33109" lon="3.9767">
        <ele>342.2</ele>
        <time>2024-09-06T10:34:52.000Z</time>
      </trkpt>
      <trkpt lat="47.33113" lon="3.97673">
        <ele>342.7</ele>
        <time>2024-09-06T10:38:36.500Z</time>
      </trkpt>
      <trkpt lat="47.33117" lon="3.97676">
        <ele>343.4</ele>
        <time>2024-09-06T10:42:21.000Z</time>
      </trkpt>
      <trkpt lat="47.33121" lon="3.9768">
        <ele>344.2</ele>
        <time>2024-09-06T10:46:05.500Z</time>
      </trkpt>
      <trkpt lat="47.33125" lon="3.97683">
        <ele>345</ele>
        <time>2024-09-06T10:49:50Z</time>
      </trkpt>
      <trkpt lat="47.3312" lon="3.97682">
        <ele>344.2</ele>
        <time>2024-09-06T10:53:52.499Z</time>
      </trkpt>
      <trkpt lat="47.33114" lon="3.97681">
        <ele>343.4</ele>
        <time>2024-09-06T10:57:55Z</time>
      </trkpt>
      <trkpt lat="47.33118" lon="3.97687">
        <ele>344.4</ele>
        <time>2024-09-06T11:01:57Z</time>
      </trkpt>
      <trkpt lat="47.33114" lon="3.97697">
        <ele>344.8</ele>
        <time>2024-09-06T11:02:03.499Z</time>
      </trkpt>
      <trkpt lat="47.33109" lon="3.97706">
        <ele>346.2</ele>
        <time>2024-09-06T11:02:10Z</time>
      </trkpt>
      <trkpt lat="47.33106" lon="3.97712">
        <ele>346.6</ele>
        <time>2024-09-06T11:02:15.499Z</time>
      </trkpt>
      <trkpt lat="47.33103" lon="3.97717">
        <ele>346.9</ele>
        <time>2024-09-06T11:02:21Z</time>
      </trkpt>
      <trkpt lat="47.33099" lon="3.97722">
        <ele>346.3</ele>
        <time>2024-09-06T11:02:26.499Z</time>
      </trkpt>
      <trkpt lat="47.33094" lon="3.97727">
        <ele>346</ele>
        <time>2024-09-06T11:02:32Z</time>
      </trkpt>
      <trkpt lat="47.33091" lon="3.97739">
        <ele>347.3</ele>
        <time>2024-09-06T11:02:41Z</time>
      </trkpt>
      <trkpt lat="47.33087" lon="3.97749">
        <ele>347.1</ele>
        <time>2024-09-06T11:02:47.999Z</time>
      </trkpt>
      <trkpt lat="47.33082" lon="3.97758">
        <ele>347.2</ele>
        <time>2024-09-06T11:02:55Z</time>
      </trkpt>
      <trkpt lat="47.33078" lon="3.97767">
        <ele>347.8</ele>
        <time>2024-09-06T11:03:00.999Z</time>
      </trkpt>
      <trkpt lat="47.33074" lon="3.97775">
        <ele>348</ele>
        <time>2024-09-06T11:03:07Z</time>
      </trkpt>
      <trkpt lat="47.33068" lon="3.97783">
        <ele>347.8</ele>
        <time>2024-09-06T11:03:21Z</time>
      </trkpt>
      <trkpt lat="47.33063" lon="3.97791">
        <ele>348</ele>
        <time>2024-09-06T11:03:27.999Z</time>
      </trkpt>
      <trkpt lat="47.33057" lon="3.97799">
        <ele>348</ele>
        <time>2024-09-06T11:03:35Z</time>
      </trkpt>
      <trkpt lat="47.33052" lon="3.97803">
        <ele>347.9</ele>
        <time>2024-09-06T11:03:41.499Z</time>
      </trkpt>
      <trkpt lat="47.33047" lon="3.97807">
        <ele>347.8</ele>
        <time>2024-09-06T11:03:48Z</time>
      </trkpt>
      <trkpt lat="47.33043" lon="3.97815">
        <ele>348.7</ele>
        <time>2024-09-06T11:03:54.499Z</time>
      </trkpt>
      <trkpt lat="47.33038" lon="3.97823">
        <ele>349.3</ele>
        <time>2024-09-06T11:04:01Z</time>
      </trkpt>
      <trkpt lat="47.33033" lon="3.9783">
        <ele>349</ele>
        <time>2024-09-06T11:04:05.999Z</time>
      </trkpt>
      <trkpt lat="47.33027" lon="3.97837">
        <ele>348.7</ele>
        <time>2024-09-06T11:04:11Z</time>
      </trkpt>
      <trkpt lat="47.33023" lon="3.97841">
        <ele>348.7</ele>
        <time>2024-09-06T11:04:15.999Z</time>
      </trkpt>
      <trkpt lat="47.33018" lon="3.97845">
        <ele>348.7</ele>
        <time>2024-09-06T11:04:21Z</time>
      </trkpt>
      <trkpt lat="47.33014" lon="3.9785">
        <ele>348.5</ele>
        <time>2024-09-06T11:04:27.999Z</time>
      </trkpt>
      <trkpt lat="47.33009" lon="3.97854">
        <ele>348.3</ele>
        <time>2024-09-06T11:04:35Z</time>
      </trkpt>
      <trkpt lat="47.33003" lon="3.97858">
        <ele>347.3</ele>
        <time>2024-09-06T11:04:41.499Z</time>
      </trkpt>
      <trkpt lat="47.32997" lon="3.97861">
        <ele>346.7</ele>
        <time>2024-09-06T11:04:48Z</time>
      </trkpt>
      <trkpt lat="47.32992" lon="3.97866">
        <ele>347.2</ele>
        <time>2024-09-06T11:04:53.999Z</time>
      </trkpt>
      <trkpt lat="47.32986" lon="3.97871">
        <ele>347.4</ele>
        <time>2024-09-06T11:05:00Z</time>
      </trkpt>
      <trkpt lat="47.32981" lon="3.97876">
        <ele>347.5</ele>
        <time>2024-09-06T11:05:06.999Z</time>
      </trkpt>
      <trkpt lat="47.32976" lon="3.9788">
        <ele>347.4</ele>
        <time>2024-09-06T11:05:14Z</time>
      </trkpt>
      <trkpt lat="47.3297" lon="3.97883">
        <ele>347</ele>
        <time>2024-09-06T11:05:21.999Z</time>
      </trkpt>
      <trkpt lat="47.32964" lon="3.97886">
        <ele>346.8</ele>
        <time>2024-09-06T11:05:30Z</time>
      </trkpt>
      <trkpt lat="47.32959" lon="3.97897">
        <ele>348.3</ele>
        <time>2024-09-06T11:05:44Z</time>
      </trkpt>
      <trkpt lat="47.32954" lon="3.97905">
        <ele>349.3</ele>
        <time>2024-09-06T11:05:58Z</time>
      </trkpt>
      <trkpt lat="47.32949" lon="3.97915">
        <ele>350.4</ele>
        <time>2024-09-06T11:06:06.499Z</time>
      </trkpt>
      <trkpt lat="47.32943" lon="3.97925">
        <ele>351.6</ele>
        <time>2024-09-06T11:06:15Z</time>
      </trkpt>
      <trkpt lat="47.32939" lon="3.97931">
        <ele>352.3</ele>
        <time>2024-09-06T11:06:19.749Z</time>
      </trkpt>
      <trkpt lat="47.32934" lon="3.97937">
        <ele>353</ele>
        <time>2024-09-06T11:06:24.499Z</time>
      </trkpt>
      <trkpt lat="47.3293" lon="3.97943">
        <ele>353.6</ele>
        <time>2024-09-06T11:06:29.249Z</time>
      </trkpt>
      <trkpt lat="47.32925" lon="3.97949">
        <ele>354.5</ele>
        <time>2024-09-06T11:06:34Z</time>
      </trkpt>
      <trkpt lat="47.32922" lon="3.97954">
        <ele>355.5</ele>
        <time>2024-09-06T11:06:39.999Z</time>
      </trkpt>
      <trkpt lat="47.32919" lon="3.97959">
        <ele>356.5</ele>
        <time>2024-09-06T11:06:46Z</time>
      </trkpt>
      <trkpt lat="47.32915" lon="3.97963">
        <ele>357</ele>
        <time>2024-09-06T11:06:51.499Z</time>
      </trkpt>
      <trkpt lat="47.32911" lon="3.97967">
        <ele>357.3</ele>
        <time>2024-09-06T11:06:57Z</time>
      </trkpt>
      <trkpt lat="47.32904" lon="3.97968">
        <ele>356</ele>
        <time>2024-09-06T11:07:06.500Z</time>
      </trkpt>
      <trkpt lat="47.32896" lon="3.97969">
        <ele>354.7</ele>
        <time>2024-09-06T11:07:16Z</time>
      </trkpt>
      <trkpt lat="47.32892" lon="3.9797">
        <ele>353.9</ele>
        <time>2024-09-06T11:07:21.500Z</time>
      </trkpt>
      <trkpt lat="47.32887" lon="3.9797">
        <ele>353.3</ele>
        <time>2024-09-06T11:07:27Z</time>
      </trkpt>
      <trkpt lat="47.32879" lon="3.97972">
        <ele>352.9</ele>
        <time>2024-09-06T11:07:32.999Z</time>
      </trkpt>
      <trkpt lat="47.32871" lon="3.97974">
        <ele>352.6</ele>
        <time>2024-09-06T11:07:39Z</time>
      </trkpt>
      <trkpt lat="47.32864" lon="3.97977">
        <ele>352.6</ele>
        <time>2024-09-06T11:07:46.499Z</time>
      </trkpt>
      <trkpt lat="47.32856" lon="3.97979">
        <ele>352.6</ele>
        <time>2024-09-06T11:07:54Z</time>
      </trkpt>
      <trkpt lat="47.32851" lon="3.9798">
        <ele>352.1</ele>
        <time>2024-09-06T11:08:00.000Z</time>
      </trkpt>
      <trkpt lat="47.32845" lon="3.9798">
        <ele>351.6</ele>
        <time>2024-09-06T11:08:06Z</time>
      </trkpt>
      <trkpt lat="47.32839" lon="3.97982">
        <ele>351.4</ele>
        <time>2024-09-06T11:08:10.499Z</time>
      </trkpt>
      <trkpt lat="47.32833" lon="3.97984">
        <ele>351.2</ele>
        <time>2024-09-06T11:08:14.999Z</time>
      </trkpt>
      <trkpt lat="47.32826" lon="3.97985">
        <ele>351.5</ele>
        <time>2024-09-06T11:08:19.499Z</time>
      </trkpt>
      <trkpt lat="47.3282" lon="3.97987">
        <ele>351.7</ele>
        <time>2024-09-06T11:08:24Z</time>
      </trkpt>
      <trkpt lat="47.32812" lon="3.9799">
        <ele>352</ele>
        <time>2024-09-06T11:08:31.499Z</time>
      </trkpt>
      <trkpt lat="47.32804" lon="3.97992">
        <ele>352.2</ele>
        <time>2024-09-06T11:08:39Z</time>
      </trkpt>
      <trkpt lat="47.32796" lon="3.97992">
        <ele>351.5</ele>
        <time>2024-09-06T11:08:46.000Z</time>
      </trkpt>
      <trkpt lat="47.32788" lon="3.97992">
        <ele>350.9</ele>
        <time>2024-09-06T11:08:53Z</time>
      </trkpt>
      <trkpt lat="47.3279" lon="3.97999">
        <ele>352.2</ele>
        <time>2024-09-06T11:09:13Z</time>
      </trkpt>
      <trkpt lat="47.32786" lon="3.98004">
        <ele>352.9</ele>
        <time>2024-09-06T11:09:18.999Z</time>
      </trkpt>
      <trkpt lat="47.32782" lon="3.98008">
        <ele>353.8</ele>
        <time>2024-09-06T11:09:25Z</time>
      </trkpt>
      <trkpt lat="47.32775" lon="3.98009">
        <ele>353.2</ele>
        <time>2024-09-06T11:09:31.000Z</time>
      </trkpt>
      <trkpt lat="47.32767" lon="3.98009">
        <ele>352.7</ele>
        <time>2024-09-06T11:09:37Z</time>
      </trkpt>
      <trkpt lat="47.3276" lon="3.98007">
        <ele>351.7</ele>
        <time>2024-09-06T11:09:45.999Z</time>
      </trkpt>
      <trkpt lat="47.32752" lon="3.98005">
        <ele>350.8</ele>
        <time>2024-09-06T11:09:55Z</time>
      </trkpt>
      <trkpt lat="47.32756" lon="3.97999">
        <ele>350.2</ele>
        <time>2024-09-06T11:10:09Z</time>
      </trkpt>
      <trkpt lat="47.32755" lon="3.98006">
        <ele>351.1</ele>
        <time>2024-09-06T11:10:13.999Z</time>
      </trkpt>
      <trkpt lat="47.32753" lon="3.98012">
        <ele>352</ele>
        <time>2024-09-06T11:10:19Z</time>
      </trkpt>
      <trkpt lat="47.3275" lon="3.98019">
        <ele>352.7</ele>
        <time>2024-09-06T11:10:24.499Z</time>
      </trkpt>
      <trkpt lat="47.32747" lon="3.98025">
        <ele>353.2</ele>
        <time>2024-09-06T11:10:30Z</time>
      </trkpt>
      <trkpt lat="47.32743" lon="3.98034">
        <ele>354.8</ele>
        <time>2024-09-06T11:10:36.499Z</time>
      </trkpt>
      <trkpt lat="47.32738" lon="3.98042">
        <ele>356.5</ele>
        <time>2024-09-06T11:10:43Z</time>
      </trkpt>
      <trkpt lat="47.32733" lon="3.98049">
        <ele>357.2</ele>
        <time>2024-09-06T11:10:47.999Z</time>
      </trkpt>
      <trkpt lat="47.32728" lon="3.98055">
        <ele>357.5</ele>
        <time>2024-09-06T11:10:53Z</time>
      </trkpt>
      <trkpt lat="47.32722" lon="3.98059">
        <ele>357.3</ele>
        <time>2024-09-06T11:10:56.999Z</time>
      </trkpt>
      <trkpt lat="47.32716" lon="3.98063">
        <ele>357.5</ele>
        <time>2024-09-06T11:11:01Z</time>
      </trkpt>
      <trkpt lat="47.32711" lon="3.98069">
        <ele>357.8</ele>
        <time>2024-09-06T11:11:06.499Z</time>
      </trkpt>
      <trkpt lat="47.32705" lon="3.98074">
        <ele>357.7</ele>
        <time>2024-09-06T11:11:12Z</time>
      </trkpt>
      <trkpt lat="47.327" lon="3.98082">
        <ele>357.8</ele>
        <time>2024-09-06T11:11:17.499Z</time>
      </trkpt>
      <trkpt lat="47.32695" lon="3.98089">
        <ele>358.1</ele>
        <time>2024-09-06T11:11:23Z</time>
      </trkpt>
      <trkpt lat="47.32689" lon="3.98098">
        <ele>359.3</ele>
        <time>2024-09-06T11:11:35Z</time>
      </trkpt>
      <trkpt lat="47.32683" lon="3.98099">
        <ele>357.9</ele>
        <time>2024-09-06T11:11:42.500Z</time>
      </trkpt>
      <trkpt lat="47.32677" lon="3.981">
        <ele>356.4</ele>
        <time>2024-09-06T11:11:50Z</time>
      </trkpt>
      <trkpt lat="47.32669" lon="3.98103">
        <ele>354.5</ele>
        <time>2024-09-06T11:12:08Z</time>
      </trkpt>
      <trkpt lat="47.32665" lon="3.98105">
        <ele>353.9</ele>
        <time>2024-09-06T11:12:14.999Z</time>
      </trkpt>
      <trkpt lat="47.3266" lon="3.98106">
        <ele>353.9</ele>
        <time>2024-09-06T11:12:22Z</time>
      </trkpt>
      <trkpt lat="47.32655" lon="3.98106">
        <ele>353.6</ele>
        <time>2024-09-06T11:12:25.750Z</time>
      </trkpt>
      <trkpt lat="47.3265" lon="3.98106">
        <ele>353.3</ele>
        <time>2024-09-06T11:12:29.500Z</time>
      </trkpt>
      <trkpt lat="47.32645" lon="3.98106">
        <ele>353</ele>
        <time>2024-09-06T11:12:33.250Z</time>
      </trkpt>
      <trkpt lat="47.3264" lon="3.98106">
        <ele>352.7</ele>
        <time>2024-09-06T11:12:37Z</time>
      </trkpt>
      <trkpt lat="47.32636" lon="3.98107">
        <ele>352.8</ele>
        <time>2024-09-06T11:12:39.750Z</time>
      </trkpt>
      <trkpt lat="47.32631" lon="3.98108">
        <ele>353.1</ele>
        <time>2024-09-06T11:12:42.500Z</time>
      </trkpt>
      <trkpt lat="47.32627" lon="3.98109">
        <ele>353.3</ele>
        <time>2024-09-06T11:12:45.250Z</time>
      </trkpt>
      <trkpt lat="47.32622" lon="3.9811">
        <ele>353.5</ele>
        <time>2024-09-06T11:12:48Z</time>
      </trkpt>
      <trkpt lat="47.32615" lon="3.9811">
        <ele>353.8</ele>
        <time>2024-09-06T11:12:53.000Z</time>
      </trkpt>
      <trkpt lat="47.32608" lon="3.9811">
        <ele>354.1</ele>
        <time>2024-09-06T11:12:58Z</time>
      </trkpt>
      <trkpt lat="47.32603" lon="3.98111">
        <ele>354.6</ele>
        <time>2024-09-06T11:13:02.500Z</time>
      </trkpt>
      <trkpt lat="47.32598" lon="3.98112">
        <ele>355.1</ele>
        <time>2024-09-06T11:13:07Z</time>
      </trkpt>
      <trkpt lat="47.32592" lon="3.98114">
        <ele>355.8</ele>
        <time>2024-09-06T11:13:11.999Z</time>
      </trkpt>
      <trkpt lat="47.32585" lon="3.98116">
        <ele>356.4</ele>
        <time>2024-09-06T11:13:17Z</time>
      </trkpt>
      <trkpt lat="47.32579" lon="3.98118">
        <ele>357.3</ele>
        <time>2024-09-06T11:13:22.500Z</time>
      </trkpt>
      <trkpt lat="47.32572" lon="3.98119">
        <ele>358.2</ele>
        <time>2024-09-06T11:13:28Z</time>
      </trkpt>
      <trkpt lat="47.32571" lon="3.98118">
        <ele>358.2</ele>
        <time>2024-09-06T11:14:11Z</time>
      </trkpt>
      <trkpt lat="47.32569" lon="3.98115">
        <ele>358</ele>
        <time>2024-09-06T11:14:39Z</time>
      </trkpt>
      <trkpt lat="47.32564" lon="3.98109">
        <ele>357.7</ele>
        <time>2024-09-06T11:14:59Z</time>
      </trkpt>
      <trkpt lat="47.32559" lon="3.98106">
        <ele>357.5</ele>
        <time>2024-09-06T11:15:04.499Z</time>
      </trkpt>
      <trkpt lat="47.32553" lon="3.98102">
        <ele>357.3</ele>
        <time>2024-09-06T11:15:10Z</time>
      </trkpt>
      <trkpt lat="47.32548" lon="3.98098">
        <ele>357.1</ele>
        <time>2024-09-06T11:15:14.499Z</time>
      </trkpt>
      <trkpt lat="47.32543" lon="3.98094">
        <ele>357.1</ele>
        <time>2024-09-06T11:15:18.999Z</time>
      </trkpt>
      <trkpt lat="47.32537" lon="3.9809">
        <ele>357.3</ele>
        <time>2024-09-06T11:15:23.499Z</time>
      </trkpt>
      <trkpt lat="47.32532" lon="3.98086">
        <ele>357.6</ele>
        <time>2024-09-06T11:15:28Z</time>
      </trkpt>
      <trkpt lat="47.32526" lon="3.98083">
        <ele>358</ele>
        <time>2024-09-06T11:15:34.499Z</time>
      </trkpt>
      <trkpt lat="47.32519" lon="3.9808">
        <ele>357.9</ele>
        <time>2024-09-06T11:15:41Z</time>
      </trkpt>
      <trkpt lat="47.32511" lon="3.9808">
        <ele>358.2</ele>
        <time>2024-09-06T11:15:47.500Z</time>
      </trkpt>
      <trkpt lat="47.32503" lon="3.98079">
        <ele>358.5</ele>
        <time>2024-09-06T11:15:54Z</time>
      </trkpt>
      <trkpt lat="47.32497" lon="3.98078">
        <ele>358.8</ele>
        <time>2024-09-06T11:15:59.000Z</time>
      </trkpt>
      <trkpt lat="47.32491" lon="3.98078">
        <ele>358.9</ele>
        <time>2024-09-06T11:16:04.000Z</time>
      </trkpt>
      <trkpt lat="47.32484" lon="3.98077">
        <ele>359.1</ele>
        <time>2024-09-06T11:16:09.000Z</time>
      </trkpt>
      <trkpt lat="47.32478" lon="3.98076">
        <ele>359.3</ele>
        <time>2024-09-06T11:16:14Z</time>
      </trkpt>
      <trkpt lat="47.32474" lon="3.98077">
        <ele>359.5</ele>
        <time>2024-09-06T11:16:19.500Z</time>
      </trkpt>
      <trkpt lat="47.32469" lon="3.98077">
        <ele>359.5</ele>
        <time>2024-09-06T11:16:25Z</time>
      </trkpt>
      <trkpt lat="47.32461" lon="3.98079">
        <ele>359.3</ele>
        <time>2024-09-06T11:16:32.999Z</time>
      </trkpt>
      <trkpt lat="47.32453" lon="3.98081">
        <ele>359.2</ele>
        <time>2024-09-06T11:16:41Z</time>
      </trkpt>
      <trkpt lat="47.32448" lon="3.98085">
        <ele>359.5</ele>
        <time>2024-09-06T11:16:47.999Z</time>
      </trkpt>
      <trkpt lat="47.32443" lon="3.98089">
        <ele>360.4</ele>
        <time>2024-09-06T11:16:55Z</time>
      </trkpt>
      <trkpt lat="47.32436" lon="3.9809">
        <ele>360.3</ele>
        <time>2024-09-06T11:17:02.500Z</time>
      </trkpt>
      <trkpt lat="47.32428" lon="3.9809">
        <ele>360.3</ele>
        <time>2024-09-06T11:17:10Z</time>
      </trkpt>
      <trkpt lat="47.32421" lon="3.98094">
        <ele>360.6</ele>
        <time>2024-09-06T11:17:16.999Z</time>
      </trkpt>
      <trkpt lat="47.32413" lon="3.98097">
        <ele>360.7</ele>
        <time>2024-09-06T11:17:24Z</time>
      </trkpt>
      <trkpt lat="47.32407" lon="3.98102">
        <ele>360.8</ele>
        <time>2024-09-06T11:17:28.499Z</time>
      </trkpt>
      <trkpt lat="47.32402" lon="3.98106">
        <ele>360.8</ele>
        <time>2024-09-06T11:17:32.999Z</time>
      </trkpt>
      <trkpt lat="47.32396" lon="3.98111">
        <ele>360.7</ele>
        <time>2024-09-06T11:17:37.499Z</time>
      </trkpt>
      <trkpt lat="47.3239" lon="3.98115">
        <ele>361.1</ele>
        <time>2024-09-06T11:17:42Z</time>
      </trkpt>
      <trkpt lat="47.32386" lon="3.98122">
        <ele>362.2</ele>
        <time>2024-09-06T11:17:48.499Z</time>
      </trkpt>
      <trkpt lat="47.32381" lon="3.98129">
        <ele>362.9</ele>
        <time>2024-09-06T11:17:55Z</time>
      </trkpt>
      <trkpt lat="47.32377" lon="3.98136">
        <ele>363.5</ele>
        <time>2024-09-06T11:18:02.499Z</time>
      </trkpt>
      <trkpt lat="47.32373" lon="3.98143">
        <ele>364.2</ele>
        <time>2024-09-06T11:18:10Z</time>
      </trkpt>
      <trkpt lat="47.32369" lon="3.98149">
        <ele>364.7</ele>
        <time>2024-09-06T11:18:16.999Z</time>
      </trkpt>
      <trkpt lat="47.32364" lon="3.98155">
        <ele>365</ele>
        <time>2024-09-06T11:18:24Z</time>
      </trkpt>
      <trkpt lat="47.32363" lon="3.98162">
        <ele>366.5</ele>
        <time>2024-09-06T11:18:33.999Z</time>
      </trkpt>
      <trkpt lat="47.32362" lon="3.98169">
        <ele>368.1</ele>
        <time>2024-09-06T11:18:44Z</time>
      </trkpt>
      <trkpt lat="47.32359" lon="3.98175">
        <ele>368.5</ele>
        <time>2024-09-06T11:18:50.499Z</time>
      </trkpt>
      <trkpt lat="47.32355" lon="3.9818">
        <ele>368.7</ele>
        <time>2024-09-06T11:18:57Z</time>
      </trkpt>
      <trkpt lat="47.32353" lon="3.98186">
        <ele>369.2</ele>
        <time>2024-09-06T11:19:01.999Z</time>
      </trkpt>
      <trkpt lat="47.3235" lon="3.98192">
        <ele>369.4</ele>
        <time>2024-09-06T11:19:07Z</time>
      </trkpt>
      <trkpt lat="47.32344" lon="3.98201">
        <ele>368.7</ele>
        <time>2024-09-06T11:19:19Z</time>
      </trkpt>
      <trkpt lat="47.32339" lon="3.98212">
        <ele>368.9</ele>
        <time>2024-09-06T11:19:26.499Z</time>
      </trkpt>
      <trkpt lat="47.32334" lon="3.98223">
        <ele>368.6</ele>
        <time>2024-09-06T11:19:34Z</time>
      </trkpt>
      <trkpt lat="47.32331" lon="3.98231">
        <ele>368.4</ele>
        <time>2024-09-06T11:19:39.499Z</time>
      </trkpt>
      <trkpt lat="47.32327" lon="3.98238">
        <ele>368.3</ele>
        <time>2024-09-06T11:19:45Z</time>
      </trkpt>
      <trkpt lat="47.32323" lon="3.98245">
        <ele>367.6</ele>
        <time>2024-09-06T11:19:49.999Z</time>
      </trkpt>
      <trkpt lat="47.32318" lon="3.98252">
        <ele>366.8</ele>
        <time>2024-09-06T11:19:55Z</time>
      </trkpt>
      <trkpt lat="47.32313" lon="3.98258">
        <ele>366</ele>
        <time>2024-09-06T11:19:59.999Z</time>
      </trkpt>
      <trkpt lat="47.32308" lon="3.98264">
        <ele>365.1</ele>
        <time>2024-09-06T11:20:05Z</time>
      </trkpt>
      <trkpt lat="47.32305" lon="3.9827">
        <ele>365.1</ele>
        <time>2024-09-06T11:20:10.499Z</time>
      </trkpt>
      <trkpt lat="47.32301" lon="3.98276">
        <ele>365.5</ele>
        <time>2024-09-06T11:20:16Z</time>
      </trkpt>
      <trkpt lat="47.32298" lon="3.98283">
        <ele>365.7</ele>
        <time>2024-09-06T11:20:21.499Z</time>
      </trkpt>
      <trkpt lat="47.32294" lon="3.98289">
        <ele>365.6</ele>
        <time>2024-09-06T11:20:27Z</time>
      </trkpt>
      <trkpt lat="47.3229" lon="3.98296">
        <ele>365.2</ele>
        <time>2024-09-06T11:20:32.499Z</time>
      </trkpt>
      <trkpt lat="47.32286" lon="3.98302">
        <ele>364.6</ele>
        <time>2024-09-06T11:20:38Z</time>
      </trkpt>
      <trkpt lat="47.32283" lon="3.9831">
        <ele>364.3</ele>
        <time>2024-09-06T11:20:43.999Z</time>
      </trkpt>
      <trkpt lat="47.32279" lon="3.98317">
        <ele>364.1</ele>
        <time>2024-09-06T11:20:50Z</time>
      </trkpt>
      <trkpt lat="47.32277" lon="3.98317">
        <ele>363.5</ele>
        <time>2024-09-06T11:22:07Z</time>
      </trkpt>
      <trkpt lat="47.32275" lon="3.98325">
        <ele>364.1</ele>
        <time>2024-09-06T11:22:17.999Z</time>
      </trkpt>
      <trkpt lat="47.32272" lon="3.98332">
        <ele>364.6</ele>
        <time>2024-09-06T11:22:29Z</time>
      </trkpt>
      <trkpt lat="47.3227" lon="3.9834">
        <ele>365.1</ele>
        <time>2024-09-06T11:22:35.999Z</time>
      </trkpt>
      <trkpt lat="47.32267" lon="3.98348">
        <ele>365.5</ele>
        <time>2024-09-06T11:22:43Z</time>
      </trkpt>
      <trkpt lat="47.32265" lon="3.98357">
        <ele>365.9</ele>
        <time>2024-09-06T11:22:48.999Z</time>
      </trkpt>
      <trkpt lat="47.32263" lon="3.98365">
        <ele>365.9</ele>
        <time>2024-09-06T11:22:55Z</time>
      </trkpt>
      <trkpt lat="47.32262" lon="3.98374">
        <ele>365.7</ele>
        <time>2024-09-06T11:23:00.999Z</time>
      </trkpt>
      <trkpt lat="47.3226" lon="3.98382">
        <ele>365.4</ele>
        <time>2024-09-06T11:23:07Z</time>
      </trkpt>
      <trkpt lat="47.3226" lon="3.98391">
        <ele>365.4</ele>
        <time>2024-09-06T11:23:11.999Z</time>
      </trkpt>
      <trkpt lat="47.32259" lon="3.98399">
        <ele>364.8</ele>
        <time>2024-09-06T11:23:17Z</time>
      </trkpt>
      <trkpt lat="47.3226" lon="3.98407">
        <ele>364.8</ele>
        <time>2024-09-06T11:23:22.500Z</time>
      </trkpt>
      <trkpt lat="47.3226" lon="3.98415">
        <ele>364.7</ele>
        <time>2024-09-06T11:23:28Z</time>
      </trkpt>
      <trkpt lat="47.3226" lon="3.98424">
        <ele>364.7</ele>
        <time>2024-09-06T11:23:33.000Z</time>
      </trkpt>
      <trkpt lat="47.3226" lon="3.98432">
        <ele>364.8</ele>
        <time>2024-09-06T11:23:38Z</time>
      </trkpt>
      <trkpt lat="47.32261" lon="3.98441">
        <ele>365.3</ele>
        <time>2024-09-06T11:23:44.000Z</time>
      </trkpt>
      <trkpt lat="47.32262" lon="3.9845">
        <ele>365.6</ele>
        <time>2024-09-06T11:23:50Z</time>
      </trkpt>
      <trkpt lat="47.32265" lon="3.98462">
        <ele>366.3</ele>
        <time>2024-09-06T11:24:03Z</time>
      </trkpt>
      <trkpt lat="47.3227" lon="3.98466">
        <ele>367.6</ele>
        <time>2024-09-06T11:24:11.500Z</time>
      </trkpt>
      <trkpt lat="47.32274" lon="3.9847">
        <ele>368.9</ele>
        <time>2024-09-06T11:24:20Z</time>
      </trkpt>
      <trkpt lat="47.32276" lon="3.98478">
        <ele>368.7</ele>
        <time>2024-09-06T11:24:47Z</time>
      </trkpt>
      <trkpt lat="47.32273" lon="3.98489">
        <ele>366.6</ele>
        <time>2024-09-06T11:25:01Z</time>
      </trkpt>
      <trkpt lat="47.32274" lon="3.98498">
        <ele>365.7</ele>
        <time>2024-09-06T11:25:20Z</time>
      </trkpt>
      <trkpt lat="47.32276" lon="3.98505">
        <ele>365.3</ele>
        <time>2024-09-06T11:25:26.500Z</time>
      </trkpt>
      <trkpt lat="47.32278" lon="3.98512">
        <ele>364.8</ele>
        <time>2024-09-06T11:25:33Z</time>
      </trkpt>
      <trkpt lat="47.32284" lon="3.98521">
        <ele>365.8</ele>
        <time>2024-09-06T11:25:40.000Z</time>
      </trkpt>
      <trkpt lat="47.3229" lon="3.98529">
        <ele>366.4</ele>
        <time>2024-09-06T11:25:47Z</time>
      </trkpt>
      <trkpt lat="47.32296" lon="3.98534">
        <ele>367.1</ele>
        <time>2024-09-06T11:25:54.000Z</time>
      </trkpt>
      <trkpt lat="47.32302" lon="3.98539">
        <ele>367.5</ele>
        <time>2024-09-06T11:26:01Z</time>
      </trkpt>
      <trkpt lat="47.32309" lon="3.98544">
        <ele>368.1</ele>
        <time>2024-09-06T11:26:08.000Z</time>
      </trkpt>
      <trkpt lat="47.32316" lon="3.98548">
        <ele>368.7</ele>
        <time>2024-09-06T11:26:15Z</time>
      </trkpt>
      <trkpt lat="47.32324" lon="3.98553">
        <ele>368.9</ele>
        <time>2024-09-06T11:26:26Z</time>
      </trkpt>
      <trkpt lat="47.3233" lon="3.98554">
        <ele>369.8</ele>
        <time>2024-09-06T11:26:34.000Z</time>
      </trkpt>
      <trkpt lat="47.32335" lon="3.98555">
        <ele>370.8</ele>
        <time>2024-09-06T11:26:42Z</time>
      </trkpt>
      <trkpt lat="47.32342" lon="3.98555">
        <ele>372.9</ele>
        <time>2024-09-06T11:26:48.000Z</time>
      </trkpt>
      <trkpt lat="47.32348" lon="3.98555">
        <ele>375</ele>
        <time>2024-09-06T11:26:54Z</time>
      </trkpt>
      <trkpt lat="47.32354" lon="3.98561">
        <ele>374.2</ele>
        <time>2024-09-06T11:27:03.000Z</time>
      </trkpt>
      <trkpt lat="47.32359" lon="3.98567">
        <ele>372.8</ele>
        <time>2024-09-06T11:27:12Z</time>
      </trkpt>
      <trkpt lat="47.32365" lon="3.98569">
        <ele>373.4</ele>
        <time>2024-09-06T11:27:21.500Z</time>
      </trkpt>
      <trkpt lat="47.32371" lon="3.98571">
        <ele>374.3</ele>
        <time>2024-09-06T11:27:31Z</time>
      </trkpt>
      <trkpt lat="47.32372" lon="3.98582">
        <ele>369.5</ele>
        <time>2024-09-06T11:27:46Z</time>
      </trkpt>
      <trkpt lat="47.3238" lon="3.98586">
        <ele>371.2</ele>
        <time>2024-09-06T11:27:57.500Z</time>
      </trkpt>
      <trkpt lat="47.32388" lon="3.98589">
        <ele>372.7</ele>
        <time>2024-09-06T11:28:09Z</time>
      </trkpt>
      <trkpt lat="47.32391" lon="3.98595">
        <ele>371.8</ele>
        <time>2024-09-06T11:28:18.500Z</time>
      </trkpt>
      <trkpt lat="47.32393" lon="3.98601">
        <ele>371.3</ele>
        <time>2024-09-06T11:28:28Z</time>
      </trkpt>
      <trkpt lat="47.32396" lon="3.98613">
        <ele>369.7</ele>
        <time>2024-09-06T11:28:39Z</time>
      </trkpt>
      <trkpt lat="47.32401" lon="3.98622">
        <ele>372.2</ele>
        <time>2024-09-06T11:28:54Z</time>
      </trkpt>
      <trkpt lat="47.32403" lon="3.98629">
        <ele>372.8</ele>
        <time>2024-09-06T11:29:06.000Z</time>
      </trkpt>
      <trkpt lat="47.32405" lon="3.98635">
        <ele>373.2</ele>
        <time>2024-09-06T11:29:18Z</time>
      </trkpt>
      <trkpt lat="47.32406" lon="3.98644">
        <ele>373</ele>
        <time>2024-09-06T11:29:37Z</time>
      </trkpt>
      <trkpt lat="47.32401" lon="3.98654">
        <ele>370.1</ele>
        <time>2024-09-06T11:29:53Z</time>
      </trkpt>
      <trkpt lat="47.324" lon="3.98664">
        <ele>369.3</ele>
        <time>2024-09-06T11:30:05Z</time>
      </trkpt>
      <trkpt lat="47.324" lon="3.9867">
        <ele>369.3</ele>
        <time>2024-09-06T11:30:29Z</time>
      </trkpt>
      <trkpt lat="47.32394" lon="3.98676">
        <ele>366.7</ele>
        <time>2024-09-06T11:30:48Z</time>
      </trkpt>
      <trkpt lat="47.32396" lon="3.98687">
        <ele>368.1</ele>
        <time>2024-09-06T11:31:05Z</time>
      </trkpt>
      <trkpt lat="47.32396" lon="3.98694">
        <ele>368.3</ele>
        <time>2024-09-06T11:31:10.500Z</time>
      </trkpt>
      <trkpt lat="47.32396" lon="3.98701">
        <ele>368.8</ele>
        <time>2024-09-06T11:31:16Z</time>
      </trkpt>
      <trkpt lat="47.32396" lon="3.98709">
        <ele>369.4</ele>
        <time>2024-09-06T11:31:23.000Z</time>
      </trkpt>
      <trkpt lat="47.32396" lon="3.98717">
        <ele>370</ele>
        <time>2024-09-06T11:31:30Z</time>
      </trkpt>
      <trkpt lat="47.32392" lon="3.98725">
        <ele>368.3</ele>
        <time>2024-09-06T11:31:35.999Z</time>
      </trkpt>
      <trkpt lat="47.32388" lon="3.98732">
        <ele>367.7</ele>
        <time>2024-09-06T11:31:42Z</time>
      </trkpt>
      <trkpt lat="47.32388" lon="3.9874">
        <ele>369</ele>
        <time>2024-09-06T11:31:48.999Z</time>
      </trkpt>
      <trkpt lat="47.32387" lon="3.98748">
        <ele>370.3</ele>
        <time>2024-09-06T11:31:56Z</time>
      </trkpt>
      <trkpt lat="47.32392" lon="3.98759">
        <ele>375.5</ele>
        <time>2024-09-06T11:32:11Z</time>
      </trkpt>
      <trkpt lat="47.32391" lon="3.98771">
        <ele>378.3</ele>
        <time>2024-09-06T11:32:27Z</time>
      </trkpt>
      <trkpt lat="47.32387" lon="3.98774">
        <ele>376.7</ele>
        <time>2024-09-06T11:32:38.999Z</time>
      </trkpt>
      <trkpt lat="47.32382" lon="3.98776">
        <ele>375.4</ele>
        <time>2024-09-06T11:32:51Z</time>
      </trkpt>
      <trkpt lat="47.32378" lon="3.98781">
        <ele>374.9</ele>
        <time>2024-09-06T11:32:59.499Z</time>
      </trkpt>
      <trkpt lat="47.32374" lon="3.98786">
        <ele>374.4</ele>
        <time>2024-09-06T11:33:08Z</time>
      </trkpt>
      <trkpt lat="47.32369" lon="3.98796">
        <ele>374.7</ele>
        <time>2024-09-06T11:33:27Z</time>
      </trkpt>
      <trkpt lat="47.32366" lon="3.98804">
        <ele>375.2</ele>
        <time>2024-09-06T11:33:51Z</time>
      </trkpt>
      <trkpt lat="47.32362" lon="3.98809">
        <ele>374.9</ele>
        <time>2024-09-06T11:34:00.499Z</time>
      </trkpt>
      <trkpt lat="47.32358" lon="3.98814">
        <ele>375.5</ele>
        <time>2024-09-06T11:34:10Z</time>
      </trkpt>
      <trkpt lat="47.3235" lon="3.98812">
        <ele>372.8</ele>
        <time>2024-09-06T11:34:36Z</time>
      </trkpt>
      <trkpt lat="47.32343" lon="3.98814">
        <ele>371.6</ele>
        <time>2024-09-06T11:34:45.999Z</time>
      </trkpt>
      <trkpt lat="47.32336" lon="3.98816">
        <ele>370.4</ele>
        <time>2024-09-06T11:34:56Z</time>
      </trkpt>
      <trkpt lat="47.3233" lon="3.98814">
        <ele>369</ele>
        <time>2024-09-06T11:35:14Z</time>
      </trkpt>
      <trkpt lat="47.32325" lon="3.98816">
        <ele>369.3</ele>
        <time>2024-09-06T11:35:16.499Z</time>
      </trkpt>
      <trkpt lat="47.32321" lon="3.98818">
        <ele>369.5</ele>
        <time>2024-09-06T11:35:18.999Z</time>
      </trkpt>
      <trkpt lat="47.32316" lon="3.9882">
        <ele>369.7</ele>
        <time>2024-09-06T11:35:21.499Z</time>
      </trkpt>
      <trkpt lat="47.32312" lon="3.98822">
        <ele>369.7</ele>
        <time>2024-09-06T11:35:23.999Z</time>
      </trkpt>
      <trkpt lat="47.32307" lon="3.98824">
        <ele>369.8</ele>
        <time>2024-09-06T11:35:26.499Z</time>
      </trkpt>
      <trkpt lat="47.32302" lon="3.98826">
        <ele>369.9</ele>
        <time>2024-09-06T11:35:28.999Z</time>
      </trkpt>
      <trkpt lat="47.32298" lon="3.98828">
        <ele>370</ele>
        <time>2024-09-06T11:35:31.499Z</time>
      </trkpt>
      <trkpt lat="47.32293" lon="3.9883">
        <ele>370.1</ele>
        <time>2024-09-06T11:35:34Z</time>
      </trkpt>
      <trkpt lat="47.32285" lon="3.98832">
        <ele>370</ele>
        <time>2024-09-06T11:35:41.500Z</time>
      </trkpt>
      <trkpt lat="47.32276" lon="3.98833">
        <ele>369.9</ele>
        <time>2024-09-06T11:35:49Z</time>
      </trkpt>
      <trkpt lat="47.32271" lon="3.98832">
        <ele>369.6</ele>
        <time>2024-09-06T11:35:53.500Z</time>
      </trkpt>
      <trkpt lat="47.32265" lon="3.9883">
        <ele>369.3</ele>
        <time>2024-09-06T11:35:58Z</time>
      </trkpt>
      <trkpt lat="47.32261" lon="3.9883">
        <ele>369.2</ele>
        <time>2024-09-06T11:36:02.500Z</time>
      </trkpt>
      <trkpt lat="47.32256" lon="3.9883">
        <ele>369</ele>
        <time>2024-09-06T11:36:07Z</time>
      </trkpt>
      <trkpt lat="47.32251" lon="3.98828">
        <ele>368.8</ele>
        <time>2024-09-06T11:36:12.499Z</time>
      </trkpt>
      <trkpt lat="47.32246" lon="3.98825">
        <ele>368.7</ele>
        <time>2024-09-06T11:36:18Z</time>
      </trkpt>
      <trkpt lat="47.32242" lon="3.9883">
        <ele>368.9</ele>
        <time>2024-09-06T11:36:23.999Z</time>
      </trkpt>
      <trkpt lat="47.32237" lon="3.98834">
        <ele>369.1</ele>
        <time>2024-09-06T11:36:30Z</time>
      </trkpt>
      <trkpt lat="47.32238" lon="3.9883">
        <ele>368.9</ele>
        <time>2024-09-06T11:36:42Z</time>
      </trkpt>
      <trkpt lat="47.32233" lon="3.98831">
        <ele>368.9</ele>
        <time>2024-09-06T11:36:50.500Z</time>
      </trkpt>
      <trkpt lat="47.32227" lon="3.98832">
        <ele>369</ele>
        <time>2024-09-06T11:36:59Z</time>
      </trkpt>
      <trkpt lat="47.32221" lon="3.98836">
        <ele>369.2</ele>
        <time>2024-09-06T11:37:05.999Z</time>
      </trkpt>
      <trkpt lat="47.32215" lon="3.98839">
        <ele>369.3</ele>
        <time>2024-09-06T11:37:13Z</time>
      </trkpt>
      <trkpt lat="47.32208" lon="3.98843">
        <ele>369.3</ele>
        <time>2024-09-06T11:37:19.999Z</time>
      </trkpt>
      <trkpt lat="47.322" lon="3.98846">
        <ele>369.2</ele>
        <time>2024-09-06T11:37:27Z</time>
      </trkpt>
      <trkpt lat="47.32196" lon="3.98855">
        <ele>369.6</ele>
        <time>2024-09-06T11:37:34.999Z</time>
      </trkpt>
      <trkpt lat="47.32191" lon="3.98863">
        <ele>370.3</ele>
        <time>2024-09-06T11:37:43Z</time>
      </trkpt>
      <trkpt lat="47.32186" lon="3.98869">
        <ele>371.3</ele>
        <time>2024-09-06T11:37:48.999Z</time>
      </trkpt>
      <trkpt lat="47.3218" lon="3.98875">
        <ele>371.9</ele>
        <time>2024-09-06T11:37:55Z</time>
      </trkpt>
      <trkpt lat="47.32174" lon="3.98881">
        <ele>372.1</ele>
        <time>2024-09-06T11:38:01.999Z</time>
      </trkpt>
      <trkpt lat="47.32168" lon="3.98886">
        <ele>371.9</ele>
        <time>2024-09-06T11:38:09Z</time>
      </trkpt>
      <trkpt lat="47.32165" lon="3.98891">
        <ele>372.3</ele>
        <time>2024-09-06T11:38:14.999Z</time>
      </trkpt>
      <trkpt lat="47.32161" lon="3.98896">
        <ele>373.2</ele>
        <time>2024-09-06T11:38:21Z</time>
      </trkpt>
      <trkpt lat="47.32157" lon="3.989">
        <ele>373.4</ele>
        <time>2024-09-06T11:38:29.499Z</time>
      </trkpt>
      <trkpt lat="47.32152" lon="3.98904">
        <ele>373.3</ele>
        <time>2024-09-06T11:38:38Z</time>
      </trkpt>
      <trkpt lat="47.32149" lon="3.98909">
        <ele>373.5</ele>
        <time>2024-09-06T11:38:44.499Z</time>
      </trkpt>
      <trkpt lat="47.32145" lon="3.98914">
        <ele>373.4</ele>
        <time>2024-09-06T11:38:51Z</time>
      </trkpt>
      <trkpt lat="47.32149" lon="3.9892">
        <ele>376</ele>
        <time>2024-09-06T11:39:17Z</time>
      </trkpt>
      <trkpt lat="47.32145" lon="3.98924">
        <ele>376.1</ele>
        <time>2024-09-06T11:39:26.499Z</time>
      </trkpt>
      <trkpt lat="47.32141" lon="3.98928">
        <ele>376.3</ele>
        <time>2024-09-06T11:39:36Z</time>
      </trkpt>
      <trkpt lat="47.32134" lon="3.98931">
        <ele>375.7</ele>
        <time>2024-09-06T11:39:46.999Z</time>
      </trkpt>
      <trkpt lat="47.32127" lon="3.98934">
        <ele>375</ele>
        <time>2024-09-06T11:39:58Z</time>
      </trkpt>
      <trkpt lat="47.32121" lon="3.98934">
        <ele>373.7</ele>
        <time>2024-09-06T11:40:04.000Z</time>
      </trkpt>
      <trkpt lat="47.32115" lon="3.98934">
        <ele>372.4</ele>
        <time>2024-09-06T11:40:10Z</time>
      </trkpt>
      <trkpt lat="47.32108" lon="3.98942">
        <ele>372.4</ele>
        <time>2024-09-06T11:40:26Z</time>
      </trkpt>
      <trkpt lat="47.32107" lon="3.9895">
        <ele>373.6</ele>
        <time>2024-09-06T11:40:32.999Z</time>
      </trkpt>
      <trkpt lat="47.32105" lon="3.98957">
        <ele>374.9</ele>
        <time>2024-09-06T11:40:40Z</time>
      </trkpt>
      <trkpt lat="47.32102" lon="3.98966">
        <ele>375.8</ele>
        <time>2024-09-06T11:40:47.499Z</time>
      </trkpt>
      <trkpt lat="47.32098" lon="3.98975">
        <ele>376.3</ele>
        <time>2024-09-06T11:40:55Z</time>
      </trkpt>
      <trkpt lat="47.32091" lon="3.98983">
        <ele>374.9</ele>
        <time>2024-09-06T11:41:08Z</time>
      </trkpt>
      <trkpt lat="47.3209" lon="3.98991">
        <ele>375.5</ele>
        <time>2024-09-06T11:41:28Z</time>
      </trkpt>
      <trkpt lat="47.32085" lon="3.98996">
        <ele>373.6</ele>
        <time>2024-09-06T11:41:58Z</time>
      </trkpt>
      <trkpt lat="47.32084" lon="3.99003">
        <ele>374</ele>
        <time>2024-09-06T11:42:04.999Z</time>
      </trkpt>
      <trkpt lat="47.32083" lon="3.99009">
        <ele>375.2</ele>
        <time>2024-09-06T11:42:12Z</time>
      </trkpt>
      <trkpt lat="47.32078" lon="3.9902">
        <ele>376.7</ele>
        <time>2024-09-06T11:42:27Z</time>
      </trkpt>
      <trkpt lat="47.32076" lon="3.99028">
        <ele>377.5</ele>
        <time>2024-09-06T11:42:34.999Z</time>
      </trkpt>
      <trkpt lat="47.32073" lon="3.99036">
        <ele>377.6</ele>
        <time>2024-09-06T11:42:43Z</time>
      </trkpt>
      <trkpt lat="47.32072" lon="3.99043">
        <ele>377.7</ele>
        <time>2024-09-06T11:42:49.999Z</time>
      </trkpt>
      <trkpt lat="47.3207" lon="3.9905">
        <ele>377.8</ele>
        <time>2024-09-06T11:42:57Z</time>
      </trkpt>
      <trkpt lat="47.32073" lon="3.9906">
        <ele>380.4</ele>
        <time>2024-09-06T11:43:21Z</time>
      </trkpt>
      <trkpt lat="47.32073" lon="3.99068">
        <ele>381.4</ele>
        <time>2024-09-06T11:43:30.500Z</time>
      </trkpt>
      <trkpt lat="47.32073" lon="3.99075">
        <ele>382.4</ele>
        <time>2024-09-06T11:43:40Z</time>
      </trkpt>
      <trkpt lat="47.32071" lon="3.99087">
        <ele>382.4</ele>
        <time>2024-09-06T11:43:56Z</time>
      </trkpt>
      <trkpt lat="47.32071" lon="3.99087">
        <ele>382.4</ele>
        <time>2024-09-06T11:44:30Z</time>
      </trkpt>
      <trkpt lat="47.3207" lon="3.99096">
        <ele>382.3</ele>
        <time>2024-09-06T11:44:47Z</time>
      </trkpt>
      <trkpt lat="47.32071" lon="3.99104">
        <ele>383.4</ele>
        <time>2024-09-06T11:44:54.500Z</time>
      </trkpt>
      <trkpt lat="47.32071" lon="3.99112">
        <ele>384.4</ele>
        <time>2024-09-06T11:45:02Z</time>
      </trkpt>
      <trkpt lat="47.32073" lon="3.99119">
        <ele>386.4</ele>
        <time>2024-09-06T11:45:25Z</time>
      </trkpt>
      <trkpt lat="47.32075" lon="3.99117">
        <ele>388</ele>
        <time>2024-09-06T11:45:54Z</time>
      </trkpt>
      <trkpt lat="47.32073" lon="3.99125">
        <ele>386.1</ele>
        <time>2024-09-06T11:46:04.499Z</time>
      </trkpt>
      <trkpt lat="47.3207" lon="3.99132">
        <ele>384.2</ele>
        <time>2024-09-06T11:46:15Z</time>
      </trkpt>
      <trkpt lat="47.32067" lon="3.9914">
        <ele>382</ele>
        <time>2024-09-06T11:46:23.999Z</time>
      </trkpt>
      <trkpt lat="47.32064" lon="3.99147">
        <ele>380.1</ele>
        <time>2024-09-06T11:46:33Z</time>
      </trkpt>
      <trkpt lat="47.32062" lon="3.99153">
        <ele>378.9</ele>
        <time>2024-09-06T11:46:38.999Z</time>
      </trkpt>
      <trkpt lat="47.3206" lon="3.99159">
        <ele>377.6</ele>
        <time>2024-09-06T11:46:45Z</time>
      </trkpt>
      <trkpt lat="47.32059" lon="3.99166">
        <ele>377.3</ele>
        <time>2024-09-06T11:46:52.499Z</time>
      </trkpt>
      <trkpt lat="47.32058" lon="3.99173">
        <ele>377.3</ele>
        <time>2024-09-06T11:47:00Z</time>
      </trkpt>
      <trkpt lat="47.3205" lon="3.99177">
        <ele>375.2</ele>
        <time>2024-09-06T11:47:13Z</time>
      </trkpt>
      <trkpt lat="47.32046" lon="3.99183">
        <ele>375.4</ele>
        <time>2024-09-06T11:47:20.999Z</time>
      </trkpt>
      <trkpt lat="47.32042" lon="3.99189">
        <ele>375.5</ele>
        <time>2024-09-06T11:47:29Z</time>
      </trkpt>
      <trkpt lat="47.32036" lon="3.99194">
        <ele>374.7</ele>
        <time>2024-09-06T11:47:36.499Z</time>
      </trkpt>
      <trkpt lat="47.3203" lon="3.99199">
        <ele>374.6</ele>
        <time>2024-09-06T11:47:44Z</time>
      </trkpt>
      <trkpt lat="47.32026" lon="3.99204">
        <ele>374.9</ele>
        <time>2024-09-06T11:47:51.999Z</time>
      </trkpt>
      <trkpt lat="47.32022" lon="3.99209">
        <ele>375.4</ele>
        <time>2024-09-06T11:48:00Z</time>
      </trkpt>
      <trkpt lat="47.3202" lon="3.99219">
        <ele>376.8</ele>
        <time>2024-09-06T11:48:27Z</time>
      </trkpt>
      <trkpt lat="47.32021" lon="3.99223">
        <ele>377.8</ele>
        <time>2024-09-06T11:48:49Z</time>
      </trkpt>
      <trkpt lat="47.32017" lon="3.99229">
        <ele>378.8</ele>
        <time>2024-09-06T11:48:56.999Z</time>
      </trkpt>
      <trkpt lat="47.32012" lon="3.99234">
        <ele>379.5</ele>
        <time>2024-09-06T11:49:05Z</time>
      </trkpt>
      <trkpt lat="47.32007" lon="3.99239">
        <ele>379.3</ele>
        <time>2024-09-06T11:49:10.999Z</time>
      </trkpt>
      <trkpt lat="47.32001" lon="3.99244">
        <ele>378.8</ele>
        <time>2024-09-06T11:49:17Z</time>
      </trkpt>
      <trkpt lat="47.31995" lon="3.99248">
        <ele>379</ele>
        <time>2024-09-06T11:49:23.999Z</time>
      </trkpt>
      <trkpt lat="47.31988" lon="3.99251">
        <ele>379.6</ele>
        <time>2024-09-06T11:49:31Z</time>
      </trkpt>
      <trkpt lat="47.31982" lon="3.99253">
        <ele>379.8</ele>
        <time>2024-09-06T11:49:38.500Z</time>
      </trkpt>
      <trkpt lat="47.31976" lon="3.99254">
        <ele>379.9</ele>
        <time>2024-09-06T11:49:46Z</time>
      </trkpt>
      <trkpt lat="47.31971" lon="3.99255">
        <ele>380</ele>
        <time>2024-09-06T11:49:53.000Z</time>
      </trkpt>
      <trkpt lat="47.31966" lon="3.99256">
        <ele>380.3</ele>
        <time>2024-09-06T11:50:00Z</time>
      </trkpt>
      <trkpt lat="47.31961" lon="3.99255">
        <ele>379.6</ele>
        <time>2024-09-06T11:50:07.999Z</time>
      </trkpt>
      <trkpt lat="47.31955" lon="3.99253">
        <ele>379.1</ele>
        <time>2024-09-06T11:50:16Z</time>
      </trkpt>
      <trkpt lat="47.31947" lon="3.9925">
        <ele>377.9</ele>
        <time>2024-09-06T11:50:23.499Z</time>
      </trkpt>
      <trkpt lat="47.31939" lon="3.99246">
        <ele>377.8</ele>
        <time>2024-09-06T11:50:31Z</time>
      </trkpt>
      <trkpt lat="47.31933" lon="3.99245">
        <ele>378.2</ele>
        <time>2024-09-06T11:50:38.000Z</time>
      </trkpt>
      <trkpt lat="47.31927" lon="3.99244">
        <ele>378.5</ele>
        <time>2024-09-06T11:50:45Z</time>
      </trkpt>
      <trkpt lat="47.31921" lon="3.99238">
        <ele>377.6</ele>
        <time>2024-09-06T11:50:51.499Z</time>
      </trkpt>
      <trkpt lat="47.31915" lon="3.99232">
        <ele>376.8</ele>
        <time>2024-09-06T11:50:58Z</time>
      </trkpt>
      <trkpt lat="47.31911" lon="3.99228">
        <ele>376.5</ele>
        <time>2024-09-06T11:51:01.999Z</time>
      </trkpt>
      <trkpt lat="47.31907" lon="3.99224">
        <ele>376.2</ele>
        <time>2024-09-06T11:51:06Z</time>
      </trkpt>
      <trkpt lat="47.319" lon="3.9922">
        <ele>376.8</ele>
        <time>2024-09-06T11:51:12.999Z</time>
      </trkpt>
      <trkpt lat="47.31892" lon="3.99215">
        <ele>377.5</ele>
        <time>2024-09-06T11:51:20Z</time>
      </trkpt>
      <trkpt lat="47.31887" lon="3.99211">
        <ele>377.8</ele>
        <time>2024-09-06T11:51:27.999Z</time>
      </trkpt>
      <trkpt lat="47.31882" lon="3.99207">
        <ele>378.2</ele>
        <time>2024-09-06T11:51:36Z</time>
      </trkpt>
      <trkpt lat="47.31876" lon="3.99207">
        <ele>379.3</ele>
        <time>2024-09-06T11:51:42.500Z</time>
      </trkpt>
      <trkpt lat="47.3187" lon="3.99206">
        <ele>380.3</ele>
        <time>2024-09-06T11:51:49Z</time>
      </trkpt>
      <trkpt lat="47.31864" lon="3.99202">
        <ele>380.7</ele>
        <time>2024-09-06T11:51:55.499Z</time>
      </trkpt>
      <trkpt lat="47.31858" lon="3.99197">
        <ele>381</ele>
        <time>2024-09-06T11:52:02Z</time>
      </trkpt>
      <trkpt lat="47.31855" lon="3.99188">
        <ele>380.2</ele>
        <time>2024-09-06T11:52:09.999Z</time>
      </trkpt>
      <trkpt lat="47.31851" lon="3.99178">
        <ele>379.5</ele>
        <time>2024-09-06T11:52:18Z</time>
      </trkpt>
      <trkpt lat="47.31849" lon="3.99171">
        <ele>378.9</ele>
        <time>2024-09-06T11:52:24.499Z</time>
      </trkpt>
      <trkpt lat="47.31846" lon="3.99164">
        <ele>378.4</ele>
        <time>2024-09-06T11:52:31Z</time>
      </trkpt>
      <trkpt lat="47.3184" lon="3.99155">
        <ele>378.2</ele>
        <time>2024-09-06T11:52:38.499Z</time>
      </trkpt>
      <trkpt lat="47.31834" lon="3.99146">
        <ele>377.9</ele>
        <time>2024-09-06T11:52:46Z</time>
      </trkpt>
      <trkpt lat="47.31831" lon="3.99142">
        <ele>377.7</ele>
        <time>2024-09-06T11:52:49.749Z</time>
      </trkpt>
      <trkpt lat="47.31827" lon="3.99137">
        <ele>377.5</ele>
        <time>2024-09-06T11:52:53.499Z</time>
      </trkpt>
      <trkpt lat="47.31824" lon="3.99133">
        <ele>377.3</ele>
        <time>2024-09-06T11:52:57.249Z</time>
      </trkpt>
      <trkpt lat="47.3182" lon="3.99128">
        <ele>377.1</ele>
        <time>2024-09-06T11:53:01Z</time>
      </trkpt>
      <trkpt lat="47.31814" lon="3.99121">
        <ele>376.7</ele>
        <time>2024-09-06T11:53:06.499Z</time>
      </trkpt>
      <trkpt lat="47.31808" lon="3.99114">
        <ele>376.2</ele>
        <time>2024-09-06T11:53:12Z</time>
      </trkpt>
      <trkpt lat="47.31803" lon="3.99113">
        <ele>376.3</ele>
        <time>2024-09-06T11:53:16.500Z</time>
      </trkpt>
      <trkpt lat="47.31797" lon="3.99112">
        <ele>376.1</ele>
        <time>2024-09-06T11:53:21Z</time>
      </trkpt>
      <trkpt lat="47.31793" lon="3.99108">
        <ele>375.8</ele>
        <time>2024-09-06T11:53:26.499Z</time>
      </trkpt>
      <trkpt lat="47.31789" lon="3.99104">
        <ele>375.6</ele>
        <time>2024-09-06T11:53:32Z</time>
      </trkpt>
      <trkpt lat="47.31784" lon="3.99102">
        <ele>375.6</ele>
        <time>2024-09-06T11:53:37.499Z</time>
      </trkpt>
      <trkpt lat="47.31779" lon="3.991">
        <ele>375.6</ele>
        <time>2024-09-06T11:53:43Z</time>
      </trkpt>
      <trkpt lat="47.31773" lon="3.99101">
        <ele>375.6</ele>
        <time>2024-09-06T11:53:49.000Z</time>
      </trkpt>
      <trkpt lat="47.31767" lon="3.99101">
        <ele>375.6</ele>
        <time>2024-09-06T11:53:55Z</time>
      </trkpt>
      <trkpt lat="47.3176" lon="3.99102">
        <ele>375.7</ele>
        <time>2024-09-06T11:54:01.000Z</time>
      </trkpt>
      <trkpt lat="47.31752" lon="3.99103">
        <ele>375.7</ele>
        <time>2024-09-06T11:54:07Z</time>
      </trkpt>
      <trkpt lat="47.31747" lon="3.99106">
        <ele>375.7</ele>
        <time>2024-09-06T11:54:12.999Z</time>
      </trkpt>
      <trkpt lat="47.31742" lon="3.99109">
        <ele>375.6</ele>
        <time>2024-09-06T11:54:19Z</time>
      </trkpt>
      <trkpt lat="47.31734" lon="3.99114">
        <ele>375.6</ele>
        <time>2024-09-06T11:54:32Z</time>
      </trkpt>
      <trkpt lat="47.31731" lon="3.99121">
        <ele>375.9</ele>
        <time>2024-09-06T11:54:39.999Z</time>
      </trkpt>
      <trkpt lat="47.31727" lon="3.99128">
        <ele>376</ele>
        <time>2024-09-06T11:54:48Z</time>
      </trkpt>
      <trkpt lat="47.31723" lon="3.99135">
        <ele>375.9</ele>
        <time>2024-09-06T11:54:53.499Z</time>
      </trkpt>
      <trkpt lat="47.31719" lon="3.99142">
        <ele>375.9</ele>
        <time>2024-09-06T11:54:59Z</time>
      </trkpt>
      <trkpt lat="47.31717" lon="3.99149">
        <ele>375.8</ele>
        <time>2024-09-06T11:55:02.999Z</time>
      </trkpt>
      <trkpt lat="47.31715" lon="3.99156">
        <ele>375.7</ele>
        <time>2024-09-06T11:55:06.999Z</time>
      </trkpt>
      <trkpt lat="47.31713" lon="3.99163">
        <ele>375.7</ele>
        <time>2024-09-06T11:55:10.999Z</time>
      </trkpt>
      <trkpt lat="47.31711" lon="3.9917">
        <ele>375.7</ele>
        <time>2024-09-06T11:55:15Z</time>
      </trkpt>
      <trkpt lat="47.31713" lon="3.99179">
        <ele>375.9</ele>
        <time>2024-09-06T11:55:21.000Z</time>
      </trkpt>
      <trkpt lat="47.31714" lon="3.99187">
        <ele>376.2</ele>
        <time>2024-09-06T11:55:27Z</time>
      </trkpt>
      <trkpt lat="47.31712" lon="3.99196">
        <ele>376.3</ele>
        <time>2024-09-06T11:55:33.499Z</time>
      </trkpt>
      <trkpt lat="47.3171" lon="3.99205">
        <ele>376.3</ele>
        <time>2024-09-06T11:55:40Z</time>
      </trkpt>
      <trkpt lat="47.3171" lon="3.99215">
        <ele>376.5</ele>
        <time>2024-09-06T11:55:47.499Z</time>
      </trkpt>
      <trkpt lat="47.31709" lon="3.99224">
        <ele>376.6</ele>
        <time>2024-09-06T11:55:55Z</time>
      </trkpt>
      <trkpt lat="47.31709" lon="3.99233">
        <ele>377</ele>
        <time>2024-09-06T11:56:01.000Z</time>
      </trkpt>
      <trkpt lat="47.31709" lon="3.99242">
        <ele>377.3</ele>
        <time>2024-09-06T11:56:07Z</time>
      </trkpt>
      <trkpt lat="47.31709" lon="3.99252">
        <ele>377.7</ele>
        <time>2024-09-06T11:56:13.499Z</time>
      </trkpt>
      <trkpt lat="47.31708" lon="3.99261">
        <ele>378.4</ele>
        <time>2024-09-06T11:56:20Z</time>
      </trkpt>
      <trkpt lat="47.31707" lon="3.9927">
        <ele>378.9</ele>
        <time>2024-09-06T11:56:25.999Z</time>
      </trkpt>
      <trkpt lat="47.31706" lon="3.99279">
        <ele>379.2</ele>
        <time>2024-09-06T11:56:32Z</time>
      </trkpt>
      <trkpt lat="47.31707" lon="3.99287">
        <ele>379.8</ele>
        <time>2024-09-06T11:56:43.000Z</time>
      </trkpt>
      <trkpt lat="47.31707" lon="3.99294">
        <ele>380.4</ele>
        <time>2024-09-06T11:56:54Z</time>
      </trkpt>
      <trkpt lat="47.31708" lon="3.99287">
        <ele>380.4</ele>
        <time>2024-09-06T11:57:18Z</time>
      </trkpt>
      <trkpt lat="47.31709" lon="3.99296">
        <ele>381</ele>
        <time>2024-09-06T11:57:27.000Z</time>
      </trkpt>
      <trkpt lat="47.31709" lon="3.99305">
        <ele>381.7</ele>
        <time>2024-09-06T11:57:36Z</time>
      </trkpt>
      <trkpt lat="47.31705" lon="3.99316">
        <ele>380.3</ele>
        <time>2024-09-06T11:57:49Z</time>
      </trkpt>
      <trkpt lat="47.31703" lon="3.99328">
        <ele>379.6</ele>
        <time>2024-09-06T11:58:10Z</time>
      </trkpt>
      <trkpt lat="47.31702" lon="3.99335">
        <ele>379.3</ele>
        <time>2024-09-06T11:58:19.499Z</time>
      </trkpt>
      <trkpt lat="47.31701" lon="3.99342">
        <ele>378.9</ele>
        <time>2024-09-06T11:58:29Z</time>
      </trkpt>
      <trkpt lat="47.31702" lon="3.9935">
        <ele>379.2</ele>
        <time>2024-09-06T11:58:37.000Z</time>
      </trkpt>
      <trkpt lat="47.31702" lon="3.99358">
        <ele>379.5</ele>
        <time>2024-09-06T11:58:45Z</time>
      </trkpt>
      <trkpt lat="47.31701" lon="3.99366">
        <ele>379.3</ele>
        <time>2024-09-06T11:58:51.499Z</time>
      </trkpt>
      <trkpt lat="47.317" lon="3.99374">
        <ele>379.3</ele>
        <time>2024-09-06T11:58:58Z</time>
      </trkpt>
      <trkpt lat="47.31699" lon="3.99382">
        <ele>379.2</ele>
        <time>2024-09-06T11:59:04.499Z</time>
      </trkpt>
      <trkpt lat="47.31697" lon="3.9939">
        <ele>379</ele>
        <time>2024-09-06T11:59:11Z</time>
      </trkpt>
      <trkpt lat="47.31698" lon="3.99399">
        <ele>379.6</ele>
        <time>2024-09-06T11:59:17.500Z</time>
      </trkpt>
      <trkpt lat="47.31699" lon="3.99407">
        <ele>380</ele>
        <time>2024-09-06T11:59:24Z</time>
      </trkpt>
      <trkpt lat="47.31699" lon="3.99417">
        <ele>380.1</ele>
        <time>2024-09-06T11:59:31.999Z</time>
      </trkpt>
      <trkpt lat="47.31698" lon="3.99427">
        <ele>381.7</ele>
        <time>2024-09-06T11:59:40Z</time>
      </trkpt>
      <trkpt lat="47.31695" lon="3.99436">
        <ele>382.5</ele>
        <time>2024-09-06T11:59:46.999Z</time>
      </trkpt>
      <trkpt lat="47.31691" lon="3.99445">
        <ele>383.2</ele>
        <time>2024-09-06T11:59:54Z</time>
      </trkpt>
      <trkpt lat="47.31686" lon="3.99453">
        <ele>383.3</ele>
        <time>2024-09-06T12:00:00.499Z</time>
      </trkpt>
      <trkpt lat="47.3168" lon="3.9946">
        <ele>383.1</ele>
        <time>2024-09-06T12:00:07Z</time>
      </trkpt>
      <trkpt lat="47.31679" lon="3.99467">
        <ele>383.8</ele>
        <time>2024-09-06T12:00:14.499Z</time>
      </trkpt>
      <trkpt lat="47.31677" lon="3.99473">
        <ele>384.5</ele>
        <time>2024-09-06T12:00:22Z</time>
      </trkpt>
      <trkpt lat="47.31673" lon="3.99478">
        <ele>384.1</ele>
        <time>2024-09-06T12:00:28.499Z</time>
      </trkpt>
      <trkpt lat="47.31668" lon="3.99483">
        <ele>383.8</ele>
        <time>2024-09-06T12:00:35Z</time>
      </trkpt>
      <trkpt lat="47.31665" lon="3.99488">
        <ele>384</ele>
        <time>2024-09-06T12:00:43.499Z</time>
      </trkpt>
      <trkpt lat="47.31662" lon="3.99493">
        <ele>384.3</ele>
        <time>2024-09-06T12:00:52Z</time>
      </trkpt>
      <trkpt lat="47.31661" lon="3.99504">
        <ele>386.3</ele>
        <time>2024-09-06T12:01:10Z</time>
      </trkpt>
      <trkpt lat="47.31655" lon="3.99506">
        <ele>384.9</ele>
        <time>2024-09-06T12:01:16.499Z</time>
      </trkpt>
      <trkpt lat="47.31648" lon="3.99508">
        <ele>383.4</ele>
        <time>2024-09-06T12:01:23Z</time>
      </trkpt>
      <trkpt lat="47.31641" lon="3.99511">
        <ele>381.9</ele>
        <time>2024-09-06T12:01:30.499Z</time>
      </trkpt>
      <trkpt lat="47.31633" lon="3.99514">
        <ele>380.9</ele>
        <time>2024-09-06T12:01:38Z</time>
      </trkpt>
      <trkpt lat="47.31629" lon="3.99525">
        <ele>381.7</ele>
        <time>2024-09-06T12:01:50Z</time>
      </trkpt>
      <trkpt lat="47.31625" lon="3.9953">
        <ele>381.5</ele>
        <time>2024-09-06T12:01:56.499Z</time>
      </trkpt>
      <trkpt lat="47.31621" lon="3.99535">
        <ele>381.4</ele>
        <time>2024-09-06T12:02:03Z</time>
      </trkpt>
      <trkpt lat="47.31617" lon="3.99539">
        <ele>380.6</ele>
        <time>2024-09-06T12:02:09.499Z</time>
      </trkpt>
      <trkpt lat="47.31612" lon="3.99543">
        <ele>379.5</ele>
        <time>2024-09-06T12:02:16Z</time>
      </trkpt>
      <trkpt lat="47.31608" lon="3.99547">
        <ele>379.3</ele>
        <time>2024-09-06T12:02:21.499Z</time>
      </trkpt>
      <trkpt lat="47.31604" lon="3.9955">
        <ele>379.1</ele>
        <time>2024-09-06T12:02:27Z</time>
      </trkpt>
      <trkpt lat="47.31599" lon="3.99555">
        <ele>378.8</ele>
        <time>2024-09-06T12:02:33.499Z</time>
      </trkpt>
      <trkpt lat="47.31594" lon="3.9956">
        <ele>378.4</ele>
        <time>2024-09-06T12:02:40Z</time>
      </trkpt>
      <trkpt lat="47.31593" lon="3.99568">
        <ele>379.1</ele>
        <time>2024-09-06T12:02:49.999Z</time>
      </trkpt>
      <trkpt lat="47.31592" lon="3.99575">
        <ele>379.6</ele>
        <time>2024-09-06T12:03:00Z</time>
      </trkpt>
      <trkpt lat="47.31588" lon="3.99582">
        <ele>378.8</ele>
        <time>2024-09-06T12:03:05.999Z</time>
      </trkpt>
      <trkpt lat="47.31584" lon="3.99589">
        <ele>378.7</ele>
        <time>2024-09-06T12:03:12Z</time>
      </trkpt>
      <trkpt lat="47.31581" lon="3.99595">
        <ele>379.6</ele>
        <time>2024-09-06T12:03:18.999Z</time>
      </trkpt>
      <trkpt lat="47.31578" lon="3.996">
        <ele>380.4</ele>
        <time>2024-09-06T12:03:26Z</time>
      </trkpt>
      <trkpt lat="47.31574" lon="3.99607">
        <ele>380.9</ele>
        <time>2024-09-06T12:03:32.499Z</time>
      </trkpt>
      <trkpt lat="47.31569" lon="3.99614">
        <ele>381</ele>
        <time>2024-09-06T12:03:39Z</time>
      </trkpt>
      <trkpt lat="47.31562" lon="3.9962">
        <ele>379.9</ele>
        <time>2024-09-06T12:03:52Z</time>
      </trkpt>
      <trkpt lat="47.31558" lon="3.99623">
        <ele>378.6</ele>
        <time>2024-09-06T12:04:00.499Z</time>
      </trkpt>
      <trkpt lat="47.31553" lon="3.99626">
        <ele>378</ele>
        <time>2024-09-06T12:04:09Z</time>
      </trkpt>
      <trkpt lat="47.3155" lon="3.99633">
        <ele>378.3</ele>
        <time>2024-09-06T12:04:12.999Z</time>
      </trkpt>
      <trkpt lat="47.31547" lon="3.99641">
        <ele>378.7</ele>
        <time>2024-09-06T12:04:16.999Z</time>
      </trkpt>
      <trkpt lat="47.31544" lon="3.99648">
        <ele>379.5</ele>
        <time>2024-09-06T12:04:20.999Z</time>
      </trkpt>
      <trkpt lat="47.31541" lon="3.99655">
        <ele>379.9</ele>
        <time>2024-09-06T12:04:25Z</time>
      </trkpt>
      <trkpt lat="47.31536" lon="3.99665">
        <ele>379.5</ele>
        <time>2024-09-06T12:04:39Z</time>
      </trkpt>
      <trkpt lat="47.31533" lon="3.99675">
        <ele>380.2</ele>
        <time>2024-09-06T12:04:46.999Z</time>
      </trkpt>
      <trkpt lat="47.3153" lon="3.99685">
        <ele>380.6</ele>
        <time>2024-09-06T12:04:55Z</time>
      </trkpt>
      <trkpt lat="47.31529" lon="3.99677">
        <ele>379</ele>
        <time>2024-09-06T12:05:22Z</time>
      </trkpt>
      <trkpt lat="47.31524" lon="3.99674">
        <ele>377.9</ele>
        <time>2024-09-06T12:05:45Z</time>
      </trkpt>
      <trkpt lat="47.31526" lon="3.99682">
        <ele>379</ele>
        <time>2024-09-06T12:05:56.500Z</time>
      </trkpt>
      <trkpt lat="47.31527" lon="3.9969">
        <ele>380.3</ele>
        <time>2024-09-06T12:06:08Z</time>
      </trkpt>
      <trkpt lat="47.31524" lon="3.99697">
        <ele>381</ele>
        <time>2024-09-06T12:06:15.999Z</time>
      </trkpt>
      <trkpt lat="47.31521" lon="3.99704">
        <ele>381.9</ele>
        <time>2024-09-06T12:06:24Z</time>
      </trkpt>
      <trkpt lat="47.31519" lon="3.99711">
        <ele>382.6</ele>
        <time>2024-09-06T12:06:30.499Z</time>
      </trkpt>
      <trkpt lat="47.31516" lon="3.99717">
        <ele>382.9</ele>
        <time>2024-09-06T12:06:37Z</time>
      </trkpt>
      <trkpt lat="47.31512" lon="3.99721">
        <ele>382.1</ele>
        <time>2024-09-06T12:06:42.499Z</time>
      </trkpt>
      <trkpt lat="47.31508" lon="3.99724">
        <ele>381.4</ele>
        <time>2024-09-06T12:06:48Z</time>
      </trkpt>
      <trkpt lat="47.31503" lon="3.99726">
        <ele>380.2</ele>
        <time>2024-09-06T12:06:51.499Z</time>
      </trkpt>
      <trkpt lat="47.31499" lon="3.99729">
        <ele>379.5</ele>
        <time>2024-09-06T12:06:54.999Z</time>
      </trkpt>
      <trkpt lat="47.31494" lon="3.99731">
        <ele>379.6</ele>
        <time>2024-09-06T12:06:58.499Z</time>
      </trkpt>
      <trkpt lat="47.31489" lon="3.99733">
        <ele>379.6</ele>
        <time>2024-09-06T12:07:02Z</time>
      </trkpt>
      <trkpt lat="47.31484" lon="3.99736">
        <ele>379.3</ele>
        <time>2024-09-06T12:07:07.999Z</time>
      </trkpt>
      <trkpt lat="47.31478" lon="3.99738">
        <ele>378.9</ele>
        <time>2024-09-06T12:07:14Z</time>
      </trkpt>
      <trkpt lat="47.31474" lon="3.99743">
        <ele>378.8</ele>
        <time>2024-09-06T12:07:19.499Z</time>
      </trkpt>
      <trkpt lat="47.3147" lon="3.99748">
        <ele>378.8</ele>
        <time>2024-09-06T12:07:25Z</time>
      </trkpt>
      <trkpt lat="47.31464" lon="3.99756">
        <ele>379.4</ele>
        <time>2024-09-06T12:07:31.999Z</time>
      </trkpt>
      <trkpt lat="47.31458" lon="3.99764">
        <ele>379.7</ele>
        <time>2024-09-06T12:07:39Z</time>
      </trkpt>
      <trkpt lat="47.31453" lon="3.99768">
        <ele>379.5</ele>
        <time>2024-09-06T12:07:44.999Z</time>
      </trkpt>
      <trkpt lat="47.31448" lon="3.99771">
        <ele>379.2</ele>
        <time>2024-09-06T12:07:51Z</time>
      </trkpt>
      <trkpt lat="47.3145" lon="3.9978">
        <ele>380.1</ele>
        <time>2024-09-06T12:08:09Z</time>
      </trkpt>
      <trkpt lat="47.31446" lon="3.9979">
        <ele>380.6</ele>
        <time>2024-09-06T12:08:21Z</time>
      </trkpt>
      <trkpt lat="47.31442" lon="3.99797">
        <ele>380.9</ele>
        <time>2024-09-06T12:08:42Z</time>
      </trkpt>
      <trkpt lat="47.31441" lon="3.99804">
        <ele>381.4</ele>
        <time>2024-09-06T12:08:48.499Z</time>
      </trkpt>
      <trkpt lat="47.3144" lon="3.9981">
        <ele>381.8</ele>
        <time>2024-09-06T12:08:55Z</time>
      </trkpt>
      <trkpt lat="47.31446" lon="3.99816">
        <ele>383.2</ele>
        <time>2024-09-06T12:09:03.500Z</time>
      </trkpt>
      <trkpt lat="47.31452" lon="3.99821">
        <ele>385.7</ele>
        <time>2024-09-06T12:09:12Z</time>
      </trkpt>
      <trkpt lat="47.31447" lon="3.99826">
        <ele>384.4</ele>
        <time>2024-09-06T12:09:18.999Z</time>
      </trkpt>
      <trkpt lat="47.31442" lon="3.99831">
        <ele>383.6</ele>
        <time>2024-09-06T12:09:26Z</time>
      </trkpt>
      <trkpt lat="47.31437" lon="3.99831">
        <ele>383</ele>
        <time>2024-09-06T12:09:33.500Z</time>
      </trkpt>
      <trkpt lat="47.31432" lon="3.9983">
        <ele>382.4</ele>
        <time>2024-09-06T12:09:41Z</time>
      </trkpt>
      <trkpt lat="47.31428" lon="3.99833">
        <ele>382.2</ele>
        <time>2024-09-06T12:09:43.749Z</time>
      </trkpt>
      <trkpt lat="47.31424" lon="3.99837">
        <ele>382.5</ele>
        <time>2024-09-06T12:09:46.499Z</time>
      </trkpt>
      <trkpt lat="47.3142" lon="3.9984">
        <ele>382.9</ele>
        <time>2024-09-06T12:09:49.249Z</time>
      </trkpt>
      <trkpt lat="47.31416" lon="3.99843">
        <ele>383.3</ele>
        <time>2024-09-06T12:09:52Z</time>
      </trkpt>
      <trkpt lat="47.31409" lon="3.99847">
        <ele>382.8</ele>
        <time>2024-09-06T12:09:57.999Z</time>
      </trkpt>
      <trkpt lat="47.31401" lon="3.99851">
        <ele>382</ele>
        <time>2024-09-06T12:10:04Z</time>
      </trkpt>
      <trkpt lat="47.31397" lon="3.99855">
        <ele>381.4</ele>
        <time>2024-09-06T12:10:08.499Z</time>
      </trkpt>
      <trkpt lat="47.31392" lon="3.99858">
        <ele>380.6</ele>
        <time>2024-09-06T12:10:13Z</time>
      </trkpt>
      <trkpt lat="47.31388" lon="3.99861">
        <ele>379.9</ele>
        <time>2024-09-06T12:10:17.999Z</time>
      </trkpt>
      <trkpt lat="47.31383" lon="3.99864">
        <ele>380.3</ele>
        <time>2024-09-06T12:10:23Z</time>
      </trkpt>
      <trkpt lat="47.31379" lon="3.99869">
        <ele>380.9</ele>
        <time>2024-09-06T12:10:28.499Z</time>
      </trkpt>
      <trkpt lat="47.31375" lon="3.99874">
        <ele>381.1</ele>
        <time>2024-09-06T12:10:34Z</time>
      </trkpt>
      <trkpt lat="47.31371" lon="3.99881">
        <ele>381.1</ele>
        <time>2024-09-06T12:10:39.499Z</time>
      </trkpt>
      <trkpt lat="47.31367" lon="3.99887">
        <ele>380.7</ele>
        <time>2024-09-06T12:10:45Z</time>
      </trkpt>
      <trkpt lat="47.31364" lon="3.99892">
        <ele>380.7</ele>
        <time>2024-09-06T12:10:51.999Z</time>
      </trkpt>
      <trkpt lat="47.3136" lon="3.99897">
        <ele>381.2</ele>
        <time>2024-09-06T12:10:59Z</time>
      </trkpt>
      <trkpt lat="47.31356" lon="3.99905">
        <ele>382.7</ele>
        <time>2024-09-06T12:11:03.749Z</time>
      </trkpt>
      <trkpt lat="47.31352" lon="3.99913">
        <ele>383.4</ele>
        <time>2024-09-06T12:11:08.499Z</time>
      </trkpt>
      <trkpt lat="47.31347" lon="3.9992">
        <ele>383.9</ele>
        <time>2024-09-06T12:11:13.249Z</time>
      </trkpt>
      <trkpt lat="47.31343" lon="3.99928">
        <ele>384.1</ele>
        <time>2024-09-06T12:11:18Z</time>
      </trkpt>
      <trkpt lat="47.31338" lon="3.99936">
        <ele>383.4</ele>
        <time>2024-09-06T12:11:23.499Z</time>
      </trkpt>
      <trkpt lat="47.31334" lon="3.99944">
        <ele>382</ele>
        <time>2024-09-06T12:11:28.999Z</time>
      </trkpt>
      <trkpt lat="47.31329" lon="3.99951">
        <ele>383.6</ele>
        <time>2024-09-06T12:11:34.499Z</time>
      </trkpt>
      <trkpt lat="47.31324" lon="3.99959">
        <ele>384.8</ele>
        <time>2024-09-06T12:11:40Z</time>
      </trkpt>
      <trkpt lat="47.3132" lon="3.99964">
        <ele>385</ele>
        <time>2024-09-06T12:11:44.249Z</time>
      </trkpt>
      <trkpt lat="47.31316" lon="3.9997">
        <ele>384.6</ele>
        <time>2024-09-06T12:11:48.499Z</time>
      </trkpt>
      <trkpt lat="47.31312" lon="3.99975">
        <ele>384.8</ele>
        <time>2024-09-06T12:11:52.749Z</time>
      </trkpt>
      <trkpt lat="47.31308" lon="3.9998">
        <ele>385.7</ele>
        <time>2024-09-06T12:11:57Z</time>
      </trkpt>
      <trkpt lat="47.31302" lon="3.99984">
        <ele>385.5</ele>
        <time>2024-09-06T12:12:03.499Z</time>
      </trkpt>
      <trkpt lat="47.31295" lon="3.99987">
        <ele>385.5</ele>
        <time>2024-09-06T12:12:10Z</time>
      </trkpt>
      <trkpt lat="47.31291" lon="3.99989">
        <ele>385</ele>
        <time>2024-09-06T12:12:14.999Z</time>
      </trkpt>
      <trkpt lat="47.31286" lon="3.99991">
        <ele>384.3</ele>
        <time>2024-09-06T12:12:20Z</time>
      </trkpt>
      <trkpt lat="47.31281" lon="3.99996">
        <ele>383.5</ele>
        <time>2024-09-06T12:12:25.499Z</time>
      </trkpt>
      <trkpt lat="47.31275" lon="4.00001">
        <ele>383.2</ele>
        <time>2024-09-06T12:12:31Z</time>
      </trkpt>
      <trkpt lat="47.31276" lon="4.00001">
        <ele>383.3</ele>
        <time>2024-09-06T12:13:25Z</time>
      </trkpt>
      <trkpt lat="47.31272" lon="4.00007">
        <ele>384.9</ele>
        <time>2024-09-06T12:13:48Z</time>
      </trkpt>
      <trkpt lat="47.31264" lon="4.00003">
        <ele>383.2</ele>
        <time>2024-09-06T12:14:00Z</time>
      </trkpt>
      <trkpt lat="47.3126" lon="4.0001">
        <ele>384.2</ele>
        <time>2024-09-06T12:14:06.999Z</time>
      </trkpt>
      <trkpt lat="47.31257" lon="4.00018">
        <ele>384.7</ele>
        <time>2024-09-06T12:14:13.999Z</time>
      </trkpt>
      <trkpt lat="47.31253" lon="4.00025">
        <ele>384.6</ele>
        <time>2024-09-06T12:14:20.999Z</time>
      </trkpt>
      <trkpt lat="47.31249" lon="4.00032">
        <ele>384.8</ele>
        <time>2024-09-06T12:14:28Z</time>
      </trkpt>
      <trkpt lat="47.31245" lon="4.00043">
        <ele>386.2</ele>
        <time>2024-09-06T12:14:34.999Z</time>
      </trkpt>
      <trkpt lat="47.31241" lon="4.00053">
        <ele>387</ele>
        <time>2024-09-06T12:14:42Z</time>
      </trkpt>
      <trkpt lat="47.31237" lon="4.00062">
        <ele>387.4</ele>
        <time>2024-09-06T12:14:48.499Z</time>
      </trkpt>
      <trkpt lat="47.31233" lon="4.00071">
        <ele>387.9</ele>
        <time>2024-09-06T12:14:55Z</time>
      </trkpt>
      <trkpt lat="47.31227" lon="4.0008">
        <ele>387.8</ele>
        <time>2024-09-06T12:15:06Z</time>
      </trkpt>
      <trkpt lat="47.31223" lon="4.00086">
        <ele>387.8</ele>
        <time>2024-09-06T12:15:11.999Z</time>
      </trkpt>
      <trkpt lat="47.31219" lon="4.00092">
        <ele>388.4</ele>
        <time>2024-09-06T12:15:18Z</time>
      </trkpt>
      <trkpt lat="47.31214" lon="4.001">
        <ele>389.3</ele>
        <time>2024-09-06T12:15:25.999Z</time>
      </trkpt>
      <trkpt lat="47.31209" lon="4.00107">
        <ele>390.2</ele>
        <time>2024-09-06T12:15:34Z</time>
      </trkpt>
      <trkpt lat="47.31205" lon="4.00111">
        <ele>390.5</ele>
        <time>2024-09-06T12:15:38.499Z</time>
      </trkpt>
      <trkpt lat="47.31201" lon="4.00116">
        <ele>390.9</ele>
        <time>2024-09-06T12:15:42.999Z</time>
      </trkpt>
      <trkpt lat="47.31196" lon="4.0012">
        <ele>391.4</ele>
        <time>2024-09-06T12:15:47.499Z</time>
      </trkpt>
      <trkpt lat="47.31192" lon="4.00124">
        <ele>391.8</ele>
        <time>2024-09-06T12:15:52Z</time>
      </trkpt>
      <trkpt lat="47.31184" lon="4.0013">
        <ele>391.8</ele>
        <time>2024-09-06T12:16:04Z</time>
      </trkpt>
      <trkpt lat="47.3118" lon="4.00137">
        <ele>392.8</ele>
        <time>2024-09-06T12:16:10.499Z</time>
      </trkpt>
      <trkpt lat="47.31175" lon="4.00144">
        <ele>393.3</ele>
        <time>2024-09-06T12:16:17Z</time>
      </trkpt>
      <trkpt lat="47.31173" lon="4.00154">
        <ele>394.4</ele>
        <time>2024-09-06T12:16:23.499Z</time>
      </trkpt>
      <trkpt lat="47.31171" lon="4.00163">
        <ele>395.4</ele>
        <time>2024-09-06T12:16:30Z</time>
      </trkpt>
      <trkpt lat="47.31169" lon="4.0017">
        <ele>395.9</ele>
        <time>2024-09-06T12:16:37.499Z</time>
      </trkpt>
      <trkpt lat="47.31167" lon="4.00177">
        <ele>396.2</ele>
        <time>2024-09-06T12:16:45Z</time>
      </trkpt>
      <trkpt lat="47.31168" lon="4.00184">
        <ele>397.1</ele>
        <time>2024-09-06T12:16:51.500Z</time>
      </trkpt>
      <trkpt lat="47.31168" lon="4.00191">
        <ele>397.9</ele>
        <time>2024-09-06T12:16:58Z</time>
      </trkpt>
      <trkpt lat="47.31167" lon="4.00195">
        <ele>398.1</ele>
        <time>2024-09-06T12:18:41Z</time>
      </trkpt>
      <trkpt lat="47.31173" lon="4.00193">
        <ele>399.2</ele>
        <time>2024-09-06T12:18:49.500Z</time>
      </trkpt>
      <trkpt lat="47.31179" lon="4.00191">
        <ele>400.3</ele>
        <time>2024-09-06T12:18:58Z</time>
      </trkpt>
      <trkpt lat="47.31186" lon="4.00188">
        <ele>401.5</ele>
        <time>2024-09-06T12:19:12Z</time>
      </trkpt>
      <trkpt lat="47.31194" lon="4.00185">
        <ele>402.9</ele>
        <time>2024-09-06T12:19:26Z</time>
      </trkpt>
      <trkpt lat="47.312" lon="4.00183">
        <ele>403.5</ele>
        <time>2024-09-06T12:19:33.500Z</time>
      </trkpt>
      <trkpt lat="47.31205" lon="4.0018">
        <ele>404.1</ele>
        <time>2024-09-06T12:19:41Z</time>
      </trkpt>
      <trkpt lat="47.31211" lon="4.00179">
        <ele>404.9</ele>
        <time>2024-09-06T12:19:47.500Z</time>
      </trkpt>
      <trkpt lat="47.31216" lon="4.00178">
        <ele>405.6</ele>
        <time>2024-09-06T12:19:54Z</time>
      </trkpt>
      <trkpt lat="47.31224" lon="4.0018">
        <ele>407.1</ele>
        <time>2024-09-06T12:20:02.500Z</time>
      </trkpt>
      <trkpt lat="47.31231" lon="4.00181">
        <ele>408.8</ele>
        <time>2024-09-06T12:20:11Z</time>
      </trkpt>
      <trkpt lat="47.31236" lon="4.00181">
        <ele>409.8</ele>
        <time>2024-09-06T12:20:17.500Z</time>
      </trkpt>
      <trkpt lat="47.31241" lon="4.00181">
        <ele>410.8</ele>
        <time>2024-09-06T12:20:24Z</time>
      </trkpt>
      <trkpt lat="47.31247" lon="4.00179">
        <ele>411.5</ele>
        <time>2024-09-06T12:20:30.500Z</time>
      </trkpt>
      <trkpt lat="47.31252" lon="4.00177">
        <ele>412.4</ele>
        <time>2024-09-06T12:20:37Z</time>
      </trkpt>
      <trkpt lat="47.31257" lon="4.00175">
        <ele>413.3</ele>
        <time>2024-09-06T12:20:44.500Z</time>
      </trkpt>
      <trkpt lat="47.31262" lon="4.00173">
        <ele>414.2</ele>
        <time>2024-09-06T12:20:52Z</time>
      </trkpt>
      <trkpt lat="47.31268" lon="4.00173">
        <ele>415.5</ele>
        <time>2024-09-06T12:20:59.500Z</time>
      </trkpt>
      <trkpt lat="47.31273" lon="4.00172">
        <ele>416.8</ele>
        <time>2024-09-06T12:21:07Z</time>
      </trkpt>
      <trkpt lat="47.31279" lon="4.00175">
        <ele>418.9</ele>
        <time>2024-09-06T12:21:37Z</time>
      </trkpt>
      <trkpt lat="47.31285" lon="4.00171">
        <ele>420.3</ele>
        <time>2024-09-06T12:22:06Z</time>
      </trkpt>
      <trkpt lat="47.31288" lon="4.00166">
        <ele>420.6</ele>
        <time>2024-09-06T12:22:13.000Z</time>
      </trkpt>
      <trkpt lat="47.31291" lon="4.00161">
        <ele>420.8</ele>
        <time>2024-09-06T12:22:20Z</time>
      </trkpt>
      <trkpt lat="47.31297" lon="4.00153">
        <ele>421.6</ele>
        <time>2024-09-06T12:22:35Z</time>
      </trkpt>
      <trkpt lat="47.31304" lon="4.00145">
        <ele>422.6</ele>
        <time>2024-09-06T12:22:47Z</time>
      </trkpt>
      <trkpt lat="47.3131" lon="4.00141">
        <ele>423.7</ele>
        <time>2024-09-06T12:22:54.500Z</time>
      </trkpt>
      <trkpt lat="47.31315" lon="4.00136">
        <ele>425.1</ele>
        <time>2024-09-06T12:23:02Z</time>
      </trkpt>
      <trkpt lat="47.31323" lon="4.00133">
        <ele>427.5</ele>
        <time>2024-09-06T12:23:18Z</time>
      </trkpt>
      <trkpt lat="47.31329" lon="4.00128">
        <ele>428.8</ele>
        <time>2024-09-06T12:23:25.500Z</time>
      </trkpt>
      <trkpt lat="47.31334" lon="4.00123">
        <ele>429.9</ele>
        <time>2024-09-06T12:23:33Z</time>
      </trkpt>
      <trkpt lat="47.31338" lon="4.00118">
        <ele>430.2</ele>
        <time>2024-09-06T12:23:39.500Z</time>
      </trkpt>
      <trkpt lat="47.31341" lon="4.00113">
        <ele>430.5</ele>
        <time>2024-09-06T12:23:46Z</time>
      </trkpt>
      <trkpt lat="47.31344" lon="4.00108">
        <ele>430.8</ele>
        <time>2024-09-06T12:23:54.500Z</time>
      </trkpt>
      <trkpt lat="47.31347" lon="4.00102">
        <ele>431.1</ele>
        <time>2024-09-06T12:24:03Z</time>
      </trkpt>
      <trkpt lat="47.3135" lon="4.00094">
        <ele>431.2</ele>
        <time>2024-09-06T12:24:13.000Z</time>
      </trkpt>
      <trkpt lat="47.31353" lon="4.00086">
        <ele>431.2</ele>
        <time>2024-09-06T12:24:23Z</time>
      </trkpt>
      <trkpt lat="47.31357" lon="4.0008">
        <ele>431.8</ele>
        <time>2024-09-06T12:24:29.500Z</time>
      </trkpt>
      <trkpt lat="47.3136" lon="4.00073">
        <ele>432.7</ele>
        <time>2024-09-06T12:24:36Z</time>
      </trkpt>
      <trkpt lat="47.31364" lon="4.00065">
        <ele>433.5</ele>
        <time>2024-09-06T12:24:42.000Z</time>
      </trkpt>
      <trkpt lat="47.31367" lon="4.00057">
        <ele>434.3</ele>
        <time>2024-09-06T12:24:48Z</time>
      </trkpt>
      <trkpt lat="47.31371" lon="4.0005">
        <ele>435.1</ele>
        <time>2024-09-06T12:24:54.500Z</time>
      </trkpt>
      <trkpt lat="47.31375" lon="4.00043">
        <ele>435.8</ele>
        <time>2024-09-06T12:25:01Z</time>
      </trkpt>
      <trkpt lat="47.31381" lon="4.00035">
        <ele>436.8</ele>
        <time>2024-09-06T12:25:09.500Z</time>
      </trkpt>
      <trkpt lat="47.31387" lon="4.00027">
        <ele>437.5</ele>
        <time>2024-09-06T12:25:18Z</time>
      </trkpt>
      <trkpt lat="47.31395" lon="4.00023">
        <ele>437.9</ele>
        <time>2024-09-06T12:25:29Z</time>
      </trkpt>
      <trkpt lat="47.314" lon="4.00022">
        <ele>438.1</ele>
        <time>2024-09-06T12:25:36.500Z</time>
      </trkpt>
      <trkpt lat="47.31405" lon="4.00021">
        <ele>438.3</ele>
        <time>2024-09-06T12:25:44Z</time>
      </trkpt>
      <trkpt lat="47.31413" lon="4.00027">
        <ele>440.4</ele>
        <time>2024-09-06T12:25:55Z</time>
      </trkpt>
      <trkpt lat="47.31418" lon="4.00032">
        <ele>441.3</ele>
        <time>2024-09-06T12:26:01.500Z</time>
      </trkpt>
      <trkpt lat="47.31423" lon="4.00036">
        <ele>441.6</ele>
        <time>2024-09-06T12:26:08Z</time>
      </trkpt>
      <trkpt lat="47.31429" lon="4.00046">
        <ele>442.6</ele>
        <time>2024-09-06T12:26:15.000Z</time>
      </trkpt>
      <trkpt lat="47.31435" lon="4.00055">
        <ele>443.9</ele>
        <time>2024-09-06T12:26:22Z</time>
      </trkpt>
      <trkpt lat="47.31439" lon="4.00061">
        <ele>444.5</ele>
        <time>2024-09-06T12:26:28.500Z</time>
      </trkpt>
      <trkpt lat="47.31442" lon="4.00067">
        <ele>445.2</ele>
        <time>2024-09-06T12:26:35Z</time>
      </trkpt>
      <trkpt lat="47.31445" lon="4.00075">
        <ele>446</ele>
        <time>2024-09-06T12:26:42.000Z</time>
      </trkpt>
      <trkpt lat="47.31447" lon="4.00082">
        <ele>446.7</ele>
        <time>2024-09-06T12:26:49Z</time>
      </trkpt>
      <trkpt lat="47.31448" lon="4.0009">
        <ele>447.8</ele>
        <time>2024-09-06T12:26:56.000Z</time>
      </trkpt>
      <trkpt lat="47.31449" lon="4.00097">
        <ele>449</ele>
        <time>2024-09-06T12:27:03Z</time>
      </trkpt>
      <trkpt lat="47.31452" lon="4.00108">
        <ele>450.7</ele>
        <time>2024-09-06T12:27:11.000Z</time>
      </trkpt>
      <trkpt lat="47.31455" lon="4.00118">
        <ele>452.5</ele>
        <time>2024-09-06T12:27:19Z</time>
      </trkpt>
      <trkpt lat="47.31461" lon="4.00124">
        <ele>453.7</ele>
        <time>2024-09-06T12:29:17.500Z</time>
      </trkpt>
      <trkpt lat="47.31467" lon="4.0013">
        <ele>455.1</ele>
        <time>2024-09-06T12:31:16Z</time>
      </trkpt>
      <trkpt lat="47.31472" lon="4.00131">
        <ele>455.5</ele>
        <time>2024-09-06T12:31:21.500Z</time>
      </trkpt>
      <trkpt lat="47.31476" lon="4.00132">
        <ele>455.8</ele>
        <time>2024-09-06T12:31:27Z</time>
      </trkpt>
      <trkpt lat="47.3148" lon="4.00138">
        <ele>457</ele>
        <time>2024-09-06T12:31:33.000Z</time>
      </trkpt>
      <trkpt lat="47.31484" lon="4.00143">
        <ele>458.2</ele>
        <time>2024-09-06T12:31:39Z</time>
      </trkpt>
      <trkpt lat="47.31488" lon="4.00149">
        <ele>459.5</ele>
        <time>2024-09-06T12:31:45.500Z</time>
      </trkpt>
      <trkpt lat="47.31492" lon="4.00155">
        <ele>460.8</ele>
        <time>2024-09-06T12:31:52Z</time>
      </trkpt>
      <trkpt lat="47.31497" lon="4.0016">
        <ele>461.7</ele>
        <time>2024-09-06T12:32:40.500Z</time>
      </trkpt>
      <trkpt lat="47.31502" lon="4.00164">
        <ele>462.4</ele>
        <time>2024-09-06T12:33:29Z</time>
      </trkpt>
      <trkpt lat="47.31507" lon="4.00171">
        <ele>463.5</ele>
        <time>2024-09-06T12:34:01.750Z</time>
      </trkpt>
      <trkpt lat="47.31511" lon="4.00178">
        <ele>464.7</ele>
        <time>2024-09-06T12:34:34.500Z</time>
      </trkpt>
      <trkpt lat="47.31516" lon="4.00185">
        <ele>465.8</ele>
        <time>2024-09-06T12:35:07.250Z</time>
      </trkpt>
      <trkpt lat="47.3152" lon="4.00192">
        <ele>467</ele>
        <time>2024-09-06T12:35:40Z</time>
      </trkpt>
      <trkpt lat="47.31522" lon="4.00199">
        <ele>468.2</ele>
        <time>2024-09-06T12:35:46.500Z</time>
      </trkpt>
      <trkpt lat="47.31524" lon="4.00206">
        <ele>469.4</ele>
        <time>2024-09-06T12:35:53Z</time>
      </trkpt>
      <trkpt lat="47.31527" lon="4.00215">
        <ele>470.8</ele>
        <time>2024-09-06T12:36:00.000Z</time>
      </trkpt>
      <trkpt lat="47.3153" lon="4.00224">
        <ele>472.2</ele>
        <time>2024-09-06T12:36:07Z</time>
      </trkpt>
      <trkpt lat="47.31533" lon="4.0023">
        <ele>473.2</ele>
        <time>2024-09-06T12:36:14.000Z</time>
      </trkpt>
      <trkpt lat="47.31536" lon="4.00236">
        <ele>474.2</ele>
        <time>2024-09-06T12:36:21Z</time>
      </trkpt>
      <trkpt lat="47.31539" lon="4.00244">
        <ele>475.4</ele>
        <time>2024-09-06T12:36:27.500Z</time>
      </trkpt>
      <trkpt lat="47.31542" lon="4.00251">
        <ele>476.7</ele>
        <time>2024-09-06T12:36:34Z</time>
      </trkpt>
      <trkpt lat="47.31545" lon="4.0026">
        <ele>478</ele>
        <time>2024-09-06T12:36:41.500Z</time>
      </trkpt>
      <trkpt lat="47.31548" lon="4.00269">
        <ele>479.5</ele>
        <time>2024-09-06T12:36:49Z</time>
      </trkpt>
      <trkpt lat="47.3155" lon="4.00278">
        <ele>481</ele>
        <time>2024-09-06T12:36:56.000Z</time>
      </trkpt>
      <trkpt lat="47.31551" lon="4.00287">
        <ele>482.3</ele>
        <time>2024-09-06T12:37:03Z</time>
      </trkpt>
      <trkpt lat="47.31553" lon="4.00295">
        <ele>483.5</ele>
        <time>2024-09-06T12:37:11.000Z</time>
      </trkpt>
      <trkpt lat="47.31554" lon="4.00303">
        <ele>484.6</ele>
        <time>2024-09-06T12:37:19Z</time>
      </trkpt>
      <trkpt lat="47.31556" lon="4.00312">
        <ele>485.9</ele>
        <time>2024-09-06T12:37:27.000Z</time>
      </trkpt>
      <trkpt lat="47.31558" lon="4.0032">
        <ele>487.3</ele>
        <time>2024-09-06T12:37:35Z</time>
      </trkpt>
      <trkpt lat="47.31562" lon="4.00325">
        <ele>488.2</ele>
        <time>2024-09-06T12:37:42.000Z</time>
      </trkpt>
      <trkpt lat="47.31565" lon="4.0033">
        <ele>489.2</ele>
        <time>2024-09-06T12:37:49Z</time>
      </trkpt>
      <trkpt lat="47.31566" lon="4.00337">
        <ele>490.2</ele>
        <time>2024-09-06T12:37:55.500Z</time>
      </trkpt>
      <trkpt lat="47.31567" lon="4.00343">
        <ele>491.1</ele>
        <time>2024-09-06T12:38:02Z</time>
      </trkpt>
      <trkpt lat="47.3157" lon="4.00349">
        <ele>492</ele>
        <time>2024-09-06T12:38:08.500Z</time>
      </trkpt>
      <trkpt lat="47.31572" lon="4.00355">
        <ele>492.8</ele>
        <time>2024-09-06T12:38:15Z</time>
      </trkpt>
      <trkpt lat="47.31575" lon="4.00362">
        <ele>493.7</ele>
        <time>2024-09-06T12:38:22.500Z</time>
      </trkpt>
      <trkpt lat="47.31577" lon="4.00368">
        <ele>494.5</ele>
        <time>2024-09-06T12:38:30Z</time>
      </trkpt>
      <trkpt lat="47.31579" lon="4.00374">
        <ele>495.2</ele>
        <time>2024-09-06T12:38:38.000Z</time>
      </trkpt>
      <trkpt lat="47.31581" lon="4.0038">
        <ele>496</ele>
        <time>2024-09-06T12:38:46Z</time>
      </trkpt>
      <trkpt lat="47.31586" lon="4.00386">
        <ele>496.9</ele>
        <time>2024-09-06T12:38:53.000Z</time>
      </trkpt>
      <trkpt lat="47.31591" lon="4.00391">
        <ele>498</ele>
        <time>2024-09-06T12:39:00Z</time>
      </trkpt>
      <trkpt lat="47.31598" lon="4.00398">
        <ele>499.4</ele>
        <time>2024-09-06T12:39:08.500Z</time>
      </trkpt>
      <trkpt lat="47.31605" lon="4.00405">
        <ele>500.6</ele>
        <time>2024-09-06T12:39:17Z</time>
      </trkpt>
      <trkpt lat="47.31611" lon="4.00409">
        <ele>501.4</ele>
        <time>2024-09-06T12:39:24.500Z</time>
      </trkpt>
      <trkpt lat="47.31616" lon="4.00412">
        <ele>502.2</ele>
        <time>2024-09-06T12:39:32Z</time>
      </trkpt>
      <trkpt lat="47.31622" lon="4.00416">
        <ele>503</ele>
        <time>2024-09-06T12:39:39.500Z</time>
      </trkpt>
      <trkpt lat="47.31627" lon="4.00419">
        <ele>503.9</ele>
        <time>2024-09-06T12:39:47Z</time>
      </trkpt>
      <trkpt lat="47.31632" lon="4.00427">
        <ele>504.8</ele>
        <time>2024-09-06T12:39:54.500Z</time>
      </trkpt>
      <trkpt lat="47.31637" lon="4.00435">
        <ele>505.5</ele>
        <time>2024-09-06T12:40:02Z</time>
      </trkpt>
      <trkpt lat="47.31642" lon="4.00441">
        <ele>506.1</ele>
        <time>2024-09-06T12:40:09.000Z</time>
      </trkpt>
      <trkpt lat="47.31647" lon="4.00446">
        <ele>506.7</ele>
        <time>2024-09-06T12:40:16Z</time>
      </trkpt>
      <trkpt lat="47.31652" lon="4.00452">
        <ele>507.5</ele>
        <time>2024-09-06T12:40:27.500Z</time>
      </trkpt>
      <trkpt lat="47.31657" lon="4.00458">
        <ele>508.3</ele>
        <time>2024-09-06T12:40:39Z</time>
      </trkpt>
      <trkpt lat="47.3166" lon="4.00465">
        <ele>508.9</ele>
        <time>2024-09-06T12:40:51.500Z</time>
      </trkpt>
      <trkpt lat="47.31662" lon="4.00471">
        <ele>509.6</ele>
        <time>2024-09-06T12:41:04Z</time>
      </trkpt>
      <trkpt lat="47.31667" lon="4.00475">
        <ele>510.2</ele>
        <time>2024-09-06T12:41:23Z</time>
      </trkpt>
      <trkpt lat="47.31671" lon="4.00479">
        <ele>510.6</ele>
        <time>2024-09-06T12:41:32.000Z</time>
      </trkpt>
      <trkpt lat="47.31675" lon="4.00483">
        <ele>511.1</ele>
        <time>2024-09-06T12:41:41Z</time>
      </trkpt>
      <trkpt lat="47.3168" lon="4.00493">
        <ele>512</ele>
        <time>2024-09-06T12:41:55Z</time>
      </trkpt>
      <trkpt lat="47.31684" lon="4.005">
        <ele>512.6</ele>
        <time>2024-09-06T12:42:02.000Z</time>
      </trkpt>
      <trkpt lat="47.31688" lon="4.00506">
        <ele>513.3</ele>
        <time>2024-09-06T12:42:09Z</time>
      </trkpt>
      <trkpt lat="47.3169" lon="4.00509">
        <ele>513.5</ele>
        <time>2024-09-06T12:42:26Z</time>
      </trkpt>
      <trkpt lat="47.31688" lon="4.0051">
        <ele>513.6</ele>
        <time>2024-09-06T12:42:55Z</time>
      </trkpt>
      <trkpt lat="47.31691" lon="4.00504">
        <ele>513.2</ele>
        <time>2024-09-06T12:43:23Z</time>
      </trkpt>
      <trkpt lat="47.31696" lon="4.00515">
        <ele>513.7</ele>
        <time>2024-09-06T12:43:51Z</time>
      </trkpt>
      <trkpt lat="47.31698" lon="4.00524">
        <ele>514</ele>
        <time>2024-09-06T12:43:58.500Z</time>
      </trkpt>
      <trkpt lat="47.317" lon="4.00532">
        <ele>514.6</ele>
        <time>2024-09-06T12:44:06Z</time>
      </trkpt>
      <trkpt lat="47.31702" lon="4.00543">
        <ele>516</ele>
        <time>2024-09-06T12:44:14.000Z</time>
      </trkpt>
      <trkpt lat="47.31704" lon="4.00554">
        <ele>517.4</ele>
        <time>2024-09-06T12:44:22Z</time>
      </trkpt>
      <trkpt lat="47.31707" lon="4.00562">
        <ele>518.1</ele>
        <time>2024-09-06T12:44:29.500Z</time>
      </trkpt>
      <trkpt lat="47.31709" lon="4.00569">
        <ele>518.9</ele>
        <time>2024-09-06T12:44:37Z</time>
      </trkpt>
      <trkpt lat="47.31713" lon="4.00578">
        <ele>519.8</ele>
        <time>2024-09-06T12:44:44.000Z</time>
      </trkpt>
      <trkpt lat="47.31716" lon="4.00586">
        <ele>520.9</ele>
        <time>2024-09-06T12:44:51Z</time>
      </trkpt>
      <trkpt lat="47.3172" lon="4.00593">
        <ele>521.6</ele>
        <time>2024-09-06T12:44:58.000Z</time>
      </trkpt>
      <trkpt lat="47.31724" lon="4.006">
        <ele>522</ele>
        <time>2024-09-06T12:45:05Z</time>
      </trkpt>
      <trkpt lat="47.31727" lon="4.00607">
        <ele>522.4</ele>
        <time>2024-09-06T12:45:12.000Z</time>
      </trkpt>
      <trkpt lat="47.31729" lon="4.00613">
        <ele>522.8</ele>
        <time>2024-09-06T12:45:19Z</time>
      </trkpt>
      <trkpt lat="47.31731" lon="4.00622">
        <ele>523.8</ele>
        <time>2024-09-06T12:45:25.500Z</time>
      </trkpt>
      <trkpt lat="47.31733" lon="4.0063">
        <ele>524.9</ele>
        <time>2024-09-06T12:45:32Z</time>
      </trkpt>
      <trkpt lat="47.31736" lon="4.00637">
        <ele>525.8</ele>
        <time>2024-09-06T12:45:38.500Z</time>
      </trkpt>
      <trkpt lat="47.31738" lon="4.00644">
        <ele>526.6</ele>
        <time>2024-09-06T12:45:45Z</time>
      </trkpt>
      <trkpt lat="47.31744" lon="4.00652">
        <ele>527.2</ele>
        <time>2024-09-06T12:45:53.000Z</time>
      </trkpt>
      <trkpt lat="47.31749" lon="4.00659">
        <ele>527.8</ele>
        <time>2024-09-06T12:46:01Z</time>
      </trkpt>
      <trkpt lat="47.31752" lon="4.00667">
        <ele>528.5</ele>
        <time>2024-09-06T12:46:07.500Z</time>
      </trkpt>
      <trkpt lat="47.31755" lon="4.00675">
        <ele>529</ele>
        <time>2024-09-06T12:46:14Z</time>
      </trkpt>
      <trkpt lat="47.31757" lon="4.00683">
        <ele>529.9</ele>
        <time>2024-09-06T12:46:20.500Z</time>
      </trkpt>
      <trkpt lat="47.31759" lon="4.00691">
        <ele>530.8</ele>
        <time>2024-09-06T12:46:27Z</time>
      </trkpt>
      <trkpt lat="47.3176" lon="4.007">
        <ele>531.8</ele>
        <time>2024-09-06T12:46:33.000Z</time>
      </trkpt>
      <trkpt lat="47.31761" lon="4.00708">
        <ele>532.7</ele>
        <time>2024-09-06T12:46:39Z</time>
      </trkpt>
      <trkpt lat="47.31764" lon="4.00717">
        <ele>533.4</ele>
        <time>2024-09-06T12:46:46.000Z</time>
      </trkpt>
      <trkpt lat="47.31766" lon="4.00726">
        <ele>534.1</ele>
        <time>2024-09-06T12:46:53Z</time>
      </trkpt>
      <trkpt lat="47.31768" lon="4.00735">
        <ele>534.8</ele>
        <time>2024-09-06T12:46:59.500Z</time>
      </trkpt>
      <trkpt lat="47.3177" lon="4.00744">
        <ele>535.5</ele>
        <time>2024-09-06T12:47:06Z</time>
      </trkpt>
      <trkpt lat="47.31772" lon="4.00753">
        <ele>536.1</ele>
        <time>2024-09-06T12:47:11.500Z</time>
      </trkpt>
      <trkpt lat="47.31773" lon="4.00762">
        <ele>536.6</ele>
        <time>2024-09-06T12:47:17Z</time>
      </trkpt>
      <trkpt lat="47.31777" lon="4.0077">
        <ele>536.5</ele>
        <time>2024-09-06T12:47:22.500Z</time>
      </trkpt>
      <trkpt lat="47.31781" lon="4.00777">
        <ele>536.6</ele>
        <time>2024-09-06T12:47:28Z</time>
      </trkpt>
      <trkpt lat="47.31782" lon="4.00786">
        <ele>537.1</ele>
        <time>2024-09-06T12:47:34.500Z</time>
      </trkpt>
      <trkpt lat="47.31782" lon="4.00794">
        <ele>537.6</ele>
        <time>2024-09-06T12:47:41Z</time>
      </trkpt>
      <trkpt lat="47.3178" lon="4.00802">
        <ele>538.4</ele>
        <time>2024-09-06T12:47:47.499Z</time>
      </trkpt>
      <trkpt lat="47.31778" lon="4.0081">
        <ele>539.3</ele>
        <time>2024-09-06T12:47:54Z</time>
      </trkpt>
      <trkpt lat="47.31773" lon="4.00818">
        <ele>540.8</ele>
        <time>2024-09-06T12:48:08Z</time>
      </trkpt>
      <trkpt lat="47.31768" lon="4.00819">
        <ele>541.9</ele>
        <time>2024-09-06T12:48:30Z</time>
      </trkpt>
      <trkpt lat="47.31767" lon="4.00819">
        <ele>542.1</ele>
        <time>2024-09-06T12:49:25Z</time>
      </trkpt>
      <trkpt lat="47.31759" lon="4.00816">
        <ele>543.4</ele>
        <time>2024-09-06T12:50:32Z</time>
      </trkpt>
      <trkpt lat="47.31753" lon="4.00817">
        <ele>544.7</ele>
        <time>2024-09-06T12:50:39.500Z</time>
      </trkpt>
      <trkpt lat="47.31747" lon="4.00818">
        <ele>545.9</ele>
        <time>2024-09-06T12:50:47Z</time>
      </trkpt>
      <trkpt lat="47.31741" lon="4.00819">
        <ele>547.1</ele>
        <time>2024-09-06T12:50:54.000Z</time>
      </trkpt>
      <trkpt lat="47.31735" lon="4.0082">
        <ele>548.3</ele>
        <time>2024-09-06T12:51:01Z</time>
      </trkpt>
      <trkpt lat="47.3173" lon="4.00821">
        <ele>549.3</ele>
        <time>2024-09-06T12:51:07.000Z</time>
      </trkpt>
      <trkpt lat="47.31724" lon="4.00821">
        <ele>550.3</ele>
        <time>2024-09-06T12:51:13Z</time>
      </trkpt>
      <trkpt lat="47.31719" lon="4.0082">
        <ele>551.1</ele>
        <time>2024-09-06T12:51:18.000Z</time>
      </trkpt>
      <trkpt lat="47.31713" lon="4.00819">
        <ele>551.8</ele>
        <time>2024-09-06T12:51:23Z</time>
      </trkpt>
      <trkpt lat="47.31708" lon="4.00818">
        <ele>552.5</ele>
        <time>2024-09-06T12:51:29.500Z</time>
      </trkpt>
      <trkpt lat="47.31702" lon="4.00817">
        <ele>553.1</ele>
        <time>2024-09-06T12:51:36Z</time>
      </trkpt>
      <trkpt lat="47.31696" lon="4.00817">
        <ele>554</ele>
        <time>2024-09-06T12:51:42.500Z</time>
      </trkpt>
      <trkpt lat="47.3169" lon="4.00816">
        <ele>554.9</ele>
        <time>2024-09-06T12:51:49Z</time>
      </trkpt>
      <trkpt lat="47.31685" lon="4.00816">
        <ele>555.7</ele>
        <time>2024-09-06T12:51:55.000Z</time>
      </trkpt>
      <trkpt lat="47.31679" lon="4.00815">
        <ele>556.6</ele>
        <time>2024-09-06T12:52:01Z</time>
      </trkpt>
      <trkpt lat="47.31674" lon="4.00815">
        <ele>557.5</ele>
        <time>2024-09-06T12:52:07.000Z</time>
      </trkpt>
      <trkpt lat="47.31668" lon="4.00814">
        <ele>558.4</ele>
        <time>2024-09-06T12:52:13Z</time>
      </trkpt>
      <trkpt lat="47.31665" lon="4.00815">
        <ele>558.9</ele>
        <time>2024-09-06T12:52:28Z</time>
      </trkpt>
      <trkpt lat="47.31667" lon="4.00813">
        <ele>558.5</ele>
        <time>2024-09-06T12:52:51Z</time>
      </trkpt>
      <trkpt lat="47.31662" lon="4.00813">
        <ele>559</ele>
        <time>2024-09-06T12:53:17Z</time>
      </trkpt>
      <trkpt lat="47.31657" lon="4.00812">
        <ele>559.5</ele>
        <time>2024-09-06T12:53:27.999Z</time>
      </trkpt>
      <trkpt lat="47.31652" lon="4.0081">
        <ele>559.9</ele>
        <time>2024-09-06T12:53:39Z</time>
      </trkpt>
      <trkpt lat="47.31646" lon="4.00813">
        <ele>560.7</ele>
        <time>2024-09-06T12:53:44.499Z</time>
      </trkpt>
      <trkpt lat="47.3164" lon="4.00815">
        <ele>561.6</ele>
        <time>2024-09-06T12:53:50Z</time>
      </trkpt>
      <trkpt lat="47.31634" lon="4.00814">
        <ele>561.7</ele>
        <time>2024-09-06T12:53:56.000Z</time>
      </trkpt>
      <trkpt lat="47.31628" lon="4.00812">
        <ele>561.9</ele>
        <time>2024-09-06T12:54:02Z</time>
      </trkpt>
      <trkpt lat="47.31623" lon="4.00811">
        <ele>562</ele>
        <time>2024-09-06T12:54:08.000Z</time>
      </trkpt>
      <trkpt lat="47.31617" lon="4.0081">
        <ele>562.1</ele>
        <time>2024-09-06T12:54:14Z</time>
      </trkpt>
      <trkpt lat="47.31611" lon="4.00809">
        <ele>562.2</ele>
        <time>2024-09-06T12:54:20.500Z</time>
      </trkpt>
      <trkpt lat="47.31605" lon="4.00808">
        <ele>562.1</ele>
        <time>2024-09-06T12:54:27Z</time>
      </trkpt>
      <trkpt lat="47.31597" lon="4.00807">
        <ele>562.1</ele>
        <time>2024-09-06T12:54:32.500Z</time>
      </trkpt>
      <trkpt lat="47.31589" lon="4.00806">
        <ele>562</ele>
        <time>2024-09-06T12:54:38Z</time>
      </trkpt>
      <trkpt lat="47.31584" lon="4.00806">
        <ele>562</ele>
        <time>2024-09-06T12:54:43.000Z</time>
      </trkpt>
      <trkpt lat="47.31578" lon="4.00805">
        <ele>562.1</ele>
        <time>2024-09-06T12:54:48Z</time>
      </trkpt>
      <trkpt lat="47.31573" lon="4.00805">
        <ele>562.3</ele>
        <time>2024-09-06T12:54:53.000Z</time>
      </trkpt>
      <trkpt lat="47.31567" lon="4.00804">
        <ele>562.4</ele>
        <time>2024-09-06T12:54:58Z</time>
      </trkpt>
      <trkpt lat="47.31562" lon="4.00802">
        <ele>562.3</ele>
        <time>2024-09-06T12:55:04.499Z</time>
      </trkpt>
      <trkpt lat="47.31556" lon="4.00799">
        <ele>562.3</ele>
        <time>2024-09-06T12:55:11Z</time>
      </trkpt>
      <trkpt lat="47.31551" lon="4.008">
        <ele>561.9</ele>
        <time>2024-09-06T12:55:20.000Z</time>
      </trkpt>
      <trkpt lat="47.31546" lon="4.00801">
        <ele>561.4</ele>
        <time>2024-09-06T12:55:29Z</time>
      </trkpt>
      <trkpt lat="47.31542" lon="4.00798">
        <ele>560.9</ele>
        <time>2024-09-06T12:56:19.999Z</time>
      </trkpt>
      <trkpt lat="47.31538" lon="4.00794">
        <ele>560.5</ele>
        <time>2024-09-06T12:57:11Z</time>
      </trkpt>
      <trkpt lat="47.31534" lon="4.00791">
        <ele>560.4</ele>
        <time>2024-09-06T12:57:15.499Z</time>
      </trkpt>
      <trkpt lat="47.3153" lon="4.00787">
        <ele>560.4</ele>
        <time>2024-09-06T12:57:20Z</time>
      </trkpt>
      <trkpt lat="47.31526" lon="4.00784">
        <ele>560.3</ele>
        <time>2024-09-06T12:57:24.999Z</time>
      </trkpt>
      <trkpt lat="47.31521" lon="4.00781">
        <ele>560.2</ele>
        <time>2024-09-06T12:57:30Z</time>
      </trkpt>
      <trkpt lat="47.31513" lon="4.00776">
        <ele>559.7</ele>
        <time>2024-09-06T12:57:40Z</time>
      </trkpt>
      <trkpt lat="47.31508" lon="4.00778">
        <ele>559.5</ele>
        <time>2024-09-06T12:57:45.999Z</time>
      </trkpt>
      <trkpt lat="47.31502" lon="4.0078">
        <ele>558.7</ele>
        <time>2024-09-06T12:57:52Z</time>
      </trkpt>
      <trkpt lat="47.31503" lon="4.00778">
        <ele>559.2</ele>
        <time>2024-09-06T12:58:36Z</time>
      </trkpt>
      <trkpt lat="47.31502" lon="4.00778">
        <ele>559.1</ele>
        <time>2024-09-06T12:58:52Z</time>
      </trkpt>
      <trkpt lat="47.31495" lon="4.00779">
        <ele>558.1</ele>
        <time>2024-09-06T12:58:57.500Z</time>
      </trkpt>
      <trkpt lat="47.31487" lon="4.0078">
        <ele>557</ele>
        <time>2024-09-06T12:59:03Z</time>
      </trkpt>
      <trkpt lat="47.31483" lon="4.00775">
        <ele>556.9</ele>
        <time>2024-09-06T12:59:08.499Z</time>
      </trkpt>
      <trkpt lat="47.31478" lon="4.00769">
        <ele>556.2</ele>
        <time>2024-09-06T12:59:14Z</time>
      </trkpt>
      <trkpt lat="47.31473" lon="4.0077">
        <ele>555.8</ele>
        <time>2024-09-06T12:59:19.500Z</time>
      </trkpt>
      <trkpt lat="47.31468" lon="4.0077">
        <ele>554.8</ele>
        <time>2024-09-06T12:59:25Z</time>
      </trkpt>
      <trkpt lat="47.31463" lon="4.00771">
        <ele>553.6</ele>
        <time>2024-09-06T12:59:33.500Z</time>
      </trkpt>
      <trkpt lat="47.31457" lon="4.00771">
        <ele>552.3</ele>
        <time>2024-09-06T12:59:42Z</time>
      </trkpt>
      <trkpt lat="47.31455" lon="4.00765">
        <ele>552.6</ele>
        <time>2024-09-06T13:00:14Z</time>
      </trkpt>
      <trkpt lat="47.31447" lon="4.00759">
        <ele>552.4</ele>
        <time>2024-09-06T13:00:36Z</time>
      </trkpt>
      <trkpt lat="47.31439" lon="4.00761">
        <ele>550.3</ele>
        <time>2024-09-06T13:01:02Z</time>
      </trkpt>
      <trkpt lat="47.31434" lon="4.00764">
        <ele>548.3</ele>
        <time>2024-09-06T13:01:49Z</time>
      </trkpt>
      <trkpt lat="47.31439" lon="4.00763">
        <ele>549.8</ele>
        <time>2024-09-06T13:02:21Z</time>
      </trkpt>
      <trkpt lat="47.31438" lon="4.00752">
        <ele>552.1</ele>
        <time>2024-09-06T13:02:46Z</time>
      </trkpt>
      <trkpt lat="47.31433" lon="4.00749">
        <ele>551.2</ele>
        <time>2024-09-06T13:02:54.999Z</time>
      </trkpt>
      <trkpt lat="47.31428" lon="4.00745">
        <ele>549.3</ele>
        <time>2024-09-06T13:03:04Z</time>
      </trkpt>
      <trkpt lat="47.31423" lon="4.00747">
        <ele>548.5</ele>
        <time>2024-09-06T13:03:27.999Z</time>
      </trkpt>
      <trkpt lat="47.31417" lon="4.00748">
        <ele>547.6</ele>
        <time>2024-09-06T13:03:52Z</time>
      </trkpt>
      <trkpt lat="47.31417" lon="4.00747">
        <ele>547.4</ele>
        <time>2024-09-06T13:05:26Z</time>
      </trkpt>
      <trkpt lat="47.31422" lon="4.00743">
        <ele>547.6</ele>
        <time>2024-09-06T13:06:05Z</time>
      </trkpt>
      <trkpt lat="47.31423" lon="4.00733">
        <ele>545.6</ele>
        <time>2024-09-06T13:08:42Z</time>
      </trkpt>
      <trkpt lat="47.31428" lon="4.00736">
        <ele>547.2</ele>
        <time>2024-09-06T13:08:50.500Z</time>
      </trkpt>
      <trkpt lat="47.31433" lon="4.00739">
        <ele>548.9</ele>
        <time>2024-09-06T13:08:59Z</time>
      </trkpt>
      <trkpt lat="47.31435" lon="4.00733">
        <ele>547.9</ele>
        <time>2024-09-06T13:09:11.000Z</time>
      </trkpt>
      <trkpt lat="47.31437" lon="4.00727">
        <ele>546.8</ele>
        <time>2024-09-06T13:09:23Z</time>
      </trkpt>
      <trkpt lat="47.31439" lon="4.0072">
        <ele>545.6</ele>
        <time>2024-09-06T13:09:29.500Z</time>
      </trkpt>
      <trkpt lat="47.31441" lon="4.00713">
        <ele>544.4</ele>
        <time>2024-09-06T13:09:36Z</time>
      </trkpt>
      <trkpt lat="47.31443" lon="4.00705">
        <ele>543</ele>
        <time>2024-09-06T13:09:44.000Z</time>
      </trkpt>
      <trkpt lat="47.31444" lon="4.00697">
        <ele>541.5</ele>
        <time>2024-09-06T13:09:52Z</time>
      </trkpt>
      <trkpt lat="47.31447" lon="4.00689">
        <ele>540.2</ele>
        <time>2024-09-06T13:09:58.500Z</time>
      </trkpt>
      <trkpt lat="47.31449" lon="4.0068">
        <ele>539</ele>
        <time>2024-09-06T13:10:05Z</time>
      </trkpt>
      <trkpt lat="47.31449" lon="4.00673">
        <ele>537.5</ele>
        <time>2024-09-06T13:10:11.499Z</time>
      </trkpt>
      <trkpt lat="47.31448" lon="4.00665">
        <ele>536.1</ele>
        <time>2024-09-06T13:10:18Z</time>
      </trkpt>
      <trkpt lat="47.31449" lon="4.00657">
        <ele>534.6</ele>
        <time>2024-09-06T13:10:24.500Z</time>
      </trkpt>
      <trkpt lat="47.31449" lon="4.00648">
        <ele>533.1</ele>
        <time>2024-09-06T13:10:31Z</time>
      </trkpt>
      <trkpt lat="47.3145" lon="4.0064">
        <ele>531.7</ele>
        <time>2024-09-06T13:10:39.000Z</time>
      </trkpt>
      <trkpt lat="47.3145" lon="4.00631">
        <ele>530.2</ele>
        <time>2024-09-06T13:10:47Z</time>
      </trkpt>
      <trkpt lat="47.3145" lon="4.00622">
        <ele>528.7</ele>
        <time>2024-09-06T13:10:54.000Z</time>
      </trkpt>
      <trkpt lat="47.3145" lon="4.00613">
        <ele>527.1</ele>
        <time>2024-09-06T13:11:01Z</time>
      </trkpt>
      <trkpt lat="47.31448" lon="4.00606">
        <ele>525.6</ele>
        <time>2024-09-06T13:11:07.999Z</time>
      </trkpt>
      <trkpt lat="47.31446" lon="4.00599">
        <ele>524</ele>
        <time>2024-09-06T13:11:15Z</time>
      </trkpt>
      <trkpt lat="47.31446" lon="4.00592">
        <ele>522.6</ele>
        <time>2024-09-06T13:11:21.999Z</time>
      </trkpt>
      <trkpt lat="47.31445" lon="4.00584">
        <ele>521.2</ele>
        <time>2024-09-06T13:11:29Z</time>
      </trkpt>
      <trkpt lat="47.31446" lon="4.00575">
        <ele>519</ele>
        <time>2024-09-06T13:11:36.000Z</time>
      </trkpt>
      <trkpt lat="47.31447" lon="4.00565">
        <ele>516.7</ele>
        <time>2024-09-06T13:11:43Z</time>
      </trkpt>
      <trkpt lat="47.3145" lon="4.00556">
        <ele>514.8</ele>
        <time>2024-09-06T13:11:50.500Z</time>
      </trkpt>
      <trkpt lat="47.31453" lon="4.00546">
        <ele>513.6</ele>
        <time>2024-09-06T13:11:58Z</time>
      </trkpt>
      <trkpt lat="47.31455" lon="4.00536">
        <ele>512.2</ele>
        <time>2024-09-06T13:12:06.000Z</time>
      </trkpt>
      <trkpt lat="47.31457" lon="4.00526">
        <ele>510.5</ele>
        <time>2024-09-06T13:12:14Z</time>
      </trkpt>
      <trkpt lat="47.31451" lon="4.00521">
        <ele>509.1</ele>
        <time>2024-09-06T13:12:27Z</time>
      </trkpt>
      <trkpt lat="47.31449" lon="4.00518">
        <ele>508.3</ele>
        <time>2024-09-06T13:13:06Z</time>
      </trkpt>
      <trkpt lat="47.31451" lon="4.00509">
        <ele>506.6</ele>
        <time>2024-09-06T13:13:23Z</time>
      </trkpt>
      <trkpt lat="47.31455" lon="4.00498">
        <ele>504.8</ele>
        <time>2024-09-06T13:13:38Z</time>
      </trkpt>
      <trkpt lat="47.31455" lon="4.00491">
        <ele>503.5</ele>
        <time>2024-09-06T13:13:44.500Z</time>
      </trkpt>
      <trkpt lat="47.31455" lon="4.00484">
        <ele>502.3</ele>
        <time>2024-09-06T13:13:51Z</time>
      </trkpt>
      <trkpt lat="47.31455" lon="4.00476">
        <ele>500.8</ele>
        <time>2024-09-06T13:13:56.999Z</time>
      </trkpt>
      <trkpt lat="47.31454" lon="4.00468">
        <ele>499.4</ele>
        <time>2024-09-06T13:14:03Z</time>
      </trkpt>
      <trkpt lat="47.3145" lon="4.00463">
        <ele>498.3</ele>
        <time>2024-09-06T13:14:10.999Z</time>
      </trkpt>
      <trkpt lat="47.31446" lon="4.00458">
        <ele>497.1</ele>
        <time>2024-09-06T13:14:19Z</time>
      </trkpt>
      <trkpt lat="47.31444" lon="4.00452">
        <ele>495.9</ele>
        <time>2024-09-06T13:14:25.999Z</time>
      </trkpt>
      <trkpt lat="47.31441" lon="4.00445">
        <ele>494.5</ele>
        <time>2024-09-06T13:14:33Z</time>
      </trkpt>
      <trkpt lat="47.31438" lon="4.0044">
        <ele>493</ele>
        <time>2024-09-06T13:14:39.499Z</time>
      </trkpt>
      <trkpt lat="47.31434" lon="4.00434">
        <ele>491.6</ele>
        <time>2024-09-06T13:14:46Z</time>
      </trkpt>
      <trkpt lat="47.31431" lon="4.00424">
        <ele>489.6</ele>
        <time>2024-09-06T13:15:03Z</time>
      </trkpt>
      <trkpt lat="47.31434" lon="4.00417">
        <ele>489.2</ele>
        <time>2024-09-06T13:15:19Z</time>
      </trkpt>
      <trkpt lat="47.31429" lon="4.00414">
        <ele>487.7</ele>
        <time>2024-09-06T13:15:27.499Z</time>
      </trkpt>
      <trkpt lat="47.31423" lon="4.0041">
        <ele>486.2</ele>
        <time>2024-09-06T13:15:36Z</time>
      </trkpt>
      <trkpt lat="47.31419" lon="4.00403">
        <ele>484.4</ele>
        <time>2024-09-06T13:15:42.999Z</time>
      </trkpt>
      <trkpt lat="47.31414" lon="4.00396">
        <ele>482.5</ele>
        <time>2024-09-06T13:15:50Z</time>
      </trkpt>
      <trkpt lat="47.31411" lon="4.0039">
        <ele>481</ele>
        <time>2024-09-06T13:15:55.499Z</time>
      </trkpt>
      <trkpt lat="47.31407" lon="4.00383">
        <ele>479.6</ele>
        <time>2024-09-06T13:16:01Z</time>
      </trkpt>
      <trkpt lat="47.31404" lon="4.00378">
        <ele>478.3</ele>
        <time>2024-09-06T13:16:06.499Z</time>
      </trkpt>
      <trkpt lat="47.314" lon="4.00373">
        <ele>476.9</ele>
        <time>2024-09-06T13:16:12Z</time>
      </trkpt>
      <trkpt lat="47.31396" lon="4.00362">
        <ele>474.7</ele>
        <time>2024-09-06T13:16:25Z</time>
      </trkpt>
      <trkpt lat="47.31395" lon="4.00354">
        <ele>473.4</ele>
        <time>2024-09-06T13:16:32.499Z</time>
      </trkpt>
      <trkpt lat="47.31393" lon="4.00346">
        <ele>472.2</ele>
        <time>2024-09-06T13:16:40Z</time>
      </trkpt>
      <trkpt lat="47.31391" lon="4.00338">
        <ele>470.9</ele>
        <time>2024-09-06T13:16:46.999Z</time>
      </trkpt>
      <trkpt lat="47.31389" lon="4.0033">
        <ele>469.5</ele>
        <time>2024-09-06T13:16:54Z</time>
      </trkpt>
      <trkpt lat="47.31385" lon="4.00328">
        <ele>468.2</ele>
        <time>2024-09-06T13:17:01.499Z</time>
      </trkpt>
      <trkpt lat="47.3138" lon="4.00325">
        <ele>467</ele>
        <time>2024-09-06T13:17:09Z</time>
      </trkpt>
      <trkpt lat="47.31378" lon="4.00318">
        <ele>465.5</ele>
        <time>2024-09-06T13:17:15.999Z</time>
      </trkpt>
      <trkpt lat="47.31375" lon="4.0031">
        <ele>464.1</ele>
        <time>2024-09-06T13:17:23Z</time>
      </trkpt>
      <trkpt lat="47.31376" lon="4.00301">
        <ele>463.3</ele>
        <time>2024-09-06T13:17:28.000Z</time>
      </trkpt>
      <trkpt lat="47.31377" lon="4.00292">
        <ele>462.7</ele>
        <time>2024-09-06T13:17:33Z</time>
      </trkpt>
      <trkpt lat="47.31379" lon="4.00285">
        <ele>462.4</ele>
        <time>2024-09-06T13:17:37.500Z</time>
      </trkpt>
      <trkpt lat="47.3138" lon="4.00278">
        <ele>462.1</ele>
        <time>2024-09-06T13:17:42Z</time>
      </trkpt>
      <trkpt lat="47.31382" lon="4.00269">
        <ele>461.3</ele>
        <time>2024-09-06T13:17:47.000Z</time>
      </trkpt>
      <trkpt lat="47.31384" lon="4.0026">
        <ele>460.5</ele>
        <time>2024-09-06T13:17:52Z</time>
      </trkpt>
      <trkpt lat="47.31385" lon="4.00251">
        <ele>459.4</ele>
        <time>2024-09-06T13:17:56.500Z</time>
      </trkpt>
      <trkpt lat="47.31386" lon="4.00242">
        <ele>458.6</ele>
        <time>2024-09-06T13:18:01Z</time>
      </trkpt>
      <trkpt lat="47.31388" lon="4.00235">
        <ele>458.1</ele>
        <time>2024-09-06T13:18:06.000Z</time>
      </trkpt>
      <trkpt lat="47.3139" lon="4.00227">
        <ele>457.8</ele>
        <time>2024-09-06T13:18:11Z</time>
      </trkpt>
      <trkpt lat="47.31392" lon="4.0022">
        <ele>457.2</ele>
        <time>2024-09-06T13:18:16.500Z</time>
      </trkpt>
      <trkpt lat="47.31393" lon="4.00213">
        <ele>456.6</ele>
        <time>2024-09-06T13:18:22Z</time>
      </trkpt>
      <trkpt lat="47.31396" lon="4.00204">
        <ele>455.8</ele>
        <time>2024-09-06T13:18:27.500Z</time>
      </trkpt>
      <trkpt lat="47.31399" lon="4.00194">
        <ele>455.1</ele>
        <time>2024-09-06T13:18:33Z</time>
      </trkpt>
      <trkpt lat="47.31406" lon="4.00187">
        <ele>455.6</ele>
        <time>2024-09-06T13:18:39.000Z</time>
      </trkpt>
      <trkpt lat="47.31413" lon="4.00179">
        <ele>456</ele>
        <time>2024-09-06T13:18:45Z</time>
      </trkpt>
      <trkpt lat="47.31416" lon="4.00172">
        <ele>455.4</ele>
        <time>2024-09-06T13:18:51.000Z</time>
      </trkpt>
      <trkpt lat="47.31418" lon="4.00164">
        <ele>454.9</ele>
        <time>2024-09-06T13:18:57Z</time>
      </trkpt>
      <trkpt lat="47.31422" lon="4.00157">
        <ele>454.6</ele>
        <time>2024-09-06T13:19:02.000Z</time>
      </trkpt>
      <trkpt lat="47.31425" lon="4.0015">
        <ele>454.2</ele>
        <time>2024-09-06T13:19:07Z</time>
      </trkpt>
      <trkpt lat="47.3143" lon="4.00139">
        <ele>453.5</ele>
        <time>2024-09-06T13:19:17Z</time>
      </trkpt>
      <trkpt lat="47.31433" lon="4.00134">
        <ele>453</ele>
        <time>2024-09-06T13:19:22.000Z</time>
      </trkpt>
      <trkpt lat="47.31436" lon="4.00128">
        <ele>452.5</ele>
        <time>2024-09-06T13:19:27Z</time>
      </trkpt>
      <trkpt lat="47.31441" lon="4.00123">
        <ele>452.3</ele>
        <time>2024-09-06T13:19:32.500Z</time>
      </trkpt>
      <trkpt lat="47.31446" lon="4.00118">
        <ele>452.1</ele>
        <time>2024-09-06T13:19:38Z</time>
      </trkpt>
      <trkpt lat="47.31451" lon="4.00116">
        <ele>452</ele>
        <time>2024-09-06T13:20:01Z</time>
      </trkpt>
      <trkpt lat="47.31451" lon="4.00103">
        <ele>449.9</ele>
        <time>2024-09-06T13:20:21Z</time>
      </trkpt>
      <trkpt lat="47.31449" lon="4.00096">
        <ele>448.8</ele>
        <time>2024-09-06T13:20:27.999Z</time>
      </trkpt>
      <trkpt lat="47.31446" lon="4.00089">
        <ele>447.8</ele>
        <time>2024-09-06T13:20:35Z</time>
      </trkpt>
      <trkpt lat="47.31444" lon="4.00078">
        <ele>446.4</ele>
        <time>2024-09-06T13:20:40.499Z</time>
      </trkpt>
      <trkpt lat="47.31442" lon="4.00067">
        <ele>445.2</ele>
        <time>2024-09-06T13:20:46Z</time>
      </trkpt>
      <trkpt lat="47.31439" lon="4.00061">
        <ele>444.5</ele>
        <time>2024-09-06T13:20:51.499Z</time>
      </trkpt>
      <trkpt lat="47.31436" lon="4.00055">
        <ele>443.9</ele>
        <time>2024-09-06T13:20:57Z</time>
      </trkpt>
      <trkpt lat="47.31435" lon="4.00048">
        <ele>442.8</ele>
        <time>2024-09-06T13:21:02.499Z</time>
      </trkpt>
      <trkpt lat="47.31433" lon="4.00041">
        <ele>441.8</ele>
        <time>2024-09-06T13:21:08Z</time>
      </trkpt>
      <trkpt lat="47.31431" lon="4.00033">
        <ele>440.7</ele>
        <time>2024-09-06T13:21:12.999Z</time>
      </trkpt>
      <trkpt lat="47.31429" lon="4.00024">
        <ele>439.1</ele>
        <time>2024-09-06T13:21:18Z</time>
      </trkpt>
      <trkpt lat="47.31424" lon="4.00019">
        <ele>438.2</ele>
        <time>2024-09-06T13:21:23.499Z</time>
      </trkpt>
      <trkpt lat="47.31419" lon="4.00014">
        <ele>437.3</ele>
        <time>2024-09-06T13:21:29Z</time>
      </trkpt>
      <trkpt lat="47.31414" lon="4.00013">
        <ele>437</ele>
        <time>2024-09-06T13:21:33.500Z</time>
      </trkpt>
      <trkpt lat="47.31409" lon="4.00011">
        <ele>436.4</ele>
        <time>2024-09-06T13:21:38Z</time>
      </trkpt>
      <trkpt lat="47.31404" lon="4.0001">
        <ele>435.9</ele>
        <time>2024-09-06T13:21:43.000Z</time>
      </trkpt>
      <trkpt lat="47.31399" lon="4.00008">
        <ele>435.5</ele>
        <time>2024-09-06T13:21:48Z</time>
      </trkpt>
      <trkpt lat="47.31395" lon="4.00017">
        <ele>436.7</ele>
        <time>2024-09-06T13:21:55.499Z</time>
      </trkpt>
      <trkpt lat="47.3139" lon="4.00025">
        <ele>437.7</ele>
        <time>2024-09-06T13:22:03Z</time>
      </trkpt>
      <trkpt lat="47.31387" lon="4.00033">
        <ele>437.7</ele>
        <time>2024-09-06T13:22:10.999Z</time>
      </trkpt>
      <trkpt lat="47.31383" lon="4.00041">
        <ele>437.3</ele>
        <time>2024-09-06T13:22:19Z</time>
      </trkpt>
      <trkpt lat="47.31379" lon="4.00051">
        <ele>436.7</ele>
        <time>2024-09-06T13:22:25.999Z</time>
      </trkpt>
      <trkpt lat="47.31374" lon="4.00061">
        <ele>435.9</ele>
        <time>2024-09-06T13:22:33Z</time>
      </trkpt>
      <trkpt lat="47.31371" lon="4.00068">
        <ele>435.3</ele>
        <time>2024-09-06T13:22:39.999Z</time>
      </trkpt>
      <trkpt lat="47.31368" lon="4.00075">
        <ele>434.7</ele>
        <time>2024-09-06T13:22:47Z</time>
      </trkpt>
      <trkpt lat="47.31364" lon="4.00084">
        <ele>433.7</ele>
        <time>2024-09-06T13:22:54.499Z</time>
      </trkpt>
      <trkpt lat="47.31359" lon="4.00093">
        <ele>433.5</ele>
        <time>2024-09-06T13:23:02Z</time>
      </trkpt>
      <trkpt lat="47.31354" lon="4.00099">
        <ele>432.6</ele>
        <time>2024-09-06T13:23:09.999Z</time>
      </trkpt>
      <trkpt lat="47.31348" lon="4.00105">
        <ele>431.7</ele>
        <time>2024-09-06T13:23:18Z</time>
      </trkpt>
      <trkpt lat="47.31343" lon="4.00111">
        <ele>430.8</ele>
        <time>2024-09-06T13:23:25.999Z</time>
      </trkpt>
      <trkpt lat="47.31338" lon="4.00117">
        <ele>430.2</ele>
        <time>2024-09-06T13:23:34Z</time>
      </trkpt>
      <trkpt lat="47.31335" lon="4.00121">
        <ele>429.8</ele>
        <time>2024-09-06T13:23:38.249Z</time>
      </trkpt>
      <trkpt lat="47.31331" lon="4.00126">
        <ele>429.3</ele>
        <time>2024-09-06T13:23:42.499Z</time>
      </trkpt>
      <trkpt lat="47.31328" lon="4.0013">
        <ele>428.6</ele>
        <time>2024-09-06T13:23:46.749Z</time>
      </trkpt>
      <trkpt lat="47.31324" lon="4.00134">
        <ele>428</ele>
        <time>2024-09-06T13:23:51Z</time>
      </trkpt>
      <trkpt lat="47.3132" lon="4.00139">
        <ele>427</ele>
        <time>2024-09-06T13:23:57.999Z</time>
      </trkpt>
      <trkpt lat="47.31315" lon="4.00143">
        <ele>426</ele>
        <time>2024-09-06T13:24:05Z</time>
      </trkpt>
      <trkpt lat="47.3131" lon="4.00146">
        <ele>424.9</ele>
        <time>2024-09-06T13:24:09.249Z</time>
      </trkpt>
      <trkpt lat="47.31306" lon="4.00149">
        <ele>423.8</ele>
        <time>2024-09-06T13:24:13.499Z</time>
      </trkpt>
      <trkpt lat="47.31301" lon="4.00152">
        <ele>422.7</ele>
        <time>2024-09-06T13:24:17.749Z</time>
      </trkpt>
      <trkpt lat="47.31296" lon="4.00155">
        <ele>421.6</ele>
        <time>2024-09-06T13:24:22Z</time>
      </trkpt>
      <trkpt lat="47.3129" lon="4.00158">
        <ele>419.8</ele>
        <time>2024-09-06T13:24:31.499Z</time>
      </trkpt>
      <trkpt lat="47.31283" lon="4.0016">
        <ele>417.9</ele>
        <time>2024-09-06T13:24:41Z</time>
      </trkpt>
      <trkpt lat="47.31276" lon="4.00164">
        <ele>416</ele>
        <time>2024-09-06T13:24:47.999Z</time>
      </trkpt>
      <trkpt lat="47.31268" lon="4.00167">
        <ele>414.6</ele>
        <time>2024-09-06T13:24:55Z</time>
      </trkpt>
      <trkpt lat="47.31261" lon="4.00169">
        <ele>413.2</ele>
        <time>2024-09-06T13:25:01.999Z</time>
      </trkpt>
      <trkpt lat="47.31254" lon="4.00171">
        <ele>411.8</ele>
        <time>2024-09-06T13:25:09Z</time>
      </trkpt>
      <trkpt lat="47.31246" lon="4.00173">
        <ele>410.2</ele>
        <time>2024-09-06T13:25:15.500Z</time>
      </trkpt>
      <trkpt lat="47.31237" lon="4.00174">
        <ele>408.9</ele>
        <time>2024-09-06T13:25:22Z</time>
      </trkpt>
      <trkpt lat="47.3123" lon="4.00176">
        <ele>407.8</ele>
        <time>2024-09-06T13:25:27.500Z</time>
      </trkpt>
      <trkpt lat="47.31223" lon="4.00177">
        <ele>406.6</ele>
        <time>2024-09-06T13:25:33Z</time>
      </trkpt>
      <trkpt lat="47.31218" lon="4.00178">
        <ele>406</ele>
        <time>2024-09-06T13:25:39.500Z</time>
      </trkpt>
      <trkpt lat="47.31213" lon="4.00179">
        <ele>405.3</ele>
        <time>2024-09-06T13:25:46Z</time>
      </trkpt>
      <trkpt lat="47.31207" lon="4.00179">
        <ele>404.2</ele>
        <time>2024-09-06T13:25:53.000Z</time>
      </trkpt>
      <trkpt lat="47.312" lon="4.00178">
        <ele>403.1</ele>
        <time>2024-09-06T13:26:00Z</time>
      </trkpt>
      <trkpt lat="47.31192" lon="4.00181">
        <ele>402</ele>
        <time>2024-09-06T13:26:16Z</time>
      </trkpt>
      <trkpt lat="47.31186" lon="4.00189">
        <ele>401.5</ele>
        <time>2024-09-06T13:26:23.499Z</time>
      </trkpt>
      <trkpt lat="47.3118" lon="4.00196">
        <ele>401</ele>
        <time>2024-09-06T13:26:31Z</time>
      </trkpt>
      <trkpt lat="47.31175" lon="4.00195">
        <ele>399.8</ele>
        <time>2024-09-06T13:26:33.750Z</time>
      </trkpt>
      <trkpt lat="47.3117" lon="4.00194">
        <ele>398.6</ele>
        <time>2024-09-06T13:26:36.500Z</time>
      </trkpt>
      <trkpt lat="47.31164" lon="4.00193">
        <ele>397</ele>
        <time>2024-09-06T13:26:39.250Z</time>
      </trkpt>
      <trkpt lat="47.31159" lon="4.00192">
        <ele>395</ele>
        <time>2024-09-06T13:26:42Z</time>
      </trkpt>
      <trkpt lat="47.31159" lon="4.00184">
        <ele>394.2</ele>
        <time>2024-09-06T13:26:46.500Z</time>
      </trkpt>
      <trkpt lat="47.31159" lon="4.00176">
        <ele>393.4</ele>
        <time>2024-09-06T13:26:51Z</time>
      </trkpt>
      <trkpt lat="47.31159" lon="4.00168">
        <ele>392.6</ele>
        <time>2024-09-06T13:26:56.000Z</time>
      </trkpt>
      <trkpt lat="47.31159" lon="4.0016">
        <ele>391.6</ele>
        <time>2024-09-06T13:27:01Z</time>
      </trkpt>
      <trkpt lat="47.31161" lon="4.00151">
        <ele>391</ele>
        <time>2024-09-06T13:27:06.000Z</time>
      </trkpt>
      <trkpt lat="47.31163" lon="4.00141">
        <ele>390.2</ele>
        <time>2024-09-06T13:27:11Z</time>
      </trkpt>
      <trkpt lat="47.31166" lon="4.00133">
        <ele>389.1</ele>
        <time>2024-09-06T13:27:16.000Z</time>
      </trkpt>
      <trkpt lat="47.31169" lon="4.00125">
        <ele>387.5</ele>
        <time>2024-09-06T13:27:21Z</time>
      </trkpt>
      <trkpt lat="47.31174" lon="4.0012">
        <ele>387.1</ele>
        <time>2024-09-06T13:27:27.000Z</time>
      </trkpt>
      <trkpt lat="47.31179" lon="4.00115">
        <ele>386.7</ele>
        <time>2024-09-06T13:27:33Z</time>
      </trkpt>
      <trkpt lat="47.31184" lon="4.0011">
        <ele>386.6</ele>
        <time>2024-09-06T13:27:37.500Z</time>
      </trkpt>
      <trkpt lat="47.31189" lon="4.00105">
        <ele>386.7</ele>
        <time>2024-09-06T13:27:42Z</time>
      </trkpt>
      <trkpt lat="47.31196" lon="4.00098">
        <ele>386.2</ele>
        <time>2024-09-06T13:27:47.000Z</time>
      </trkpt>
      <trkpt lat="47.31202" lon="4.0009">
        <ele>385.5</ele>
        <time>2024-09-06T13:27:52Z</time>
      </trkpt>
      <trkpt lat="47.31208" lon="4.00086">
        <ele>385.3</ele>
        <time>2024-09-06T13:27:57.000Z</time>
      </trkpt>
      <trkpt lat="47.31213" lon="4.00081">
        <ele>385.3</ele>
        <time>2024-09-06T13:28:02Z</time>
      </trkpt>
      <trkpt lat="47.31218" lon="4.00074">
        <ele>384.8</ele>
        <time>2024-09-06T13:28:06.500Z</time>
      </trkpt>
      <trkpt lat="47.31223" lon="4.00067">
        <ele>384.3</ele>
        <time>2024-09-06T13:28:11Z</time>
      </trkpt>
      <trkpt lat="47.31226" lon="4.00061">
        <ele>384.1</ele>
        <time>2024-09-06T13:28:15.500Z</time>
      </trkpt>
      <trkpt lat="47.31229" lon="4.00055">
        <ele>383.9</ele>
        <time>2024-09-06T13:28:20Z</time>
      </trkpt>
      <trkpt lat="47.31232" lon="4.00049">
        <ele>384</ele>
        <time>2024-09-06T13:28:24.500Z</time>
      </trkpt>
      <trkpt lat="47.31234" lon="4.00043">
        <ele>384</ele>
        <time>2024-09-06T13:28:29Z</time>
      </trkpt>
      <trkpt lat="47.31237" lon="4.00037">
        <ele>383.7</ele>
        <time>2024-09-06T13:28:33.500Z</time>
      </trkpt>
      <trkpt lat="47.31239" lon="4.00031">
        <ele>383.3</ele>
        <time>2024-09-06T13:28:38Z</time>
      </trkpt>
      <trkpt lat="47.31243" lon="4.00025">
        <ele>383</ele>
        <time>2024-09-06T13:28:43.500Z</time>
      </trkpt>
      <trkpt lat="47.31247" lon="4.00018">
        <ele>383</ele>
        <time>2024-09-06T13:28:49Z</time>
      </trkpt>
      <trkpt lat="47.3125" lon="4.00011">
        <ele>382.8</ele>
        <time>2024-09-06T13:28:54.000Z</time>
      </trkpt>
      <trkpt lat="47.31253" lon="4.00004">
        <ele>382.5</ele>
        <time>2024-09-06T13:28:59Z</time>
      </trkpt>
      <trkpt lat="47.31253" lon="3.99993">
        <ele>381.8</ele>
        <time>2024-09-06T13:29:12.249Z</time>
      </trkpt>
      <trkpt lat="47.31253" lon="3.99982">
        <ele>381.3</ele>
        <time>2024-09-06T13:29:25.499Z</time>
      </trkpt>
      <trkpt lat="47.31252" lon="3.99971">
        <ele>381</ele>
        <time>2024-09-06T13:29:38.749Z</time>
      </trkpt>
      <trkpt lat="47.31252" lon="3.9996">
        <ele>382.2</ele>
        <time>2024-09-06T13:29:52Z</time>
      </trkpt>
      <trkpt lat="47.31247" lon="3.99949">
        <ele>383.2</ele>
        <time>2024-09-06T13:30:07Z</time>
      </trkpt>
      <trkpt lat="47.31248" lon="3.99943">
        <ele>383.9</ele>
        <time>2024-09-06T13:30:16.500Z</time>
      </trkpt>
      <trkpt lat="47.31249" lon="3.99936">
        <ele>384.5</ele>
        <time>2024-09-06T13:30:26Z</time>
      </trkpt>
      <trkpt lat="47.31253" lon="3.99928">
        <ele>384.9</ele>
        <time>2024-09-06T13:30:40Z</time>
      </trkpt>
      <trkpt lat="47.31253" lon="3.99919">
        <ele>385.6</ele>
        <time>2024-09-06T13:30:45.999Z</time>
      </trkpt>
      <trkpt lat="47.31252" lon="3.9991">
        <ele>386.3</ele>
        <time>2024-09-06T13:30:52Z</time>
      </trkpt>
      <trkpt lat="47.31252" lon="3.99903">
        <ele>386.9</ele>
        <time>2024-09-06T13:30:57.499Z</time>
      </trkpt>
      <trkpt lat="47.31251" lon="3.99895">
        <ele>387.5</ele>
        <time>2024-09-06T13:31:03Z</time>
      </trkpt>
      <trkpt lat="47.31249" lon="3.99887">
        <ele>388.3</ele>
        <time>2024-09-06T13:31:08.499Z</time>
      </trkpt>
      <trkpt lat="47.31247" lon="3.99879">
        <ele>389.2</ele>
        <time>2024-09-06T13:31:14Z</time>
      </trkpt>
      <trkpt lat="47.31247" lon="3.9987">
        <ele>389.9</ele>
        <time>2024-09-06T13:31:19.999Z</time>
      </trkpt>
      <trkpt lat="47.31246" lon="3.99861">
        <ele>390.6</ele>
        <time>2024-09-06T13:31:26Z</time>
      </trkpt>
      <trkpt lat="47.31249" lon="3.99853">
        <ele>390.8</ele>
        <time>2024-09-06T13:31:32.000Z</time>
      </trkpt>
      <trkpt lat="47.31251" lon="3.99844">
        <ele>391.1</ele>
        <time>2024-09-06T13:31:38Z</time>
      </trkpt>
      <trkpt lat="47.31253" lon="3.99836">
        <ele>391.6</ele>
        <time>2024-09-06T13:31:43.500Z</time>
      </trkpt>
      <trkpt lat="47.31254" lon="3.99827">
        <ele>392</ele>
        <time>2024-09-06T13:31:49Z</time>
      </trkpt>
      <trkpt lat="47.31256" lon="3.99819">
        <ele>392.3</ele>
        <time>2024-09-06T13:31:55.000Z</time>
      </trkpt>
      <trkpt lat="47.31258" lon="3.9981">
        <ele>392.6</ele>
        <time>2024-09-06T13:32:01Z</time>
      </trkpt>
      <trkpt lat="47.31262" lon="3.99802">
        <ele>392.8</ele>
        <time>2024-09-06T13:32:06.500Z</time>
      </trkpt>
      <trkpt lat="47.31265" lon="3.99793">
        <ele>393.2</ele>
        <time>2024-09-06T13:32:12Z</time>
      </trkpt>
      <trkpt lat="47.31267" lon="3.99787">
        <ele>393.8</ele>
        <time>2024-09-06T13:32:18.000Z</time>
      </trkpt>
      <trkpt lat="47.31269" lon="3.9978">
        <ele>394.4</ele>
        <time>2024-09-06T13:32:24Z</time>
      </trkpt>
      <trkpt lat="47.31274" lon="3.99771">
        <ele>395.1</ele>
        <time>2024-09-06T13:32:29.500Z</time>
      </trkpt>
      <trkpt lat="47.31278" lon="3.99762">
        <ele>395.7</ele>
        <time>2024-09-06T13:32:35Z</time>
      </trkpt>
      <trkpt lat="47.31281" lon="3.99755">
        <ele>396.1</ele>
        <time>2024-09-06T13:32:40.000Z</time>
      </trkpt>
      <trkpt lat="47.31284" lon="3.99748">
        <ele>396.7</ele>
        <time>2024-09-06T13:32:45Z</time>
      </trkpt>
      <trkpt lat="47.31287" lon="3.99743">
        <ele>397.5</ele>
        <time>2024-09-06T13:32:50.500Z</time>
      </trkpt>
      <trkpt lat="47.3129" lon="3.99737">
        <ele>398.3</ele>
        <time>2024-09-06T13:32:56Z</time>
      </trkpt>
      <trkpt lat="47.31295" lon="3.99731">
        <ele>398.8</ele>
        <time>2024-09-06T13:33:02.000Z</time>
      </trkpt>
      <trkpt lat="47.313" lon="3.99725">
        <ele>399.3</ele>
        <time>2024-09-06T13:33:08Z</time>
      </trkpt>
      <trkpt lat="47.31304" lon="3.99719">
        <ele>400.1</ele>
        <time>2024-09-06T13:33:15.000Z</time>
      </trkpt>
      <trkpt lat="47.31307" lon="3.99712">
        <ele>401</ele>
        <time>2024-09-06T13:33:22Z</time>
      </trkpt>
      <trkpt lat="47.31311" lon="3.99708">
        <ele>401.4</ele>
        <time>2024-09-06T13:33:25.500Z</time>
      </trkpt>
      <trkpt lat="47.31315" lon="3.99705">
        <ele>401.7</ele>
        <time>2024-09-06T13:33:29.000Z</time>
      </trkpt>
      <trkpt lat="47.31318" lon="3.99701">
        <ele>401.9</ele>
        <time>2024-09-06T13:33:32.500Z</time>
      </trkpt>
      <trkpt lat="47.31322" lon="3.99697">
        <ele>402.1</ele>
        <time>2024-09-06T13:33:36Z</time>
      </trkpt>
      <trkpt lat="47.31329" lon="3.99689">
        <ele>403.5</ele>
        <time>2024-09-06T13:33:47Z</time>
      </trkpt>
      <trkpt lat="47.31334" lon="3.99687">
        <ele>403.7</ele>
        <time>2024-09-06T13:33:52.500Z</time>
      </trkpt>
      <trkpt lat="47.31339" lon="3.99685">
        <ele>404.8</ele>
        <time>2024-09-06T13:33:58Z</time>
      </trkpt>
      <trkpt lat="47.31345" lon="3.99685">
        <ele>405.4</ele>
        <time>2024-09-06T13:34:03.500Z</time>
      </trkpt>
      <trkpt lat="47.3135" lon="3.99684">
        <ele>406</ele>
        <time>2024-09-06T13:34:09Z</time>
      </trkpt>
      <trkpt lat="47.31358" lon="3.99685">
        <ele>406.4</ele>
        <time>2024-09-06T13:34:16.000Z</time>
      </trkpt>
      <trkpt lat="47.31366" lon="3.99685">
        <ele>406.3</ele>
        <time>2024-09-06T13:34:23Z</time>
      </trkpt>
      <trkpt lat="47.31366" lon="3.99685">
        <ele>406.3</ele>
        <time>2024-09-06T13:34:38Z</time>
      </trkpt>
      <trkpt lat="47.31371" lon="3.99684">
        <ele>406.6</ele>
        <time>2024-09-06T13:34:47.500Z</time>
      </trkpt>
      <trkpt lat="47.31376" lon="3.99683">
        <ele>406.8</ele>
        <time>2024-09-06T13:34:57Z</time>
      </trkpt>
      <trkpt lat="47.31381" lon="3.99681">
        <ele>407.2</ele>
        <time>2024-09-06T13:35:03.000Z</time>
      </trkpt>
      <trkpt lat="47.31386" lon="3.99679">
        <ele>407.5</ele>
        <time>2024-09-06T13:35:09Z</time>
      </trkpt>
      <trkpt lat="47.31391" lon="3.99675">
        <ele>407.8</ele>
        <time>2024-09-06T13:35:14.500Z</time>
      </trkpt>
      <trkpt lat="47.31395" lon="3.99671">
        <ele>407.6</ele>
        <time>2024-09-06T13:35:20Z</time>
      </trkpt>
      <trkpt lat="47.31403" lon="3.99665">
        <ele>406.7</ele>
        <time>2024-09-06T13:35:31Z</time>
      </trkpt>
      <trkpt lat="47.31405" lon="3.99659">
        <ele>407.1</ele>
        <time>2024-09-06T13:35:37.000Z</time>
      </trkpt>
      <trkpt lat="47.31407" lon="3.99652">
        <ele>407.4</ele>
        <time>2024-09-06T13:35:43Z</time>
      </trkpt>
      <trkpt lat="47.31409" lon="3.99645">
        <ele>407.8</ele>
        <time>2024-09-06T13:35:49.000Z</time>
      </trkpt>
      <trkpt lat="47.31411" lon="3.99637">
        <ele>408.1</ele>
        <time>2024-09-06T13:35:55Z</time>
      </trkpt>
      <trkpt lat="47.31413" lon="3.99631">
        <ele>408.6</ele>
        <time>2024-09-06T13:36:01.000Z</time>
      </trkpt>
      <trkpt lat="47.31414" lon="3.99624">
        <ele>409</ele>
        <time>2024-09-06T13:36:07Z</time>
      </trkpt>
      <trkpt lat="47.31415" lon="3.99617">
        <ele>409.7</ele>
        <time>2024-09-06T13:36:13.000Z</time>
      </trkpt>
      <trkpt lat="47.31416" lon="3.9961">
        <ele>410.3</ele>
        <time>2024-09-06T13:36:19Z</time>
      </trkpt>
      <trkpt lat="47.31418" lon="3.99602">
        <ele>410.7</ele>
        <time>2024-09-06T13:36:26.500Z</time>
      </trkpt>
      <trkpt lat="47.31419" lon="3.99593">
        <ele>411.1</ele>
        <time>2024-09-06T13:36:34Z</time>
      </trkpt>
      <trkpt lat="47.31421" lon="3.99586">
        <ele>411.2</ele>
        <time>2024-09-06T13:36:40.500Z</time>
      </trkpt>
      <trkpt lat="47.31423" lon="3.99578">
        <ele>411.5</ele>
        <time>2024-09-06T13:36:47Z</time>
      </trkpt>
      <trkpt lat="47.31425" lon="3.9957">
        <ele>411.9</ele>
        <time>2024-09-06T13:36:53.500Z</time>
      </trkpt>
      <trkpt lat="47.31427" lon="3.99562">
        <ele>412.4</ele>
        <time>2024-09-06T13:37:00Z</time>
      </trkpt>
      <trkpt lat="47.31427" lon="3.99554">
        <ele>413.5</ele>
        <time>2024-09-06T13:37:06.000Z</time>
      </trkpt>
      <trkpt lat="47.31427" lon="3.99545">
        <ele>414.2</ele>
        <time>2024-09-06T13:37:12Z</time>
      </trkpt>
      <trkpt lat="47.31431" lon="3.99536">
        <ele>413.8</ele>
        <time>2024-09-06T13:37:18.000Z</time>
      </trkpt>
      <trkpt lat="47.31434" lon="3.99527">
        <ele>413.6</ele>
        <time>2024-09-06T13:37:24Z</time>
      </trkpt>
      <trkpt lat="47.31436" lon="3.9952">
        <ele>414.7</ele>
        <time>2024-09-06T13:37:30.500Z</time>
      </trkpt>
      <trkpt lat="47.31437" lon="3.99513">
        <ele>415.7</ele>
        <time>2024-09-06T13:37:37Z</time>
      </trkpt>
      <trkpt lat="47.3144" lon="3.99505">
        <ele>416.8</ele>
        <time>2024-09-06T13:37:44.000Z</time>
      </trkpt>
      <trkpt lat="47.31442" lon="3.99496">
        <ele>417.5</ele>
        <time>2024-09-06T13:37:51Z</time>
      </trkpt>
      <trkpt lat="47.31445" lon="3.9949">
        <ele>417.5</ele>
        <time>2024-09-06T13:37:58.000Z</time>
      </trkpt>
      <trkpt lat="47.31447" lon="3.99483">
        <ele>417.5</ele>
        <time>2024-09-06T13:38:05Z</time>
      </trkpt>
      <trkpt lat="47.3145" lon="3.99475">
        <ele>417.8</ele>
        <time>2024-09-06T13:38:11.000Z</time>
      </trkpt>
      <trkpt lat="47.31452" lon="3.99467">
        <ele>418.4</ele>
        <time>2024-09-06T13:38:17Z</time>
      </trkpt>
      <trkpt lat="47.31454" lon="3.9946">
        <ele>419.2</ele>
        <time>2024-09-06T13:38:23.500Z</time>
      </trkpt>
      <trkpt lat="47.31456" lon="3.99452">
        <ele>419.9</ele>
        <time>2024-09-06T13:38:30Z</time>
      </trkpt>
      <trkpt lat="47.31457" lon="3.99445">
        <ele>421.1</ele>
        <time>2024-09-06T13:38:52.125Z</time>
      </trkpt>
      <trkpt lat="47.31458" lon="3.99438">
        <ele>422.1</ele>
        <time>2024-09-06T13:39:14.250Z</time>
      </trkpt>
      <trkpt lat="47.31458" lon="3.9943">
        <ele>423.1</ele>
        <time>2024-09-06T13:39:36.375Z</time>
      </trkpt>
      <trkpt lat="47.31459" lon="3.99423">
        <ele>424.1</ele>
        <time>2024-09-06T13:39:58.500Z</time>
      </trkpt>
      <trkpt lat="47.3146" lon="3.99416">
        <ele>425.2</ele>
        <time>2024-09-06T13:40:20.625Z</time>
      </trkpt>
      <trkpt lat="47.31461" lon="3.99409">
        <ele>426.1</ele>
        <time>2024-09-06T13:40:42.750Z</time>
      </trkpt>
      <trkpt lat="47.31461" lon="3.99401">
        <ele>427</ele>
        <time>2024-09-06T13:41:04.875Z</time>
      </trkpt>
      <trkpt lat="47.31462" lon="3.99394">
        <ele>428</ele>
        <time>2024-09-06T13:41:27Z</time>
      </trkpt>
      <trkpt lat="47.31461" lon="3.99386">
        <ele>428.8</ele>
        <time>2024-09-06T13:41:32.999Z</time>
      </trkpt>
      <trkpt lat="47.31459" lon="3.99378">
        <ele>428.2</ele>
        <time>2024-09-06T13:41:39Z</time>
      </trkpt>
      <trkpt lat="47.31458" lon="3.99371">
        <ele>427.7</ele>
        <time>2024-09-06T13:41:43.999Z</time>
      </trkpt>
      <trkpt lat="47.31456" lon="3.99364">
        <ele>427.2</ele>
        <time>2024-09-06T13:41:49Z</time>
      </trkpt>
      <trkpt lat="47.31449" lon="3.99361">
        <ele>428.2</ele>
        <time>2024-09-06T13:41:59Z</time>
      </trkpt>
      <trkpt lat="47.31444" lon="3.99359">
        <ele>428.7</ele>
        <time>2024-09-06T13:42:03.999Z</time>
      </trkpt>
      <trkpt lat="47.31439" lon="3.99357">
        <ele>429.5</ele>
        <time>2024-09-06T13:42:09Z</time>
      </trkpt>
      <trkpt lat="47.31435" lon="3.99354">
        <ele>430</ele>
        <time>2024-09-06T13:42:14.499Z</time>
      </trkpt>
      <trkpt lat="47.3143" lon="3.99351">
        <ele>430.5</ele>
        <time>2024-09-06T13:42:20Z</time>
      </trkpt>
      <trkpt lat="47.31425" lon="3.9935">
        <ele>431.5</ele>
        <time>2024-09-06T13:42:25.500Z</time>
      </trkpt>
      <trkpt lat="47.31419" lon="3.99348">
        <ele>432.6</ele>
        <time>2024-09-06T13:42:31Z</time>
      </trkpt>
      <trkpt lat="47.31414" lon="3.99347">
        <ele>433.5</ele>
        <time>2024-09-06T13:42:37.000Z</time>
      </trkpt>
      <trkpt lat="47.31408" lon="3.99346">
        <ele>434.2</ele>
        <time>2024-09-06T13:42:43Z</time>
      </trkpt>
      <trkpt lat="47.31402" lon="3.99346">
        <ele>435</ele>
        <time>2024-09-06T13:42:49.500Z</time>
      </trkpt>
      <trkpt lat="47.31396" lon="3.99345">
        <ele>435.8</ele>
        <time>2024-09-06T13:42:56Z</time>
      </trkpt>
      <trkpt lat="47.3139" lon="3.9934">
        <ele>435.6</ele>
        <time>2024-09-06T13:43:02.999Z</time>
      </trkpt>
      <trkpt lat="47.31383" lon="3.99335">
        <ele>435.9</ele>
        <time>2024-09-06T13:43:10Z</time>
      </trkpt>
      <trkpt lat="47.31376" lon="3.99334">
        <ele>437.3</ele>
        <time>2024-09-06T13:43:16.000Z</time>
      </trkpt>
      <trkpt lat="47.31369" lon="3.99332">
        <ele>438.6</ele>
        <time>2024-09-06T13:43:22Z</time>
      </trkpt>
      <trkpt lat="47.31364" lon="3.99328">
        <ele>438.6</ele>
        <time>2024-09-06T13:43:29.499Z</time>
      </trkpt>
      <trkpt lat="47.31359" lon="3.99323">
        <ele>438.5</ele>
        <time>2024-09-06T13:43:37Z</time>
      </trkpt>
      <trkpt lat="47.31354" lon="3.99319">
        <ele>438.5</ele>
        <time>2024-09-06T13:43:43.999Z</time>
      </trkpt>
      <trkpt lat="47.31349" lon="3.99314">
        <ele>438.7</ele>
        <time>2024-09-06T13:43:51Z</time>
      </trkpt>
      <trkpt lat="47.31344" lon="3.99308">
        <ele>438.7</ele>
        <time>2024-09-06T13:43:56.999Z</time>
      </trkpt>
      <trkpt lat="47.31338" lon="3.99302">
        <ele>439.2</ele>
        <time>2024-09-06T13:44:03Z</time>
      </trkpt>
      <trkpt lat="47.31333" lon="3.99294">
        <ele>439.9</ele>
        <time>2024-09-06T13:44:08.999Z</time>
      </trkpt>
      <trkpt lat="47.31328" lon="3.99286">
        <ele>440.7</ele>
        <time>2024-09-06T13:44:15Z</time>
      </trkpt>
      <trkpt lat="47.31325" lon="3.99279">
        <ele>441</ele>
        <time>2024-09-06T13:44:20.499Z</time>
      </trkpt>
      <trkpt lat="47.31321" lon="3.99272">
        <ele>441</ele>
        <time>2024-09-06T13:44:26Z</time>
      </trkpt>
      <trkpt lat="47.31318" lon="3.99267">
        <ele>441.2</ele>
        <time>2024-09-06T13:44:30.499Z</time>
      </trkpt>
      <trkpt lat="47.31315" lon="3.99261">
        <ele>441.3</ele>
        <time>2024-09-06T13:44:35Z</time>
      </trkpt>
      <trkpt lat="47.31309" lon="3.99252">
        <ele>442.1</ele>
        <time>2024-09-06T13:44:45Z</time>
      </trkpt>
      <trkpt lat="47.31301" lon="3.99247">
        <ele>443.9</ele>
        <time>2024-09-06T13:44:55Z</time>
      </trkpt>
      <trkpt lat="47.31297" lon="3.99242">
        <ele>444.2</ele>
        <time>2024-09-06T13:45:00.499Z</time>
      </trkpt>
      <trkpt lat="47.31293" lon="3.99237">
        <ele>444.5</ele>
        <time>2024-09-06T13:45:06Z</time>
      </trkpt>
      <trkpt lat="47.3129" lon="3.99232">
        <ele>444.7</ele>
        <time>2024-09-06T13:45:10.999Z</time>
      </trkpt>
      <trkpt lat="47.31286" lon="3.99227">
        <ele>444.7</ele>
        <time>2024-09-06T13:45:16Z</time>
      </trkpt>
      <trkpt lat="47.31282" lon="3.99222">
        <ele>444.9</ele>
        <time>2024-09-06T13:45:20.999Z</time>
      </trkpt>
      <trkpt lat="47.31278" lon="3.99217">
        <ele>445.4</ele>
        <time>2024-09-06T13:45:26Z</time>
      </trkpt>
      <trkpt lat="47.31274" lon="3.99213">
        <ele>446.1</ele>
        <time>2024-09-06T13:45:30.999Z</time>
      </trkpt>
      <trkpt lat="47.31269" lon="3.99208">
        <ele>446.8</ele>
        <time>2024-09-06T13:45:36Z</time>
      </trkpt>
      <trkpt lat="47.31265" lon="3.99204">
        <ele>447.5</ele>
        <time>2024-09-06T13:45:41.499Z</time>
      </trkpt>
      <trkpt lat="47.3126" lon="3.99199">
        <ele>448.1</ele>
        <time>2024-09-06T13:45:47Z</time>
      </trkpt>
      <trkpt lat="47.31257" lon="3.99193">
        <ele>448.1</ele>
        <time>2024-09-06T13:45:51.999Z</time>
      </trkpt>
      <trkpt lat="47.31254" lon="3.99186">
        <ele>448.3</ele>
        <time>2024-09-06T13:45:57Z</time>
      </trkpt>
      <trkpt lat="47.31252" lon="3.9918">
        <ele>448.2</ele>
        <time>2024-09-06T13:46:03.499Z</time>
      </trkpt>
      <trkpt lat="47.31249" lon="3.99173">
        <ele>448</ele>
        <time>2024-09-06T13:46:10Z</time>
      </trkpt>
      <trkpt lat="47.31248" lon="3.99165">
        <ele>447.8</ele>
        <time>2024-09-06T13:46:15.499Z</time>
      </trkpt>
      <trkpt lat="47.31247" lon="3.99157">
        <ele>449</ele>
        <time>2024-09-06T13:46:21Z</time>
      </trkpt>
      <trkpt lat="47.31246" lon="3.9915">
        <ele>449.9</ele>
        <time>2024-09-06T13:46:25.999Z</time>
      </trkpt>
      <trkpt lat="47.31244" lon="3.99143">
        <ele>450.7</ele>
        <time>2024-09-06T13:46:31Z</time>
      </trkpt>
      <trkpt lat="47.31243" lon="3.99137">
        <ele>451.5</ele>
        <time>2024-09-06T13:46:35.999Z</time>
      </trkpt>
      <trkpt lat="47.31241" lon="3.9913">
        <ele>452.6</ele>
        <time>2024-09-06T13:46:41Z</time>
      </trkpt>
      <trkpt lat="47.3124" lon="3.99123">
        <ele>453.8</ele>
        <time>2024-09-06T13:46:46.499Z</time>
      </trkpt>
      <trkpt lat="47.31238" lon="3.99115">
        <ele>454.8</ele>
        <time>2024-09-06T13:46:52Z</time>
      </trkpt>
      <trkpt lat="47.31237" lon="3.99107">
        <ele>455.6</ele>
        <time>2024-09-06T13:46:57.499Z</time>
      </trkpt>
      <trkpt lat="47.31235" lon="3.99098">
        <ele>456.2</ele>
        <time>2024-09-06T13:47:03Z</time>
      </trkpt>
      <trkpt lat="47.31234" lon="3.99091">
        <ele>456.7</ele>
        <time>2024-09-06T13:47:07.999Z</time>
      </trkpt>
      <trkpt lat="47.31232" lon="3.99083">
        <ele>457.1</ele>
        <time>2024-09-06T13:47:13Z</time>
      </trkpt>
      <trkpt lat="47.31231" lon="3.99076">
        <ele>457.6</ele>
        <time>2024-09-06T13:47:17.999Z</time>
      </trkpt>
      <trkpt lat="47.3123" lon="3.99069">
        <ele>458.1</ele>
        <time>2024-09-06T13:47:23Z</time>
      </trkpt>
      <trkpt lat="47.31227" lon="3.99057">
        <ele>458.7</ele>
        <time>2024-09-06T13:47:33Z</time>
      </trkpt>
      <trkpt lat="47.31226" lon="3.9905">
        <ele>459.2</ele>
        <time>2024-09-06T13:47:37.999Z</time>
      </trkpt>
      <trkpt lat="47.31224" lon="3.99042">
        <ele>459.7</ele>
        <time>2024-09-06T13:47:43Z</time>
      </trkpt>
      <trkpt lat="47.31222" lon="3.99035">
        <ele>460.2</ele>
        <time>2024-09-06T13:47:47.999Z</time>
      </trkpt>
      <trkpt lat="47.3122" lon="3.99028">
        <ele>460.8</ele>
        <time>2024-09-06T13:47:53Z</time>
      </trkpt>
      <trkpt lat="47.31219" lon="3.99021">
        <ele>461.2</ele>
        <time>2024-09-06T13:47:57.999Z</time>
      </trkpt>
      <trkpt lat="47.31217" lon="3.99014">
        <ele>461.6</ele>
        <time>2024-09-06T13:48:03Z</time>
      </trkpt>
      <trkpt lat="47.31214" lon="3.99009">
        <ele>461.8</ele>
        <time>2024-09-06T13:48:07.999Z</time>
      </trkpt>
      <trkpt lat="47.31211" lon="3.99003">
        <ele>462</ele>
        <time>2024-09-06T13:48:13Z</time>
      </trkpt>
      <trkpt lat="47.31204" lon="3.98997">
        <ele>462</ele>
        <time>2024-09-06T13:48:22Z</time>
      </trkpt>
      <trkpt lat="47.31199" lon="3.98995">
        <ele>461.9</ele>
        <time>2024-09-06T13:48:26.999Z</time>
      </trkpt>
      <trkpt lat="47.31194" lon="3.98992">
        <ele>461.9</ele>
        <time>2024-09-06T13:48:32Z</time>
      </trkpt>
      <trkpt lat="47.3119" lon="3.98989">
        <ele>462.3</ele>
        <time>2024-09-06T13:48:37.999Z</time>
      </trkpt>
      <trkpt lat="47.31186" lon="3.98985">
        <ele>462.6</ele>
        <time>2024-09-06T13:48:44Z</time>
      </trkpt>
      <trkpt lat="47.31187" lon="3.98988">
        <ele>462.4</ele>
        <time>2024-09-06T13:49:26Z</time>
      </trkpt>
      <trkpt lat="47.31183" lon="3.98989">
        <ele>462.4</ele>
        <time>2024-09-06T13:50:17Z</time>
      </trkpt>
      <trkpt lat="47.31179" lon="3.9899">
        <ele>462.4</ele>
        <time>2024-09-06T13:50:30.499Z</time>
      </trkpt>
      <trkpt lat="47.31174" lon="3.98991">
        <ele>462.5</ele>
        <time>2024-09-06T13:50:44Z</time>
      </trkpt>
      <trkpt lat="47.31166" lon="3.98994">
        <ele>462.8</ele>
        <time>2024-09-06T13:51:30Z</time>
      </trkpt>
      <trkpt lat="47.31161" lon="3.98997">
        <ele>463.3</ele>
        <time>2024-09-06T13:51:36.499Z</time>
      </trkpt>
      <trkpt lat="47.31156" lon="3.99">
        <ele>463.8</ele>
        <time>2024-09-06T13:51:43Z</time>
      </trkpt>
      <trkpt lat="47.31152" lon="3.99003">
        <ele>464.3</ele>
        <time>2024-09-06T13:51:48.999Z</time>
      </trkpt>
      <trkpt lat="47.31147" lon="3.99006">
        <ele>464.8</ele>
        <time>2024-09-06T13:51:55Z</time>
      </trkpt>
      <trkpt lat="47.31143" lon="3.99009">
        <ele>465.3</ele>
        <time>2024-09-06T13:51:59.999Z</time>
      </trkpt>
      <trkpt lat="47.31138" lon="3.99012">
        <ele>466</ele>
        <time>2024-09-06T13:52:05Z</time>
      </trkpt>
      <trkpt lat="47.31134" lon="3.99015">
        <ele>466.5</ele>
        <time>2024-09-06T13:52:09.999Z</time>
      </trkpt>
      <trkpt lat="47.31129" lon="3.99018">
        <ele>467</ele>
        <time>2024-09-06T13:52:15Z</time>
      </trkpt>
      <trkpt lat="47.31125" lon="3.99022">
        <ele>467.4</ele>
        <time>2024-09-06T13:52:20.499Z</time>
      </trkpt>
      <trkpt lat="47.31121" lon="3.99026">
        <ele>467.6</ele>
        <time>2024-09-06T13:52:26Z</time>
      </trkpt>
      <trkpt lat="47.31115" lon="3.99029">
        <ele>467.9</ele>
        <time>2024-09-06T13:52:32.499Z</time>
      </trkpt>
      <trkpt lat="47.31109" lon="3.99032">
        <ele>468.4</ele>
        <time>2024-09-06T13:52:39Z</time>
      </trkpt>
      <trkpt lat="47.31104" lon="3.99035">
        <ele>469.2</ele>
        <time>2024-09-06T13:52:44.999Z</time>
      </trkpt>
      <trkpt lat="47.31098" lon="3.99037">
        <ele>469.9</ele>
        <time>2024-09-06T13:52:51Z</time>
      </trkpt>
      <trkpt lat="47.31093" lon="3.99039">
        <ele>470.5</ele>
        <time>2024-09-06T13:52:56.000Z</time>
      </trkpt>
      <trkpt lat="47.31087" lon="3.9904">
        <ele>471.1</ele>
        <time>2024-09-06T13:53:01Z</time>
      </trkpt>
      <trkpt lat="47.31082" lon="3.99043">
        <ele>471.6</ele>
        <time>2024-09-06T13:53:05.999Z</time>
      </trkpt>
      <trkpt lat="47.31076" lon="3.99045">
        <ele>471.7</ele>
        <time>2024-09-06T13:53:11Z</time>
      </trkpt>
      <trkpt lat="47.31071" lon="3.99047">
        <ele>471.9</ele>
        <time>2024-09-06T13:53:15.999Z</time>
      </trkpt>
      <trkpt lat="47.31066" lon="3.99049">
        <ele>472</ele>
        <time>2024-09-06T13:53:21Z</time>
      </trkpt>
      <trkpt lat="47.31061" lon="3.9905">
        <ele>472.2</ele>
        <time>2024-09-06T13:53:27.500Z</time>
      </trkpt>
      <trkpt lat="47.31056" lon="3.99051">
        <ele>472.3</ele>
        <time>2024-09-06T13:53:34Z</time>
      </trkpt>
      <trkpt lat="47.3105" lon="3.9905">
        <ele>472.8</ele>
        <time>2024-09-06T13:53:48.000Z</time>
      </trkpt>
      <trkpt lat="47.31044" lon="3.99049">
        <ele>473.2</ele>
        <time>2024-09-06T13:54:02Z</time>
      </trkpt>
      <trkpt lat="47.3104" lon="3.99049">
        <ele>473.5</ele>
        <time>2024-09-06T13:54:46Z</time>
      </trkpt>
      <trkpt lat="47.31038" lon="3.99055">
        <ele>473.3</ele>
        <time>2024-09-06T13:55:17Z</time>
      </trkpt>
      <trkpt lat="47.31031" lon="3.9906">
        <ele>473.8</ele>
        <time>2024-09-06T13:55:24.999Z</time>
      </trkpt>
      <trkpt lat="47.31024" lon="3.99064">
        <ele>474.1</ele>
        <time>2024-09-06T13:55:33Z</time>
      </trkpt>
      <trkpt lat="47.31021" lon="3.99069">
        <ele>474</ele>
        <time>2024-09-06T13:55:36.749Z</time>
      </trkpt>
      <trkpt lat="47.31018" lon="3.99074">
        <ele>473.9</ele>
        <time>2024-09-06T13:55:40.499Z</time>
      </trkpt>
      <trkpt lat="47.31014" lon="3.99078">
        <ele>473.7</ele>
        <time>2024-09-06T13:55:44.249Z</time>
      </trkpt>
      <trkpt lat="47.31011" lon="3.99083">
        <ele>473.4</ele>
        <time>2024-09-06T13:55:48Z</time>
      </trkpt>
      <trkpt lat="47.31012" lon="3.99091">
        <ele>473.3</ele>
        <time>2024-09-06T13:55:53.000Z</time>
      </trkpt>
      <trkpt lat="47.31012" lon="3.99098">
        <ele>473.2</ele>
        <time>2024-09-06T13:55:58Z</time>
      </trkpt>
      <trkpt lat="47.31015" lon="3.99107">
        <ele>473.1</ele>
        <time>2024-09-06T13:56:03.000Z</time>
      </trkpt>
      <trkpt lat="47.31017" lon="3.99116">
        <ele>472.9</ele>
        <time>2024-09-06T13:56:08Z</time>
      </trkpt>
      <trkpt lat="47.31019" lon="3.99123">
        <ele>472.9</ele>
        <time>2024-09-06T13:56:13.500Z</time>
      </trkpt>
      <trkpt lat="47.3102" lon="3.99129">
        <ele>472.8</ele>
        <time>2024-09-06T13:56:19Z</time>
      </trkpt>
      <trkpt lat="47.3102" lon="3.99124">
        <ele>472.9</ele>
        <time>2024-09-06T13:57:07Z</time>
      </trkpt>
    </trkseg>
  </trk>
</gpx>